[[{"header":{"parameterUnit":"m.s-1","parameterCategory":1,"la1":30.6,"la2":29.2853,"lo1":-89.7004,"lo2":-87.6739,"dy":0.0162,"dx":0.0183,"nx":112,"ny":82,"refTime":"2026-04-03T00:00:00:Z","depth":0,"parameterNumber":2,"parameterNumberName":"U-component_of_WINDS"},"data":[0.0,0.0,0.0,0.0,0.0,0.0,0.0,0.0,0.0,0.0,0.0,0.0,0.0,0.0,0.0,0.0,0.0,0.0,0.0,0.0,0.0,0.0,0.0,0.0,0.0,0.0,0.0,0.0,0.0,0.0,0.0,0.0,0.0,0.0,0.0,0.0,0.0,0.0,0.0,0.0,0.0,0.0,0.0,0.0,0.0,0.0,0.0,0.0,0.0,0.0,0.0,0.0,0.0,0.0,0.0,0.0,0.0,0.0,0.0,0.0,0.0,0.0,0.0,0.0,0.0,0.0,0.0,0.0,0.0,0.0,0.0,0.0,0.0,0.0,0.0,0.0,0.0,0.0,0.0,0.0,0.0,0.0,0.0,0.0,0.0,0.0,0.0,0.0,0.0,0.0,4.4982,4.9691,5.387,5.6019,5.5268,5.4155,5.1175,4.5726,0.0,0.0,0.0,0.0,0.0,0.0,0.0,0.0,0.0,0.0,0.0,0.0,0.0,0.0,0.0,0.0,0.0,0.0,0.0,0.0,0.0,0.0,0.0,0.0,0.0,0.0,0.0,0.0,0.0,0.0,0.0,0.0,0.0,0.0,0.0,0.0,0.0,0.0,0.0,0.0,0.0,0.0,0.0,0.0,0.0,0.0,0.0,0.0,0.0,0.0,0.0,0.0,0.0,0.0,0.0,0.0,0.0,0.0,0.0,0.0,0.0,0.0,0.0,0.0,0.0,0.0,0.0,0.0,0.0,0.0,0.0,0.0,0.0,0.0,0.0,0.0,0.0,0.0,0.0,0.0,0.0,0.0,0.0,0.0,0.0,0.0,0.0,0.0,0.0,0.0,0.0,0.0,0.0,0.0,0.0,0.0,0.0,0.0,0.0,0.0,0.0,0.0,0.0,0.0,4.4777,5.1307,5.4582,5.6253,5.6097,5.396,5.1292,4.8204,0.0,0.0,0.0,0.0,0.0,0.0,0.0,0.0,0.0,0.0,0.0,0.0,0.0,0.0,0.0,0.0,0.0,0.0,0.0,0.0,0.0,0.0,0.0,0.0,0.0,0.0,0.0,0.0,0.0,0.0,0.0,0.0,0.0,0.0,0.0,0.0,0.0,0.0,0.0,0.0,0.0,0.0,0.0,0.0,0.0,0.0,0.0,0.0,0.0,0.0,0.0,0.0,0.0,0.0,0.0,0.0,0.0,0.0,0.0,0.0,0.0,0.0,0.0,0.0,0.0,0.0,0.0,0.0,0.0,0.0,0.0,0.0,0.0,0.0,0.0,0.0,0.0,0.0,0.0,0.0,0.0,0.0,0.0,0.0,0.0,0.0,0.0,0.0,0.0,0.0,0.0,0.0,0.0,0.0,0.0,0.0,0.0,0.0,0.0,0.0,0.0,0.0,0.0,4.4855,4.775,5.3222,5.5281,5.6097,5.5631,5.3222,5.0437,4.7367,4.3996,0.0,0.0,0.0,0.0,0.0,0.0,0.0,0.0,0.0,0.0,0.0,0.0,0.0,0.0,0.0,0.0,0.0,0.0,0.0,0.0,0.0,0.0,0.0,0.0,0.0,0.0,0.0,0.0,0.0,0.0,0.0,0.0,0.0,0.0,0.0,0.0,0.0,0.0,0.0,0.0,0.0,0.0,0.0,0.0,0.0,0.0,0.0,0.0,0.0,0.0,0.0,0.0,0.0,0.0,0.0,0.0,0.0,0.0,0.0,0.0,0.0,0.0,0.0,0.0,0.0,0.0,0.0,0.0,0.0,0.0,0.0,0.0,0.0,0.0,0.0,0.0,0.0,0.0,0.0,0.0,0.0,0.0,0.0,0.0,0.0,0.0,0.0,0.0,0.0,0.0,0.0,0.0,0.0,0.0,0.0,0.0,0.0,0.0,0.0,0.0,0.0,0.0,4.801,5.0596,5.4298,5.5476,5.5709,5.5048,5.229,4.926,4.6191,4.2617,0.0,0.0,0.0,0.0,0.0,0.0,0.0,0.0,0.0,0.0,0.0,0.0,0.0,0.0,0.0,0.0,0.0,0.0,0.0,0.0,0.0,0.0,0.0,0.0,0.0,0.0,0.0,0.0,0.0,0.0,0.0,0.0,0.0,0.0,0.0,0.0,0.0,0.0,0.0,0.0,0.0,0.0,0.0,0.0,0.0,0.0,0.0,0.0,0.0,0.0,0.0,0.0,0.0,0.0,0.0,0.0,0.0,0.0,0.0,0.0,0.0,0.0,0.0,0.0,0.0,0.0,0.0,0.0,0.0,0.0,0.0,0.0,0.0,0.0,0.0,0.0,0.0,0.0,0.0,0.0,0.0,0.0,0.0,0.0,0.0,0.0,0.0,0.0,0.0,0.0,0.0,0.0,0.0,0.0,0.0,0.0,0.0,0.0,0.0,0.0,0.0,0.0,4.7908,5.1658,5.3598,5.4569,5.5087,5.5009,5.1163,4.7978,4.6113,4.2073,0.0,0.0,0.0,0.0,0.0,0.0,0.0,0.0,0.0,0.0,0.0,0.0,0.0,0.0,0.0,0.0,0.0,0.0,0.0,0.0,0.0,0.0,0.0,0.0,0.0,0.0,0.0,0.0,0.0,0.0,0.0,0.0,0.0,0.0,0.0,0.0,0.0,0.0,0.0,0.0,0.0,0.0,0.0,0.0,0.0,0.0,0.0,0.0,0.0,0.0,0.0,0.0,0.0,0.0,0.0,0.0,0.0,0.0,0.0,0.0,0.0,0.0,0.0,0.0,0.0,0.0,0.0,0.0,0.0,0.0,0.0,0.0,0.0,0.0,0.0,0.0,0.0,0.0,0.0,0.0,0.0,0.0,0.0,0.0,0.0,0.0,0.0,0.0,0.0,0.0,0.0,0.0,0.0,0.0,0.0,0.0,0.0,0.0,0.0,0.0,0.0,0.0,4.6784,4.9951,5.3327,5.4,5.3974,5.3417,5.093,4.8211,4.5414,0.0,0.0,0.0,0.0,0.0,0.0,0.0,0.0,0.0,0.0,0.0,0.0,0.0,0.0,0.0,0.0,0.0,0.0,0.0,0.0,0.0,0.0,0.0,0.0,0.0,0.0,0.0,0.0,0.0,0.0,0.0,0.0,0.0,0.0,0.0,0.0,0.0,0.0,0.0,0.0,0.0,0.0,0.0,0.0,0.0,0.0,0.0,0.0,0.0,0.0,0.0,0.0,0.0,0.0,0.0,0.0,0.0,0.0,0.0,0.0,0.0,0.0,0.0,0.0,0.0,0.0,0.0,0.0,0.0,0.0,0.0,0.0,0.0,0.0,0.0,0.0,0.0,0.0,0.0,0.0,0.0,0.0,0.0,0.0,0.0,0.0,0.0,0.0,0.0,0.0,0.0,0.0,0.0,0.0,0.0,0.0,0.0,0.0,0.0,0.0,0.0,0.0,4.3712,4.6435,4.9445,0.0,5.343,5.3146,5.286,5.027,4.7434,4.4559,0.0,0.0,0.0,0.0,0.0,0.0,0.0,0.0,0.0,0.0,0.0,0.0,0.0,0.0,0.0,0.0,0.0,0.0,0.0,0.0,0.0,0.0,0.0,0.0,0.0,0.0,0.0,0.0,0.0,0.0,0.0,0.0,0.0,0.0,0.0,0.0,0.0,0.0,0.0,0.0,0.0,0.0,0.0,0.0,0.0,0.0,0.0,0.0,0.0,0.0,0.0,0.0,0.0,0.0,0.0,0.0,0.0,0.0,0.0,0.0,0.0,0.0,0.0,0.0,0.0,0.0,0.0,0.0,0.0,0.0,0.0,0.0,0.0,0.0,0.0,0.0,0.0,0.0,0.0,0.0,0.0,0.0,0.0,0.0,0.0,0.0,0.0,0.0,0.0,0.0,0.0,0.0,0.0,0.0,0.0,0.0,0.0,0.0,0.0,0.0,0.0,0.0,4.2976,4.7041,5.0695,5.329,5.2859,5.2745,5.3598,4.8977,4.5297,0.0,0.0,0.0,0.0,0.0,0.0,0.0,0.0,0.0,0.0,0.0,0.0,0.0,0.0,0.0,0.0,0.0,0.0,0.0,0.0,0.0,0.0,0.0,0.0,0.0,0.0,0.0,0.0,0.0,0.0,0.0,0.0,0.0,0.0,0.0,0.0,0.0,0.0,0.0,0.0,0.0,0.0,0.0,0.0,0.0,0.0,0.0,0.0,0.0,0.0,0.0,0.0,0.0,0.0,0.0,0.0,0.0,0.0,0.0,0.0,0.0,0.0,0.0,0.0,0.0,0.0,0.0,0.0,0.0,0.0,0.0,0.0,0.0,0.0,0.0,0.0,0.0,0.0,0.0,0.0,0.0,0.0,0.0,0.0,0.0,0.0,0.0,0.0,0.0,0.0,0.0,0.0,0.0,0.0,0.0,0.0,0.0,0.0,0.0,0.0,0.0,0.0,0.0,4.3053,4.7555,5.1091,5.2515,5.2482,5.2446,5.2745,4.9742,4.6346,4.2811,0.0,0.0,0.0,0.0,0.0,0.0,0.0,0.0,0.0,0.0,0.0,0.0,0.0,0.0,0.0,0.0,0.0,0.0,0.0,0.0,0.0,0.0,0.0,0.0,0.0,0.0,0.0,0.0,0.0,0.0,0.0,0.0,0.0,0.0,0.0,0.0,0.0,0.0,0.0,0.0,0.0,0.0,0.0,0.0,0.0,0.0,0.0,0.0,0.0,0.0,0.0,0.0,0.0,0.0,0.0,0.0,0.0,0.0,0.0,0.0,0.0,0.0,0.0,0.0,0.0,0.0,0.0,0.0,0.0,0.0,0.0,0.0,0.0,0.0,0.0,0.0,0.0,0.0,0.0,0.0,0.0,0.0,0.0,0.0,0.0,0.0,0.0,0.0,0.0,0.0,0.0,0.0,0.0,0.0,0.0,0.0,0.0,0.0,0.0,0.0,0.0,0.0,4.3053,4.7773,5.137,5.264,5.2492,5.2443,5.2834,5.0234,4.6879,4.2966,0.0,0.0,0.0,0.0,0.0,0.0,0.0,0.0,0.0,0.0,0.0,0.0,0.0,0.0,0.0,0.0,0.0,0.0,0.0,0.0,0.0,0.0,0.0,0.0,0.0,0.0,0.0,0.0,0.0,0.0,0.0,0.0,0.0,0.0,0.0,0.0,0.0,0.0,0.0,0.0,0.0,0.0,0.0,0.0,0.0,0.0,0.0,0.0,0.0,0.0,0.0,0.0,0.0,0.0,0.0,0.0,0.0,0.0,0.0,0.0,0.0,0.0,0.0,0.0,0.0,0.0,0.0,0.0,0.0,0.0,0.0,0.0,0.0,0.0,0.0,0.0,0.0,0.0,0.0,0.0,0.0,0.0,0.0,0.0,0.0,0.0,0.0,0.0,0.0,0.0,0.0,0.0,0.0,0.0,0.0,0.0,0.0,0.0,0.0,0.0,0.0,0.0,4.2976,4.7811,5.1641,5.3227,5.2717,5.2608,5.3412,5.0429,4.7078,4.3694,0.0,0.0,0.0,0.0,0.0,0.0,0.0,0.0,0.0,0.0,0.0,0.0,0.0,0.0,0.0,0.0,0.0,0.0,0.0,0.0,0.0,0.0,0.0,0.0,0.0,0.0,0.0,0.0,0.0,0.0,0.0,0.0,0.0,0.0,0.0,0.0,0.0,0.0,0.0,0.0,0.0,0.0,0.0,0.0,0.0,0.0,0.0,0.0,0.0,0.0,0.0,0.0,0.0,0.0,0.0,0.0,0.0,0.0,0.0,0.0,4.1973,0.0,0.0,0.0,0.0,0.0,0.0,0.0,0.0,0.0,0.0,0.0,0.0,0.0,0.0,0.0,0.0,0.0,0.0,0.0,0.0,0.0,0.0,0.0,0.0,0.0,0.0,0.0,0.0,0.0,0.0,0.0,0.0,0.0,0.0,0.0,0.0,0.0,0.0,0.0,0.0,0.0,4.3053,4.8353,5.2066,5.2453,5.2369,5.2361,5.2569,5.0067,4.7039,4.3624,4.0888,0.0,0.0,0.0,0.0,0.0,0.0,0.0,0.0,0.0,0.0,0.0,0.0,0.0,0.0,0.0,0.0,0.0,0.0,0.0,0.0,0.0,0.0,0.0,0.0,0.0,0.0,0.0,0.0,0.0,0.0,0.0,0.0,0.0,0.0,0.0,0.0,0.0,0.0,0.0,0.0,0.0,0.0,0.0,0.0,0.0,0.0,0.0,0.0,0.0,0.0,0.0,0.0,0.0,0.0,0.0,0.0,0.0,0.0,0.0,0.0,4.3612,0.0,0.0,0.0,0.0,0.0,0.0,0.0,0.0,0.0,0.0,0.0,0.0,0.0,0.0,0.0,0.0,0.0,0.0,0.0,0.0,0.0,0.0,0.0,0.0,0.0,0.0,0.0,0.0,0.0,0.0,0.0,0.0,0.0,0.0,0.0,0.0,0.0,0.0,0.0,0.0,4.3092,4.8159,5.1757,5.2144,5.2237,5.2268,5.2313,5.0364,4.7842,4.4849,4.2296,0.0,0.0,0.0,0.0,0.0,0.0,0.0,0.0,0.0,0.0,0.0,0.0,0.0,0.0,0.0,0.0,0.0,0.0,0.0,0.0,0.0,0.0,0.0,0.0,0.0,0.0,0.0,0.0,0.0,0.0,0.0,0.0,0.0,0.0,0.0,0.0,0.0,0.0,0.0,0.0,0.0,0.0,0.0,0.0,0.0,0.0,0.0,0.0,0.0,0.0,0.0,0.0,0.0,5.1445,5.2225,5.1674,5.2269,5.301,5.3596,4.9926,4.8287,4.8057,4.562,0.0,0.0,0.0,0.0,0.0,0.0,0.0,0.0,0.0,0.0,0.0,0.0,0.0,0.0,0.0,0.0,0.0,0.0,0.0,0.0,0.0,0.0,0.0,0.0,4.5258,4.5065,0.0,0.0,0.0,0.0,0.0,0.0,0.0,0.0,0.0,0.0,0.0,0.0,4.3285,4.7734,5.1022,5.1873,5.195,5.1982,5.2056,5.0674,4.8761,4.6374,4.3976,4.1179,0.0,0.0,0.0,0.0,0.0,0.0,0.0,0.0,0.0,0.0,0.0,0.0,0.0,0.0,0.0,0.0,0.0,0.0,0.0,0.0,0.0,0.0,0.0,0.0,0.0,0.0,0.0,0.0,0.0,0.0,0.0,0.0,4.3086,4.3203,0.0,0.0,0.0,0.0,0.0,0.0,0.0,0.0,0.0,0.0,0.0,0.0,0.0,4.8951,5.0559,5.2156,5.3795,5.5435,5.6528,5.7348,5.789,5.7304,5.7504,5.8207,5.6918,0.0,5.0746,4.888,0.0,0.0,0.0,0.0,0.0,0.0,0.0,0.0,0.0,0.0,0.0,0.0,0.0,0.0,0.0,0.0,0.0,0.0,0.0,0.0,0.0,0.0,4.8662,4.7927,4.7889,4.7657,0.0,4.3208,4.0423,3.9081,3.7793,0.0,0.0,0.0,0.0,0.0,0.0,0.0,4.4136,4.7618,5.0171,5.0983,5.1061,5.1115,5.116,5.035,4.902,4.7233,4.5442,4.3238,4.0519,3.8693,0.0,0.0,0.0,0.0,0.0,0.0,0.0,0.0,0.0,0.0,0.0,0.0,0.0,0.0,0.0,0.0,0.0,0.0,0.0,0.0,0.0,0.0,0.0,0.0,0.0,0.0,0.0,0.0,0.0,4.3164,4.4414,4.4414,4.4844,4.4297,0.0,0.0,0.0,0.0,0.0,0.0,0.0,0.0,0.0,5.0391,5.1794,5.3546,5.5726,5.6468,5.7757,5.9475,6.0334,6.0959,6.1271,6.0409,6.0487,6.1193,5.9358,5.7757,5.6192,5.3018,5.0484,4.8389,0.0,0.0,0.0,0.0,4.5234,4.5117,4.7344,4.7827,0.0,4.6638,0.0,0.0,0.0,0.0,0.0,0.0,0.0,0.0,0.0,0.0,4.9126,4.9668,4.9823,4.9707,4.932,4.7424,4.4987,0.0,4.1429,4.0075,3.6439,0.0,0.0,0.0,0.0,4.2396,4.4949,4.7424,4.9475,5.0751,5.0906,5.0921,5.1034,5.0273,4.9304,4.8111,4.6413,4.4753,4.3161,4.0558,3.8188,0.0,0.0,0.0,0.0,0.0,0.0,0.0,0.0,0.0,0.0,0.0,0.0,0.0,0.0,0.0,0.0,0.0,0.0,0.0,0.0,0.0,0.0,0.0,0.0,0.0,0.0,0.0,0.0,4.5138,4.5948,4.5976,4.7148,4.6797,0.0,0.0,0.0,0.0,0.0,0.0,4.9805,5.1906,5.3542,5.4646,5.6367,5.8163,6.0074,6.0309,6.109,6.2379,6.3004,6.3316,6.3316,6.2651,6.2727,6.3193,6.1045,6.0342,6.0418,5.6579,5.4112,5.2511,5.0148,4.91,4.8945,4.9375,4.914,4.8942,5.1676,5.2194,5.1476,5.0389,0.0,4.8203,4.5452,0.0,0.0,0.0,0.0,4.5529,4.7579,4.8894,4.9977,5.0983,5.1215,5.1177,5.0945,5.0287,4.8701,0.0,4.4755,4.3556,3.9262,0.0,0.0,0.0,0.0,4.3518,4.5838,4.7657,4.9281,5.0751,5.0906,5.0937,5.1087,5.0286,4.9459,4.8638,4.7162,4.5958,4.5142,4.2461,4.0402,3.9082,0.0,0.0,0.0,0.0,0.0,0.0,0.0,0.0,0.0,0.0,0.0,0.0,0.0,0.0,0.0,0.0,0.0,0.0,0.0,0.0,0.0,0.0,0.0,0.0,0.0,0.0,0.0,0.0,0.0,4.8707,5.082,0.0,0.0,0.0,0.0,4.9805,5.0664,5.2617,5.5976,5.7031,5.8317,5.9972,6.1715,6.2656,6.2812,6.3633,6.4062,6.418,6.4219,6.4219,6.4219,6.418,6.4178,6.417,6.3235,6.2373,6.1436,5.878,5.7171,5.6177,5.4385,5.3154,5.2344,5.1562,5.1244,5.1332,5.2347,5.2671,5.2745,5.3407,5.1385,4.8497,4.7514,4.6083,0.0,0.0,4.7636,4.9722,5.0635,5.2066,5.3072,5.2298,5.2144,5.1912,5.1099,5.0287,4.9397,0.0,4.6844,4.5142,4.3285,0.0,4.1854,4.1777,4.3285,4.5104,4.6806,4.8546,4.9977,5.0828,5.0906,5.0937,5.1087,5.0286,4.9459,4.8638,4.7745,4.6851,4.5958,4.5025,4.3355,4.083,3.8183,0.0,0.0,0.0,0.0,0.0,0.0,0.0,0.0,0.0,0.0,0.0,0.0,0.0,0.0,0.0,0.0,0.0,0.0,0.0,0.0,0.0,0.0,0.0,0.0,0.0,0.0,0.0,0.0,5.1178,5.3509,0.0,5.1953,5.25,5.3398,5.4258,5.5625,5.7187,5.8945,6.039,6.1445,6.2066,6.3202,6.4101,6.4687,6.4961,6.543,6.5976,6.5976,6.5976,6.5937,6.539,6.5156,6.5077,6.4217,6.3358,6.2459,6.1561,6.0037,5.8198,5.7594,5.6825,5.6093,5.6317,5.6067,5.5626,5.5938,5.6064,5.5911,5.5075,5.3571,5.1954,5.1063,5.0399,4.9946,5.0098,5.0778,5.1639,5.2398,5.3022,5.3387,5.3111,5.3033,5.2801,5.1912,5.1525,5.1061,5.0171,4.8624,4.6922,4.522,4.5104,4.5104,4.4601,4.549,4.6844,4.8546,4.932,5.0016,5.0828,5.0906,5.0743,5.0325,4.9472,4.8606,4.7811,4.6968,4.6307,4.5997,4.4676,4.3287,4.1846,3.9256,3.6255,0.0,0.0,0.0,0.0,0.0,0.0,0.0,0.0,0.0,0.0,0.0,0.0,0.0,0.0,0.0,0.0,0.0,0.0,0.0,0.0,0.0,0.0,0.0,0.0,0.0,0.0,5.2859,5.384,5.6442,5.7538,5.5898,5.6797,5.7812,5.8672,5.9844,6.0859,6.168,6.3086,6.3867,6.3867,6.4726,6.5469,6.6015,6.6055,6.6328,6.6914,6.6914,6.6914,6.6875,6.6289,6.6055,6.5976,6.5117,6.4258,6.3437,6.3125,6.1836,6.0,5.9717,5.9253,5.8789,5.9084,5.884,5.8289,5.8285,5.8128,5.7625,5.6192,5.5134,5.4264,5.3405,5.3132,5.3108,5.293,5.3055,5.3335,5.3739,5.4051,5.4203,5.395,5.3906,5.3691,5.2785,5.2414,5.2028,5.1447,4.9977,4.8469,4.7308,4.7347,4.727,4.6419,4.727,4.8275,4.9165,4.9745,5.0326,5.0828,5.0921,5.0642,4.986,4.8748,4.7726,4.6929,4.5802,4.5142,4.5142,4.4093,4.3102,4.2338,3.976,3.7074,3.4273,0.0,0.0,0.0,0.0,0.0,0.0,0.0,0.0,0.0,0.0,0.0,0.0,0.0,0.0,0.0,0.0,0.0,0.0,0.0,0.0,0.0,0.0,0.0,4.9935,5.2956,5.5477,5.6559,5.963,6.1045,5.9529,6.082,6.2148,6.2969,6.3086,6.3437,6.4297,6.5156,6.5625,6.5625,6.6445,6.6914,6.6914,6.6914,6.6914,6.6914,6.6914,6.6914,6.6914,6.6914,6.6914,6.6836,6.6015,6.5156,6.4297,6.3437,6.2539,6.164,6.0781,6.0429,6.0351,5.9563,5.9207,5.9129,5.9148,5.8558,5.7699,5.6918,5.6059,5.5201,5.4342,5.4068,5.4055,5.3914,5.4412,5.4909,5.4767,5.5364,5.5768,5.4863,5.4743,5.4564,5.3623,5.2846,5.226,5.2221,5.0906,4.9784,4.9745,4.9049,4.8198,4.7347,4.8662,0.0,4.8585,4.99,5.0906,5.0906,5.0937,5.0671,4.986,4.8296,4.6934,4.6074,4.4443,4.3549,4.351,4.3471,4.3073,4.226,3.9797,3.7705,3.6053,0.0,0.0,0.0,0.0,0.0,0.0,0.0,0.0,0.0,0.0,0.0,0.0,0.0,0.0,0.0,0.0,0.0,0.0,0.0,0.0,0.0,4.9281,5.1989,5.1633,5.4597,5.7405,5.9032,6.119,6.2652,6.2888,6.332,6.3672,6.3906,6.4531,6.5,6.5234,6.6055,6.6523,6.6523,6.6797,6.6914,6.6914,6.6914,6.6914,6.6914,6.6914,6.6914,6.6914,6.6914,6.6914,6.6875,6.664,6.6055,6.5234,6.4961,6.3984,6.2578,6.1668,6.1346,6.1307,6.1104,6.0597,6.005,6.0041,5.9456,5.8597,5.7738,5.7309,5.6957,5.6138,5.5903,5.5845,5.553,5.5592,5.5744,5.5538,5.5691,5.5808,5.5577,5.5595,5.5418,5.4512,5.4199,5.3691,5.2453,5.1834,5.1293,5.0674,5.0364,5.0132,4.99,5.0248,0.0,5.0248,5.0596,5.0906,5.0906,5.0937,5.0671,4.986,4.88,4.7556,4.6074,4.5025,4.4171,4.3549,4.2926,4.2237,4.144,3.9564,3.8029,0.0,0.0,0.0,0.0,0.0,0.0,0.0,0.0,0.0,0.0,0.0,0.0,0.0,0.0,0.0,0.0,0.0,0.0,0.0,0.0,0.0,0.0,5.2531,5.5277,5.5857,5.777,5.9762,6.1559,6.3078,6.4276,6.5199,6.5348,6.5351,6.5312,6.582,6.6133,6.6133,6.6601,6.6914,6.6914,6.6914,6.6914,6.6914,6.6914,6.6914,6.6914,6.6914,6.6914,6.6914,6.6914,6.6914,0.0,6.6914,6.6406,6.5586,6.5586,6.457,0.0,0.0,0.0,0.0,0.0,6.1369,6.0939,6.0939,6.0354,5.9573,5.9065,5.8636,5.8207,5.7348,5.7113,5.6977,5.6349,5.6146,5.6044,5.5882,5.5808,5.5787,5.5787,5.5905,5.5845,5.5325,5.4993,5.4387,5.2995,5.2453,0.0,5.1061,5.0906,5.079,5.0442,5.0674,5.079,5.0442,5.0712,5.0906,5.0906,5.099,5.0685,4.986,4.8696,0.0,0.0,0.0,4.3326,4.249,4.1988,0.0,0.0,0.0,0.0,0.0,0.0,0.0,0.0,3.5693,3.5271,0.0,0.0,0.0,0.0,0.0,0.0,0.0,0.0,0.0,0.0,0.0,0.0,0.0,0.0,0.0,0.0,5.5354,5.8449,6.0886,6.1427,6.2211,6.3908,6.4866,6.5711,6.6527,6.6751,6.6832,6.6719,6.6797,6.6875,6.6914,0.0,0.0,0.0,0.0,6.6914,6.6914,6.6914,6.6914,6.6914,6.6914,6.6914,6.6914,6.6914,6.6914,6.6914,6.6914,6.6445,6.5742,6.5742,6.4726,6.3125,6.2929,6.2375,6.1686,6.1681,6.172,6.172,6.172,0.0,0.0,6.0432,5.9885,5.9065,5.8207,5.7894,5.7612,5.6683,5.6269,5.6057,5.593,5.5827,5.5766,5.5724,5.5865,5.5961,5.5905,5.54,5.4697,5.3807,5.2917,5.2066,5.1215,5.0983,5.0674,4.9939,5.0442,5.0635,4.9939,5.048,5.0906,5.0906,0.0,0.0,5.0015,4.8487,4.689,4.5181,4.3365,4.2032,4.1334,4.1292,4.1323,4.1388,4.1374,4.1381,4.1384,4.1384,4.0976,4.0064,3.6754,3.5902,0.0,0.0,0.0,0.0,0.0,0.0,0.0,0.0,0.0,0.0,0.0,0.0,0.0,0.0,0.0,5.3962,5.7172,6.0035,6.1892,6.2781,6.3671,6.4751,6.5153,6.5669,6.6496,6.6645,6.6657,6.6717,6.6719,6.6797,6.6875,6.6914,6.6914,6.6914,6.6914,6.6914,6.6914,6.6914,6.6914,6.6914,0.0,0.0,6.6914,6.6914,6.6914,6.6914,6.6914,6.6797,6.664,6.664,6.5625,6.3906,6.2496,6.1865,6.1704,6.1686,6.172,6.172,6.172,6.1603,6.133,6.0627,6.0276,6.0002,5.9104,5.8363,0.0,5.7424,5.6736,5.6057,5.593,5.5789,5.5724,5.5703,5.5787,5.5905,5.5905,5.5825,5.5548,5.4697,5.3846,5.2956,5.2105,5.137,5.0867,5.0712,5.079,5.0828,5.0712,5.079,5.0906,5.0906,5.102,5.1023,5.0868,4.9962,4.8677,4.6929,4.4559,4.3202,4.3091,4.3161,4.3192,4.3212,4.3216,4.3219,4.3219,4.3219,4.3083,4.2792,4.0645,3.9405,0.0,0.0,0.0,0.0,0.0,0.0,0.0,0.0,0.0,0.0,0.0,4.7657,4.932,0.0,5.5316,5.7056,5.9493,6.1582,6.2859,6.3787,6.4522,6.4986,6.5528,6.5993,6.6377,6.6495,6.6588,6.6535,6.6603,6.6678,6.6756,6.6791,6.6797,6.6797,6.6875,6.6914,6.6914,6.6914,6.6914,6.6914,6.6914,6.6914,6.6914,6.6914,6.6914,6.6914,6.6914,6.6914,6.6875,6.6445,6.5469,6.4179,6.2846,6.2094,6.1694,6.1686,6.172,6.172,6.172,6.172,6.1642,6.1174,6.1056,6.0895,5.9924,5.9391,5.8895,5.78,5.7118,5.6614,5.6062,5.5789,5.5703,5.5703,5.5787,5.5905,5.5905,5.5941,5.578,5.4967,5.4465,5.373,5.2414,5.1834,5.1409,5.0983,5.0906,5.0906,5.0906,5.0906,5.0906,5.0906,5.102,5.1101,5.1101,4.9962,4.8522,4.6773,4.5074,4.3997,4.3604,4.368,4.3704,4.3684,4.3693,4.3693,4.3687,4.3687,4.3667,4.3585,4.2669,4.1956,0.0,0.0,0.0,0.0,0.0,0.0,0.0,4.5026,4.5452,4.785,4.9707,5.1563,5.3614,5.6089,5.8333,5.988,6.1427,6.2743,6.3787,6.4561,6.5064,6.5218,6.5915,6.6301,6.6224,6.6379,6.6495,6.6417,6.6508,6.6567,6.6606,6.6642,6.666,6.6674,6.6791,6.683,6.683,6.6835,6.6875,6.6875,6.6875,6.6914,6.6914,6.6914,6.6914,6.6914,6.6914,6.6914,6.6836,6.6133,6.5351,6.4492,6.3783,6.2872,6.1915,6.1759,6.172,6.172,6.172,6.172,6.172,6.172,6.1671,6.1498,6.0715,6.041,5.9989,5.8398,5.7768,5.7388,5.6394,5.6059,5.5895,5.5742,5.5787,5.5885,5.5905,5.5941,5.5801,5.5161,5.4929,5.4349,5.2956,5.2569,5.2105,5.1061,5.0906,5.0906,5.0906,5.0906,5.0906,5.0906,5.102,5.1101,5.1114,4.973,4.8261,4.6833,4.5987,4.5212,4.4397,4.4426,4.4372,4.4192,4.4208,4.421,4.4203,4.4208,4.4179,4.4134,4.412,4.3875,4.4755,4.4098,4.4523,4.6032,4.6457,4.754,0.0,5.1177,5.0558,5.2414,5.4116,5.5393,5.5664,5.7869,5.9919,6.0809,6.1776,6.2975,6.4599,6.4948,6.5257,6.5992,6.6147,6.6224,6.6185,6.6224,6.6301,6.6379,6.6419,6.6458,6.6574,6.6611,6.6625,6.6624,6.6624,6.6624,6.6624,6.6703,6.6719,6.6719,6.6836,6.6914,6.6914,6.6914,6.6914,6.6914,6.6914,6.6914,6.6875,6.6797,6.625,6.5429,6.5346,6.4317,6.2774,6.1993,6.172,6.172,6.172,6.172,6.172,6.172,6.1602,6.1517,6.1537,6.0837,5.9996,5.9932,5.9166,5.8157,5.7288,5.6946,5.6665,5.5857,5.5745,5.5807,5.5885,5.5943,5.5959,5.5879,5.5277,5.4735,5.4542,5.3884,5.2801,5.1138,5.0906,5.0906,5.0906,5.0906,5.0921,5.099,5.1073,5.1127,5.119,5.0309,4.9671,4.9489,4.8716,4.7905,4.7117,4.7142,4.6804,4.6027,4.6002,4.6012,4.6015,4.6009,4.6002,4.6009,4.5997,4.5084,4.7115,4.7192,4.785,4.901,4.9707,5.0674,5.2995,5.3343,5.3498,5.4697,5.6708,5.8255,5.8255,5.9532,6.0886,6.1737,6.2588,6.3594,6.4831,6.5412,6.5837,6.6147,6.6185,6.6185,6.6185,6.6185,6.6224,6.6263,6.6263,6.6301,6.634,6.6417,6.6458,6.6461,6.6539,6.6578,6.6578,6.6633,6.6644,6.6622,6.67,6.6739,6.6745,6.6752,6.6836,6.6914,6.6914,6.6914,6.6914,6.6914,6.6404,6.5612,6.5612,6.4821,6.3633,6.2774,6.2149,6.172,6.172,6.166,6.1595,6.1671,6.1526,6.1328,6.1373,6.1083,6.0575,5.9946,5.9529,5.9031,5.8104,5.7807,5.755,5.6665,5.6515,5.6442,5.5923,5.5924,5.598,5.5998,5.5724,5.5354,5.489,5.4503,5.3846,5.2608,5.2414,5.2414,5.2414,5.1989,5.1517,5.1111,5.1075,5.1114,5.1202,5.0853,5.0448,4.9926,4.962,4.9113,4.8293,4.8279,4.79,4.7081,4.7059,4.6794,4.6289,4.6315,4.6303,4.6309,4.6296,4.5819,4.8469,4.9359,5.0635,5.1718,5.2801,5.3846,5.4697,5.5393,5.6012,5.6592,5.841,5.988,5.988,6.0576,6.1466,6.2588,6.3284,6.4174,6.5489,6.5992,6.6301,6.6533,6.634,6.6185,6.6185,6.6185,6.6185,6.6185,6.6185,6.6185,6.6185,6.6301,6.634,6.634,6.6417,6.6495,6.6495,6.6533,6.6531,6.6569,6.6569,6.6607,6.662,6.6661,6.6745,6.6823,6.6834,6.6836,6.6836,6.6875,6.6518,6.5975,6.5954,6.5442,6.457,6.3945,6.3008,6.2032,6.1798,6.1654,6.158,6.1666,6.1517,6.1292,6.1328,6.1253,6.1041,6.0285,6.0131,5.9973,5.9012,5.878,5.8528,5.7639,5.7253,5.6965,5.6328,5.6059,5.5961,5.5998,5.5977,5.5818,5.5238,5.5122,5.4929,5.4271,5.4194,5.4,5.3575,5.2756,5.2012,5.1488,5.1257,5.1139,5.1202,5.1202,5.0925,5.0334,5.033,5.0017,4.9201,4.9142,4.8798,4.7978,4.7952,4.7653,4.7028,4.7018,4.7009,4.7002,4.6986,4.6865,4.8624,5.021,5.2531,5.4233,5.5935,5.7366,5.8255,5.8449,5.8488,5.8526,5.9261,5.988,5.988,6.0576,6.166,6.3362,6.3671,6.4561,6.7075,6.6727,6.6495,6.7346,6.6727,6.6185,6.6185,6.6185,6.6185,6.6185,6.6185,6.6185,6.6185,6.6185,6.6224,6.6224,6.6224,6.6224,6.6224,6.634,6.6438,6.6399,6.6515,6.6592,6.6612,6.6607,6.6605,6.6615,6.6667,6.6719,6.6719,6.6836,6.6869,6.6873,6.6873,6.6327,6.5546,6.5546,6.4414,6.2852,6.1993,6.1715,6.1676,6.172,6.1595,6.15,6.166,6.1451,6.1214,6.1373,6.1277,6.0992,6.0176,5.9943,5.9706,5.8695,5.7809,5.7193,5.7159,5.6522,5.5924,5.5995,5.6012,5.6012,5.5973,5.5973,5.5973,5.5935,5.5935,5.5354,5.3691,5.2802,5.2302,5.2264,5.1632,5.1202,5.1202,5.1202,5.1208,5.1273,5.1242,5.0881,5.0083,5.0048,4.9696,4.8876,4.888,4.8864,4.8837,4.8814,4.8775,4.872,4.8708,4.862,5.1409,5.3227,5.5122,5.6902,5.7753,5.8372,5.9261,5.9455,5.9455,5.9455,5.9223,5.9029,5.9029,5.9261,5.9996,6.1698,6.2936,6.4367,6.634,6.6882,6.6959,6.6688,6.6882,6.6843,6.6263,6.6185,6.6185,6.6185,6.6185,6.6185,6.6185,6.6185,6.6185,6.6185,6.6185,6.6185,6.6185,6.6224,6.6263,6.6263,6.6301,6.6379,6.6476,6.6493,6.6506,6.6583,6.6631,6.6652,6.6649,6.6688,6.6663,6.662,6.6732,6.6488,6.6046,6.5712,6.4776,6.3569,6.2836,6.2122,6.158,6.1666,6.1526,6.1328,6.1509,6.1401,6.12,6.1292,6.1266,6.1147,6.0875,6.0724,6.0433,5.955,5.907,5.849,5.7349,5.6946,5.6618,5.6114,5.5995,5.6012,5.6012,5.6012,5.5818,5.5277,5.5664,5.5586,5.4503,5.4196,5.3582,5.2419,5.2136,5.1785,5.1241,5.1197,5.1211,5.1312,5.1342,5.1219,5.0984,5.0945,5.0562,4.9712,4.9742,4.9489,4.8912,4.8919,4.888,4.8798,4.8816,4.8624,5.4697,5.6321,5.783,5.9532,5.9725,5.9725,6.0576,6.0538,6.0344,6.0344,5.9416,5.841,5.7791,5.7675,5.8333,6.0344,6.1853,6.3787,6.6727,6.7075,6.7075,6.7114,6.7075,6.6804,6.6263,6.6185,6.6185,6.6185,6.6185,6.6185,6.6185,6.6185,6.6185,6.6185,6.6185,6.6185,6.6185,6.6185,6.6185,6.6185,6.6185,6.6263,6.634,6.634,6.6379,6.6456,6.6495,6.6531,6.6528,6.6567,6.6562,6.6506,6.6581,6.6503,6.6252,6.5961,6.5056,6.3916,6.3221,6.2356,6.1588,6.1666,6.1549,6.1383,6.1526,6.15,6.1362,6.1362,6.1362,6.1362,6.1316,6.1006,6.0631,6.0321,5.9766,5.8934,5.7852,5.741,5.6964,5.6152,5.5995,5.6012,5.6012,5.6012,5.5741,5.4929,5.5238,5.5393,5.4868,5.4855,5.4474,5.3363,5.2719,5.2173,5.1668,5.1375,5.1239,5.131,5.1369,5.1396,5.1391,5.1382,5.1148,5.0571,5.0619,5.0351,4.9781,4.9752,4.9697,4.9625,4.9566,4.9399,5.8255,5.9377,6.046,6.2085,6.1853,6.1427,6.224,6.1737,6.1079,6.1002,5.9571,5.783,5.6128,5.5896,5.6786,5.9339,6.0576,6.2975,6.8042,6.7346,6.6959,6.8622,6.7384,6.634,6.6263,6.6263,6.6263,6.6185,0.0,6.6185,6.6185,6.6185,6.6185,6.6185,6.6185,6.6185,6.6185,6.6185,6.6185,6.6185,6.6185,6.6185,6.6185,6.6185,6.6185,6.6224,6.634,6.6379,6.6379,6.6533,6.6535,6.6489,6.6489,6.6406,6.6283,6.6299,6.5336,6.3935,6.3286,6.2457,6.172,6.172,6.172,6.172,6.1676,6.1676,6.172,6.1676,6.1676,6.1666,6.1517,6.0867,6.0389,6.0926,5.9835,5.8695,5.8548,5.7873,5.7041,5.6227,5.6051,5.6012,5.6012,5.5973,5.5664,5.4929,5.4813,5.4791,5.4762,5.4793,5.4837,5.4827,5.343,5.2445,5.2418,5.1696,5.1273,5.1279,5.1352,5.1414,5.1406,5.1396,5.1382,5.1382,5.14,5.1379,5.1394,5.1264,5.1152,5.1083,5.0945,5.0774,5.9996,6.1582,6.282,6.3245,6.3207,6.2936,6.2511,6.1737,6.077,5.9493,5.6863,5.4465,5.3382,5.4233,5.5741,5.7637,6.0809,6.4174,6.7384,6.8003,6.8313,6.8738,6.8932,6.8545,6.7307,6.7152,6.6882,0.0,6.6185,6.6185,6.6185,6.6185,6.6185,6.6185,6.6185,6.6185,6.6185,6.6185,6.6185,6.6185,6.6185,6.6185,6.6185,6.6185,6.6185,6.6185,6.6224,6.6263,6.6263,6.6301,6.6242,6.6123,6.6301,6.6225,6.6019,6.6217,6.5591,6.4494,6.3845,6.2756,6.172,6.172,6.172,6.1671,6.158,6.1602,6.1671,6.158,6.1609,6.1666,6.1517,6.1256,6.0851,6.0273,6.0363,6.0172,5.8916,5.849,5.8062,5.7267,5.6515,5.6012,5.6012,5.5509,5.5045,5.4813,5.4807,5.4552,5.391,5.3901,5.3945,5.3987,5.3637,5.3114,5.255,5.2278,5.1904,5.1324,5.1367,5.1406,5.1406,5.1364,5.1316,5.1343,5.1239,5.1161,5.119,5.1101,5.1037,5.1008,5.0933,5.0774,6.2549,6.3787,6.4715,6.4367,6.371,6.282,6.1582,6.0344,5.8758,5.6283,5.3691,5.1447,5.0171,5.137,5.3343,5.5818,5.9493,6.3323,6.6998,6.7926,6.8506,6.9241,6.9396,6.8932,6.7617,6.7501,6.7152,6.6263,6.6185,6.6185,6.6185,6.6185,6.6185,6.6185,6.6185,6.6185,6.6185,6.6185,6.6185,6.6185,6.6185,6.6185,6.6185,6.6185,6.6185,6.6185,0.0,6.6185,6.6185,6.6165,6.6102,6.6013,6.6123,6.6074,6.5947,6.6046,6.5548,6.4677,6.3994,6.2976,6.2006,6.1586,6.1534,6.1588,6.1412,6.149,6.1588,6.1412,6.1422,6.1461,6.1401,6.0994,6.0507,5.9963,6.0228,6.0229,5.8935,5.8972,5.8892,5.7654,5.694,5.6437,5.6089,5.5664,5.5272,5.49,5.4879,5.4582,5.3747,5.3958,5.4089,5.3775,5.376,5.3596,5.3103,5.3093,5.2765,5.1911,5.1904,5.1773,5.1362,5.1293,5.1252,5.1208,5.1147,5.1113,5.1062,5.0952,5.0898,5.0874,5.0748,5.0529,6.545,6.5915,6.6224,6.5489,6.3942,6.2085,6.0306,5.8449,5.6167,5.2724,5.0596,4.8933,4.754,4.8701,5.1022,5.4542,5.7985,6.1969,6.6959,6.7655,6.8274,6.9976,6.9435,6.8622,6.7771,6.7578,6.7152,6.6263,6.6185,6.6185,6.6185,6.6185,6.6185,6.6185,6.6185,6.6185,6.6185,6.6185,6.6185,6.6185,6.6185,6.6185,6.6185,6.6185,6.6185,6.6185,6.6185,0.0,6.6185,6.6123,6.6058,6.599,6.5982,6.5972,6.5897,6.5897,6.5504,6.4809,6.3998,6.3225,6.2432,6.1522,6.1304,6.1412,6.1239,6.1292,6.1412,6.1239,6.1172,6.1186,6.1211,6.0593,5.9985,5.9908,5.9937,5.9785,5.8952,5.9377,5.9416,5.7791,5.7482,5.7211,5.6321,5.6283,5.6056,5.5197,5.5132,5.4874,5.4094,5.439,5.4498,5.4017,5.3922,5.392,5.3971,5.4021,5.3709,5.2827,5.2655,5.2253,5.1491,5.1257,5.1161,5.1078,5.1068,5.1034,5.0952,5.0819,5.0752,5.0661,5.0483,5.0298,6.7733,6.7733,6.723,6.7114,6.5257,6.2859,6.046,5.7985,5.5277,5.1834,4.9204,4.7695,4.8082,4.9552,5.2066,5.6205,5.9725,6.3516,6.7965,6.8584,6.9203,7.0866,7.0324,6.9473,6.8661,6.7926,6.7152,6.6263,6.6185,6.6185,6.6185,6.6185,6.6185,6.6185,6.6185,6.6185,6.6185,6.6185,6.6185,6.6185,6.6185,6.6185,6.6185,6.6185,6.6185,6.6185,6.6185,0.0,6.6185,6.6123,6.6058,6.599,6.5982,6.5972,6.5897,6.5897,6.5807,6.5587,6.474,6.3877,6.2926,6.164,6.12,6.1239,6.107,6.1136,6.1239,6.107,6.112,6.1211,6.1275,6.1142,6.0854,6.0075,6.0539,6.0886,5.9957,5.988,5.9648,5.8565,5.8372,5.8101,5.7288,5.7172,5.6931,5.6166,5.6089,5.5864,5.4992,5.3732,5.342,5.4723,5.4229,5.4132,5.4882,5.4915,5.4541,5.3728,5.2948,5.2456,5.2304,5.1489,5.1023,5.1001,5.0902,5.0808,5.0756,5.0683,5.0604,5.0525,5.0412,5.025,6.8584,6.8506,6.8081,6.7617,6.5257,6.2124,5.8642,5.5857,5.2801,4.8508,4.6651,4.5916,4.6341,4.7773,5.0016,5.342,5.6476,6.0074,6.4831,6.6263,6.7771,7.0324,7.0264,6.9684,6.8893,6.7982,6.7111,6.6263,6.6185,6.6185,6.6185,6.6185,6.6185,6.6185,6.6185,6.6185,6.6185,6.6185,6.6185,6.6185,6.6185,6.6185,6.6185,6.6185,6.6185,6.6185,6.6185,0.0,6.6144,6.608,6.6013,6.6005,6.5972,6.5923,6.5897,6.5897,6.5897,6.5782,6.4897,6.4051,6.3113,6.2007,6.1405,6.107,6.0943,6.0983,6.1053,6.0943,6.0963,6.1077,6.1152,6.1191,6.0941,6.0128,6.0303,6.0615,6.0576,6.0576,6.0306,5.9455,5.8952,5.8526,5.8139,5.7402,5.6923,5.7021,5.6715,5.6367,5.5937,5.4375,5.3398,5.3744,5.3867,5.4054,5.4498,5.5343,5.5269,5.3935,5.3379,5.269,5.1748,5.1213,5.0929,5.0906,5.0794,5.0701,5.0664,5.0584,5.05,5.0457,5.0283,5.0188,6.8893,6.9048,6.8854,6.8003,6.5218,6.1505,5.7018,5.4039,5.079,4.5877,4.4717,4.4717,4.5065,4.6225,4.8043,5.0983,5.3343,5.6631,6.193,6.4019,6.6185,6.9357,6.9739,6.943,6.8601,6.769,6.6857,6.6242,6.6185,6.6185,6.6185,6.6185,6.6185,6.6185,6.6185,6.6185,6.6185,6.6185,6.6185,6.6185,6.6185,6.6185,6.6185,6.6185,6.6185,6.6185,6.6185,0.0,0.0,6.6036,6.599,6.5982,6.5923,6.5897,6.5897,6.5897,6.5897,6.5782,6.5128,6.432,6.3474,6.282,6.188,6.0943,6.085,6.0877,6.0963,6.085,6.0888,6.0938,6.1079,6.106,6.0925,6.0389,6.024,6.0344,6.0963,6.1118,6.0925,6.0267,5.9687,5.922,5.9041,5.8013,5.7367,5.7679,5.7223,5.6801,5.6606,5.5235,5.3959,5.3239,5.3487,5.3844,5.4138,5.5248,5.5333,5.3906,5.3569,5.277,5.1319,5.1022,5.0941,5.1082,5.0835,5.076,5.0853,5.0598,5.0478,5.0412,5.0236,5.0139,6.9241,6.9899,6.9705,6.8893,6.6108,6.224,5.7172,5.4039,5.0945,4.6573,4.5104,4.5065,4.6573,4.6999,4.843,5.2569,5.4116,5.6863,6.2743,6.4406,6.5953,6.8584,6.8932,6.8562,6.7608,6.6801,6.6242,6.6102,6.6165,6.6185,6.6185,6.6185,6.6185,6.6185,6.6185,6.6185,6.6185,6.6185,6.6185,6.6185,6.6185,6.6185,6.6185,6.6185,6.6185,6.6185,6.6185,0.0,0.0,6.6058,6.6013,6.599,6.5947,6.5897,6.5897,6.5897,6.5897,6.5897,6.582,6.5205,6.4474,6.4397,6.2767,6.0804,6.0781,6.0827,6.0933,6.0911,6.0933,6.1036,6.1175,6.1175,6.1195,6.1157,6.1098,6.1002,6.1079,6.1118,6.1079,6.1002,6.1041,6.0809,6.0106,5.997,5.9456,5.7996,5.7742,5.7426,5.6684,5.5738,5.507,5.4957,5.361,5.3358,5.4936,5.4492,5.4031,5.3818,5.2986,5.2408,5.2182,5.1354,5.1233,5.1876,5.1125,5.1029,5.1698,5.0867,5.0478,5.039,5.0188,5.0127,6.8429,6.9628,6.9821,6.9009,6.6224,6.2356,5.7172,5.4039,5.0983,4.6689,4.5529,4.5529,4.6187,4.6303,4.7038,4.9281,4.9939,5.2066,5.7559,5.9068,6.1311,6.5953,6.6432,6.6659,6.7338,6.6582,6.6102,6.6144,6.6165,6.6185,6.6185,6.6185,6.6185,6.6185,6.6185,6.6185,6.6185,6.6185,6.6185,6.6185,6.6185,6.6185,6.6185,6.6185,6.6185,6.6185,6.6185,0.0,0.0,6.6036,6.5967,6.5933,6.5923,6.5897,6.5897,6.5897,6.5897,6.5897,6.5947,6.5394,6.4638,6.4638,6.3299,6.1627,6.1582,6.1296,6.0955,6.0955,6.0959,6.1021,6.1059,6.1099,6.1157,6.1195,6.1157,6.1118,6.1118,6.1118,6.1118,6.1118,6.0832,6.0643,6.084,6.0149,5.9529,5.9386,5.8909,5.8285,5.7426,5.6089,5.5215,5.521,5.4567,5.4437,5.5131,5.4849,5.4373,5.3775,5.2848,5.207,5.1486,5.1073,5.0966,5.1202,5.1299,5.1488,5.1749,5.1398,5.1155,5.1061,5.0405,5.0101,6.7036,6.8816,6.9435,6.8622,6.5837,6.2046,5.7134,5.3846,5.0674,4.6612,4.5606,4.5529,4.5761,4.5606,4.58,4.6922,4.754,4.9397,5.3807,5.5548,5.8062,6.2549,6.3688,6.4668,6.6119,6.6344,6.6444,6.6572,6.634,6.6185,6.6185,6.6185,6.6185,6.6185,6.6185,6.6185,6.6185,6.6185,6.6185,6.6185,6.6185,6.6185,6.6185,6.6185,6.6185,6.6185,6.6185,0.0,0.0,6.6013,6.5982,6.5923,6.5897,6.5897,6.5897,6.5897,6.5897,6.5923,6.5972,6.5611,6.5072,6.5095,6.4139,6.2948,6.2635,6.1846,6.1018,6.1018,6.1021,6.0983,6.0751,6.0712,6.0692,6.0422,6.0344,6.0422,6.0692,6.0731,6.0809,6.1098,6.0784,6.0702,6.1314,6.0547,6.0002,6.0354,5.9885,5.9183,5.8319,5.6904,5.5873,5.562,5.5358,5.5061,5.4788,5.4509,5.4019,5.3314,5.2408,5.1586,5.0902,5.0829,5.0853,5.101,5.1316,5.1655,5.205,5.1813,5.1606,5.1484,5.0799,5.0252,6.5064,6.7501,6.8622,6.7733,6.4948,6.1311,5.6979,5.3382,4.9939,4.6496,4.5181,4.4871,4.5645,4.5142,4.5181,4.6844,4.8546,5.0558,5.3149,5.5702,5.7637,5.8565,6.0886,6.2742,6.3467,6.582,6.7332,6.7501,6.6688,0.0,6.6185,6.6185,6.6185,6.6185,6.6185,6.6185,6.6185,6.6185,6.6185,6.6185,6.6185,6.6185,6.6185,6.6185,6.6185,6.6185,0.0,0.0,0.0,6.6036,6.6005,6.5996,6.5923,6.5897,6.5897,6.5897,6.5897,6.5923,6.5972,6.5996,6.5982,6.599,6.5479,6.4711,6.3861,6.2354,6.1002,6.1002,6.1041,6.0925,6.0112,5.9919,5.9687,5.8836,5.8642,5.8874,5.9725,5.9919,6.0169,6.1018,6.1303,6.1393,6.1491,6.1601,6.1369,6.0549,6.0393,6.0076,5.9201,5.8331,5.7453,5.6574,5.5658,5.4752,5.3896,5.3001,5.248,5.2316,5.1488,5.0952,5.0829,5.0812,5.1086,5.1774,5.1006,5.1365,5.2886,5.2097,5.1606,5.1484,5.1434,5.0675,5.93,6.1776,6.3207,6.1776,6.0615,5.8681,5.4387,5.2105,4.9784,4.58,4.4794,4.4678,4.4949,4.4755,4.5529,4.843,4.9359,5.0596,5.3149,5.5165,5.6925,5.8355,6.2274,6.5434,6.6862,6.717,6.7371,6.748,6.6688,6.6185,6.6185,6.6185,6.6185,6.6185,6.6185,6.6185,6.6185,6.6185,6.6185,6.6185,6.6185,6.6185,6.6185,6.6185,6.6185,0.0,0.0,0.0,0.0,6.6005,6.5982,6.5996,6.5972,6.5958,6.5982,6.5982,6.5982,6.6005,6.6052,6.6074,6.6097,6.6058,6.5196,6.4038,6.3688,6.2838,6.1834,6.1254,6.0674,6.0228,5.9957,5.9455,5.8952,5.8681,5.9068,5.9571,5.9841,6.0344,6.0824,6.1221,6.1351,6.1439,6.1545,6.1637,6.1598,6.1314,6.1275,6.0957,6.008,5.9209,5.8063,5.6652,5.5658,5.4752,5.3857,5.2924,5.2343,5.2313,5.144,5.0858,5.0738,5.072,5.0818,5.0968,5.1809,5.2187,5.2058,5.227,5.1751,5.0456,5.0865,5.0476,5.578,5.8449,5.9919,5.8874,5.7637,5.5896,5.2879,5.079,4.8624,4.5645,4.4794,4.4678,4.4987,4.4794,4.5413,4.7811,4.932,5.048,5.1432,5.4104,5.685,5.9109,6.2728,6.5943,6.839,6.8405,6.8181,6.7982,6.7191,6.6533,6.6224,6.6185,6.6185,6.6185,6.6185,6.6185,6.6185,6.6185,6.6185,6.6185,6.6185,6.6185,6.6185,6.6185,6.6185,0.0,0.0,0.0,0.0,6.6029,6.6005,6.5996,6.5982,6.6005,6.6013,6.6013,6.6013,6.6013,6.608,6.6102,6.6063,6.5775,6.4579,6.3207,6.3167,6.2569,6.1814,6.1234,6.0731,6.0267,5.9996,5.9493,5.899,5.8681,5.899,5.9493,5.9841,6.0285,6.0765,6.1211,6.1354,6.147,6.159,6.1672,6.171,6.1699,6.1693,6.1491,6.0925,6.0052,5.8944,5.7546,5.628,5.5058,5.3829,5.2848,5.2259,5.2253,5.136,5.0829,5.0701,5.0682,5.0625,5.0563,5.1535,5.189,5.1644,5.2018,5.1494,5.0185,5.0169,4.9701,0.0,5.6592,5.7869,5.7791,5.5432,5.2917,5.2028,4.9359,0.0,4.5916,4.5104,4.4871,4.5645,4.5142,4.4949,4.5993,4.8894,5.0465,4.8871,5.3044,5.7526,6.0938,6.2783,6.5095,6.8552,6.9471,6.9571,6.8833,6.8003,6.7114,6.6263,6.6185,6.6185,6.6185,6.6185,6.6185,6.6185,6.6185,6.6185,6.6185,6.6185,6.6185,6.6185,6.6185,6.6185,0.0,0.0,0.0,0.0,6.608,6.6074,6.602,6.599,6.6013,6.6013,6.6013,6.6013,6.6036,6.608,6.6063,6.5891,6.5082,6.371,6.2394,6.2317,6.1737,6.1118,6.1118,6.1079,6.0847,6.0074,5.9841,5.9609,5.8797,5.8642,5.8913,5.9725,5.9955,6.0256,6.1128,6.1432,6.1515,6.158,6.1674,6.1699,6.1693,6.1641,6.1588,6.1595,6.0893,6.0049,5.911,5.7417,5.5644,5.3853,5.284,5.2214,5.2039,5.1215,5.0756,5.0682,5.0645,5.0566,5.05,5.0435,5.0741,5.1459,5.133,5.0941,5.0322,4.9388,4.8676,4.8817,0.0,5.0635,4.9977,4.9707,4.9359,0.0,4.7695,4.6689,4.5181,4.4717,4.4871,4.5645,4.5142,4.5722,4.9165,5.0945,5.1973,5.2155,5.5982,6.0448,6.51,6.6577,6.809,7.0334,7.0141,6.9571,6.8833,6.8003,6.7114,6.6263,6.6185,6.6185,6.6185,6.6185,6.6185,6.6185,6.6185,6.6185,6.6185,6.6185,6.6185,6.6185,6.6185,6.6185,0.0,0.0,0.0,6.608,6.6036,6.6036,6.6058,6.608,6.6102,6.6144,6.6144,6.6144,6.6144,6.6165,6.5778,6.5005,6.3516,6.2743,6.2278,6.1621,6.1273,6.1118,6.1118,6.0654,6.0151,5.9957,5.9416,5.8836,5.8642,5.9106,5.9666,5.9856,6.0399,6.0987,6.1304,6.1439,6.1525,6.1601,6.1662,6.1693,6.1619,6.1612,6.1586,6.1528,6.1362,6.0861,5.9931,5.8192,5.6427,5.4661,5.305,5.1863,5.1138,5.0871,5.0682,5.0624,5.0604,5.0542,5.0435,5.0321,5.0469,5.0932,5.0883,5.0203,4.9073,4.9306,4.9011,4.6496,4.7734,4.8894,4.8392,4.8353,4.8275,4.7811,4.7076,4.6264,4.5336,4.5142,4.5297,4.5722,4.5786,4.6506,4.8778,5.0835,5.3103,5.5866,5.8137,6.142,6.6474,6.7859,6.9104,0.0,7.0373,6.9571,6.8833,6.8003,6.7114,6.6263,6.6185,6.6185,6.6185,6.6185,6.6185,6.6185,6.6185,6.6185,6.6185,6.6185,6.6185,6.6185,6.6185,6.6185,0.0,0.0,0.0,6.6102,6.6102,6.6102,6.6102,6.6123,6.6165,6.6185,6.6185,6.6185,6.6185,6.6185,6.5412,6.4174,6.2859,6.2124,6.1737,6.1234,6.1118,6.1118,6.1118,6.0809,6.046,6.046,6.0112,5.9725,5.98,6.0149,6.0515,6.0549,6.0932,6.1283,6.1401,6.1478,6.1502,6.16,6.1642,6.1627,6.1603,6.1578,6.1539,6.1484,6.111,6.0786,6.0638,5.9026,5.7412,5.6029,5.4241,5.2509,5.0853,5.074,5.0664,5.0584,5.0563,5.0396,5.0076,4.9974,4.992,4.994,4.9781,4.9222,4.8272,4.8598,4.8324,4.5955,4.768,4.9405,4.9165,4.8662,4.8159,4.8043,4.6844,4.58,4.58,4.58,4.5877,4.6148,4.68,4.7442,4.7936,5.0846,5.467,5.9331,6.0173,6.2012,6.6744,6.809,6.922,7.0772,7.0295,6.9533,6.864,6.7926,6.7114,6.6263,6.6185,6.6185,6.6185,6.6185,6.6185,6.6185,6.6185,6.6185,6.6185,6.6185,6.6185,6.6185,6.6185,6.6185,6.6185,0.0,0.0,6.6123,6.6165,6.6165,6.6123,6.6165,6.6185,6.6185,6.6185,6.6185,6.6147,6.5915,6.4793,6.3362,6.2472,6.1698,6.1118,6.1118,6.1118,6.1118,6.1118,6.1118,6.1118,6.1118,6.1118,6.1137,6.1173,6.1191,6.1208,6.1297,6.1291,6.1342,6.145,6.1491,6.1514,6.1598,6.1588,6.1595,6.1586,6.1528,6.1433,6.1304,6.0592,6.0289,6.0738,5.9332,5.8002,5.7061,5.5345,5.3321,5.1029,5.076,5.0604,5.05,5.0396,5.0149,4.9637,4.955,4.924,4.8776,4.8601,4.8272,4.7797,4.7679,4.7378,4.6689,4.7619,4.8017,4.6699,4.6844,4.7115,4.638,4.5993,4.58,4.58,4.58,4.6225,4.765,4.8021,4.9048,5.1871,5.5171,5.8346,6.1273,6.2921,6.4897,6.7859,6.8975,6.9617,6.9964,6.9962,6.9239,6.7724,6.7557,6.7114,6.6263,6.6185,6.6185,6.6185,6.6185,6.6185,6.6185,6.6185,6.6185,6.6185,6.6185,6.6185,6.6185,6.6185,6.6185,6.6185,0.0,6.6185,6.6165,6.6185,6.6185,6.6165,6.6185,6.6185,6.6185,6.6185,6.6185,6.5992,6.4561,6.3439,6.2472,6.1582,6.1195,6.1118,6.1118,6.1118,6.1118,6.1118,6.1118,6.1118,6.1118,6.1137,6.1173,6.1191,6.1264,6.1297,6.1306,6.1322,6.1366,6.1472,6.1517,6.1511,6.1601,6.1603,6.1578,6.1518,6.1495,6.1175,6.0352,6.0088,5.973,5.8972,5.8026,5.7004,5.6097,5.4458,5.2935,5.1718,5.0988,5.0418,5.0012,4.9884,4.9665,4.9309,4.9113,4.8776,4.831,4.8233,4.7875,4.7312,4.7312,4.7053,4.6303,4.6908,4.7538,4.7789,4.8083,4.8243,4.7819,4.7457,4.7192,4.7192,4.7192,4.741,4.8153,4.9765,5.2239,5.6018,5.8385,6.0426,6.2459,6.3844,6.5359,0.0,0.0,6.904,6.9078,6.8704,6.8197,6.7454,6.7033,6.6611,6.6224,6.6185,6.6185,6.6185,6.6185,6.6185,6.6185,6.6185,6.6185,6.6185,6.6185,6.6185,6.6185,6.6185,6.6185,6.6185,0.0,6.6185,6.6185,6.6185,6.6185,6.6185,6.6185,6.6185,6.6147,6.5721,6.5528,6.5296,6.3594,6.2743,6.2278,6.1389,6.1118,6.1118,6.1118,6.1118,6.1118,6.1118,6.1118,6.1118,6.1118,6.1155,6.1191,6.1264,6.1259,6.1306,6.1337,6.1381,6.1408,6.1481,6.152,6.1562,6.1594,6.1563,6.1528,6.1484,6.1033,6.0692,6.0654,5.9387,5.866,5.9167,5.7989,5.6965,5.6539,5.4898,5.3105,5.1275,5.0566,5.0125,4.9857,4.9608,4.9209,4.8781,4.8603,4.831,4.7797,4.7669,4.745,4.7178,4.6998,4.6778,4.6341,4.6638,4.7328,4.9131,4.9329,4.9391,5.0393,4.9869,4.9341,5.0008,4.9782,4.9517,4.9727,5.2491,5.5864,5.9265,6.1074,6.2521,6.3743,6.4474,6.5436,6.6936,6.7705,6.8116,6.8192,6.7625,6.7232,6.7106,6.6531,6.6185,6.6185,6.6185,6.6185,6.6185,6.6185,6.6185,6.6185,6.6185,6.6185,6.6185,6.6185,6.6185,6.6185,6.6185,6.6185,6.6185,6.6185,6.6185,6.6185,6.6185,6.6185,6.6185,6.6185,6.6185,6.6108,6.5296,6.487,6.4483,6.2936,6.2278,6.2008,6.1311,6.1118,6.1118,6.1118,6.1118,6.1118,6.1137,6.1137,6.1137,6.1137,6.1173,6.1247,6.1297,6.1306,6.1337,6.1405,6.1434,6.1518,6.1487,6.1538,6.1601,6.1626,6.1541,6.1507,6.1495,6.0798,6.0367,6.0528,5.8758,5.7834,5.8781,5.7621,5.6613,5.619,5.4891,5.3037,5.0572,5.0125,4.9765,4.9541,4.9209,4.8816,4.8307,4.8117,4.7838,4.745,4.7267,4.7178,4.7133,4.6778,4.659,4.8005,4.7565,4.7311,4.9006,4.8852,4.9332,5.3321,5.2721,5.2137,5.4805,5.3815,5.2801,5.3859,5.6785,5.9396,6.0512,6.3435,6.559,6.5705,0.0,6.6128,6.7013,6.7167,6.7231,6.7281,6.7278,6.7,6.6256,6.6183,6.6185,6.6185,6.6185,6.6185,6.6185,6.6185,6.6185,6.6185,6.6185,6.6185,6.6185,6.6185,6.6185,6.6185,6.6185,6.6185,6.6185,6.6185,6.6185,6.6185,6.6185,6.6185,6.6185,6.6185,6.6185,6.6108,6.5296,6.4483,6.3671,6.2704,6.1892,6.1195,6.1118,6.1118,6.1118,6.1118,6.1118,6.1118,6.1173,6.1173,6.1173,6.1173,6.1264,6.1314,6.1306,6.1352,6.1366,6.1419,6.1434,6.1507,6.1481,6.1543,6.1629,6.1678,6.1607,6.1461,6.1422,6.1239,6.0528,5.8915,5.8548,5.7796,5.6231,5.5961,5.5206,5.3524,5.319,5.2188,5.0076,4.991,4.957,4.8816,4.8603,4.8346,4.7943,4.7699,4.7493,4.732,4.7223,4.7133,4.6998,4.6731,4.6495,4.7487,4.7432,4.7805,5.0433,5.0642,5.0894,5.356,5.4465,5.5246,5.7122,5.69,5.6529,5.7161,5.8757,6.0495,6.2103,6.4782,6.6474,6.5974,6.5897,6.6013,6.632,6.6359,6.6384,6.6459,6.6468,6.6383,6.614,6.6144,6.6185,6.6185,6.6185,6.6185,6.6185,6.6185,6.6185,6.6185,6.6185,6.6185,6.6185,6.6185,6.6185,6.6185,6.6185,6.6185,6.6185,6.6185,6.5915,6.5489,6.5992,6.5915,6.5489,6.5992,6.5876,6.5334,6.4483,6.3632,6.2781,6.1892,6.1389,6.1118,6.1118,6.1118,6.1118,6.1155,6.1155,6.1173,6.1264,6.1264,6.1264,6.1264,6.1259,6.1306,6.1322,6.1352,6.1433,6.1434,6.1495,6.152,6.1564,6.1607,6.164,6.1594,6.1047,6.0603,6.0553,5.953,5.8699,5.851,5.7545,5.6792,5.6616,5.6032,5.4946,5.3146,5.2947,5.1929,4.9596,4.9453,4.9209,4.8604,4.8269,4.8028,4.7777,4.7493,4.7363,4.732,4.7178,4.6952,4.6731,4.6495,4.6204,4.702,4.695,4.7691,5.0368,5.1178,5.1942,5.4278,5.6273,5.8196,6.0399,6.0317,5.9832,5.9769,6.0403,6.1467,6.3411,6.5397,6.6628,6.632,6.6051,6.5897,6.5897,6.5923,6.5947,6.5982,6.6013,6.6058,6.6123,6.6165,0.0,0.0,6.6185,6.6185,6.6185,6.6185,6.6185,6.6185,6.6185,6.6185,6.6185,6.5953,6.5953,6.6185,6.6185,6.6185,6.6185,6.5915,6.5489,6.5025,6.5296,6.5257,6.5064,6.5876,6.5721,6.487,6.4019,6.3129,6.2278,6.1389,6.1118,6.1118,6.1118,6.1118,6.1137,6.1173,6.1191,6.1264,6.1314,6.1275,6.1291,6.133,6.1306,6.1298,6.1366,6.1394,6.1434,6.1495,6.152,6.1564,6.1588,6.1651,6.1562,6.1186,6.0549,5.9991,5.9643,5.848,5.7776,5.8027,5.7023,5.6346,5.6592,5.5797,5.4572,5.3039,5.2671,5.1535,4.9321,4.915,4.8847,4.8309,4.8068,4.7819,4.7657,4.7407,4.7276,4.7276,4.7007,4.6778,4.659,4.6253,4.6005,4.6887,4.6313,4.6639,4.8275,4.9987,5.2237,5.5973,5.8367,6.0913,6.5118,6.4253,6.2489,6.1688,6.185,6.2666,6.432,6.532,6.6167,6.6974,6.6397,6.5897,6.5897,6.5972,6.5982,6.599,6.6058,6.6123,6.6185,0.0,0.0,0.0,6.6185,6.6185,6.6185,6.6185,6.6185,6.6185,6.6185,6.6185,6.6185,6.5373,6.5412,6.6185,6.6185,6.6185,6.6147,6.5334,6.4986,6.4909,6.4019,6.4213,6.5064,6.5876,6.5682,6.487,6.4019,6.3129,6.2278,6.1389,6.1118,6.1118,6.1118,6.1155,6.1191,6.1191,6.1264,6.1314,6.1306,6.1283,6.1337,6.1366,6.1352,6.1352,6.146,6.1484,6.1495,6.152,6.1564,6.1595,6.1619,6.1654,6.1391,6.0451,6.0247,5.9822,5.8765,5.8535,5.8143,5.7194,5.7097,5.6708,5.5714,5.4885,5.3996,5.3,5.2088,5.0912,4.9283,4.9015,4.8604,4.7943,4.7902,4.7777,4.7529,4.7363,4.7276,4.7178,4.6778,4.659,4.659,4.602,4.5768,4.5791,4.6543,4.8105,4.9959,5.2748,5.5973,5.9403,6.1093,6.2936,6.625,6.5717,6.4217,6.3027,6.3184,0.0,6.368,6.4936,6.5974,6.6205,6.6051,6.5897,6.5897,6.5972,6.5982,6.599,6.6058,6.6123,6.6185,0.0,0.0,0.0,6.6185,6.6185,6.6185,6.6185,6.6185,6.6185,6.6185,6.5915,6.5334,6.5102,6.5412,6.6147,6.4986,6.4793,6.5296,6.4445,6.3748,6.3168,6.2897,6.3284,6.4097,6.4329,6.3903,6.3129,6.2897,6.224,6.1466,6.1195,6.1137,6.1173,6.1173,6.1247,6.1281,6.1275,6.1291,6.1322,6.1421,6.1434,6.1447,6.1468,6.1479,6.1468,6.1484,6.1518,6.152,6.1573,6.158,6.1588,6.166,6.1203,6.0649,6.0217,5.911,5.8131,5.7688,5.708,5.656,5.6231,5.6109,5.5907,5.557,5.4795,5.3843,5.2856,5.1737,5.0496,4.9085,4.8709,4.8383,4.7902,4.7819,4.7657,4.7493,4.7363,4.7276,4.7178,4.6778,4.6495,4.6301,4.592,4.5701,4.6415,4.7627,4.954,5.1651,5.434,5.7604,6.1691,6.3671,6.5304,6.7568,6.6758,6.5502,6.5183,6.4657,0.0,6.4334,6.5205,6.5897,6.5897,6.5897,6.5923,6.5947,6.5996,6.6029,6.6036,6.6102,6.6144,0.0,0.0,0.0,0.0,6.6185,6.6185,6.6185,6.6185,6.6185,6.6185,6.6185,6.5799,6.4986,6.4638,6.4754,6.518,6.4135,6.398,6.4445,6.3555,6.2704,6.193,6.2278,6.2704,6.3207,6.3555,6.3168,6.2394,6.2394,6.1853,6.1137,6.1137,6.1173,6.1247,6.1247,6.1281,6.1291,6.1306,6.1352,6.1408,6.146,6.1495,6.1489,6.1481,6.1266,6.111,6.1442,6.1529,6.1564,6.1648,6.1648,6.1654,6.1676,6.093,6.0151,5.9664,5.8362,5.7236,5.6734,5.6174,5.5766,5.5724,5.5638,5.5393,5.504,5.4188,5.3274,5.2285,5.1109,4.9951,4.8949,4.8568,4.8229,4.7861,4.7741,4.7615,4.7407,4.7363,4.7232,4.7133,4.6731,4.6398,4.6204,4.5666,4.5302,4.7749,4.907,5.0858,5.3311,5.5505,5.8303,6.315,6.5776,6.7542,6.8672,6.739,6.6398,6.7458,6.6106,6.5051,6.5782,6.5897,6.5897,6.5897,6.5897,6.5923,6.5996,6.6005,6.6036,6.608,6.6144,0.0,0.0,0.0,0.0,0.0,6.6185,6.6185,6.6185,6.6185,6.6147,6.6108,6.6108,6.5644,6.4754,6.3942,6.3516,6.3439,6.3439,6.3439,6.34,6.2627,6.1814,6.1157,6.1969,6.2278,6.2356,6.3129,6.2975,6.2278,6.2278,6.1852,6.1191,6.1191,6.1264,6.1314,6.1314,6.1291,6.1322,6.1337,6.1408,6.1484,6.1495,6.15,6.15,6.1422,6.0854,6.0488,6.1212,6.1361,6.14,6.1442,6.1451,6.1456,6.146,6.0649,5.9698,5.8799,5.7838,5.6868,5.5941,5.5682,5.5615,5.5615,5.5508,5.5155,5.4279,5.3398,5.2485,5.1561,5.0279,4.937,4.8949,4.8458,4.8072,4.7699,4.7657,4.7572,4.732,4.732,4.7187,4.6998,4.659,4.635,4.6204,4.532,4.4872,4.5406,4.8234,5.1924,5.4167,5.8646,6.2882,6.4345,6.5746,6.6908,6.7504,6.7496,6.7273,6.6872,6.6643,6.6397,6.5974,6.5897,6.5897,6.5897,6.5897,6.5897,6.5923,6.5982,6.6013,6.6036,6.6123,0.0,0.0,0.0,0.0,6.6185,6.6185,6.6185,6.6185,6.6185,6.5915,6.5257,6.5257,6.4483,0.0,6.2781,6.2317,6.166,6.166,6.166,6.166,6.1466,6.1273,6.1118,6.1311,6.1389,6.1389,6.1582,6.1543,6.1389,6.1426,6.1328,6.1191,6.1264,6.1275,6.1306,6.1306,6.1337,6.1381,6.1434,6.146,6.1507,6.1547,6.158,6.1432,6.0795,6.0489,6.0266,5.9741,5.9651,5.9641,5.9667,5.9641,5.9648,5.9534,5.8827,5.8103,5.771,5.6831,5.6071,5.5698,5.5554,5.5508,5.5508,5.5437,5.5082,5.4205,5.3276,5.2361,5.1406,4.9913,4.8982,4.885,4.8192,4.7741,4.7572,4.7536,4.745,4.732,4.7267,4.7133,4.6998,4.6684,4.6447,4.6168,4.5425,4.4947,4.6373,4.9407,5.3087,5.6992,6.0948,6.4027,6.4438,6.502,6.557,6.5916,6.6367,6.6625,6.6574,6.6216,6.5915,6.5884,6.5755,6.5663,6.5872,6.5897,6.5923,6.5933,6.5967,6.6036,6.608,6.6144,0.0,0.0,0.0,6.6185,6.6185,6.6185,6.6185,6.6185,6.5837,6.5412,6.4986,6.4599,6.371,6.2394,6.2394,6.193,6.1118,6.1118,6.1118,6.1118,6.1118,6.1118,6.1118,6.1118,6.1118,6.1118,6.1118,6.1137,6.1155,6.1173,6.1208,6.1259,6.1275,6.1322,6.1352,6.1352,6.1381,6.1434,6.1472,6.1528,6.1578,6.1573,6.1329,6.0918,6.0505,5.9802,5.9109,5.8626,5.885,5.9148,5.9095,5.914,5.9117,5.8948,5.818,5.7489,5.7253,5.6374,5.5692,5.557,5.5523,5.5437,5.5437,5.502,5.4409,5.3519,5.2628,5.1713,5.0745,4.9596,4.8881,4.8816,4.8114,4.7657,4.7529,4.745,4.7363,4.7232,4.7223,4.7133,4.6998,4.6778,4.6542,4.6204,4.5267,4.4674,4.7485,5.0807,5.45,5.9701,6.2234,6.3519,6.3859,6.3944,6.4026,6.4256,6.4821,6.5502,6.6237,6.5498,6.5041,6.5781,6.5635,6.5513,6.5872,6.5897,6.5909,6.599,6.599,6.6058,6.6165,6.6185,0.0,0.0,0.0,6.6185,6.6185,6.6069,6.5992,6.5992,6.518,6.4677,6.4561,6.3826,6.3052,6.2201,6.2201,6.1814,6.1118,6.1118,6.1118,6.1118,6.1118,6.1118,6.1118,6.1118,6.1118,6.1118,6.1118,6.1137,6.1191,6.1191,6.1259,6.1283,6.1322,6.1366,6.1433,6.1433,6.1447,6.1495,6.1507,6.1461,6.14,6.1393,6.0801,6.0119,5.9998,5.8948,5.7871,5.7695,5.8239,5.8739,5.8672,5.8697,5.8663,5.8479,5.7707,5.7003,5.6851,5.6084,5.5461,5.5461,5.5451,5.5326,5.5173,5.446,5.3582,5.2565,5.1827,5.1014,5.0062,4.9302,4.8847,4.8781,4.8075,4.7615,4.7486,4.732,4.7267,4.7178,4.7178,4.7088,4.6998,4.6824,4.659,4.6168,4.5074,4.4361,4.4645,5.0322,5.6506,5.9367,6.1558,6.2922,6.2699,6.2836,6.3003,6.2748,6.38,6.4958,6.539,6.5345,6.5359,6.5808,6.5833,6.5846,6.5897,6.5897,6.5923,6.5996,6.6005,6.6036,6.6102,6.6165,0.0,0.0,6.6185,6.6185,6.6185,6.5528,6.5141,6.5141,6.4329,6.3516,6.2743,6.2627,6.2124,6.1273,6.1273,6.1195,6.1118,6.1118,6.1118,6.1118,6.1118,6.1118,6.1118,6.1118,6.1118,6.1118,6.1118,6.1137,6.1191,6.1281,6.1275,6.1322,6.1352,6.1408,6.1511,6.1511,6.1468,6.1529,6.1573,6.1073,6.0488,6.0528,5.9933,5.9123,5.8402,5.8072,5.7695,5.6937,5.6852,5.6937,5.6944,5.6854,5.6708,5.6597,5.6193,5.5813,5.5738,5.5552,5.5389,5.5389,5.5415,5.5135,5.4282,5.4065,5.3365,5.1673,5.138,5.0935,4.9982,4.9246,4.8744,4.8601,4.7919,4.7443,4.7223,4.7223,4.7133,4.7043,4.7043,4.7043,4.6998,4.6731,4.6495,4.6168,4.4966,4.4282,4.5929,5.0854,5.5689,5.9069,6.0534,6.1442,6.2234,6.2178,6.1927,6.1751,6.2645,6.3648,6.4518,6.4483,6.4593,6.5427,6.5359,6.5359,6.5846,6.5923,6.5972,6.6005,6.6013,6.5925,6.5526,6.5507,0.0,0.0,6.4793,6.4793,6.4793,6.4445,6.4251,6.4251,6.3439,6.2781,6.2394,6.193,6.1466,6.1118,6.1118,6.1118,6.1118,6.1118,6.1118,6.1118,6.1118,6.1118,6.1118,6.1118,6.1118,6.1118,6.1137,6.1191,6.1281,6.1275,6.1322,6.1352,6.1405,6.1421,6.1484,6.1484,6.1549,6.1456,6.0995,6.062,6.0249,5.9837,5.9109,5.8342,5.8008,5.7536,5.7057,5.6688,5.6558,5.6509,5.6452,5.6386,5.6251,5.599,5.5707,5.5499,5.5389,5.5377,5.5352,5.5275,5.5275,5.4943,5.4089,5.3503,5.2688,5.1429,5.0833,5.0296,4.9844,4.9118,4.8639,4.8495,4.7797,4.732,4.7178,4.7178,4.7133,4.6998,4.6998,4.6952,4.6778,4.6637,4.6398,4.592,4.4858,4.4282,4.603,4.9745,5.32,5.7063,5.8698,5.9664,6.115,6.115,6.089,6.089,6.1521,6.2352,6.3293,6.3467,6.3675,6.4438,6.4362,6.4426,6.5037,6.523,6.5404,6.5666,6.5578,6.535,6.5025,6.4793,0.0,0.0,6.371,6.371,6.371,6.3478,6.3362,6.3362,6.2511,6.2085,6.2085,6.1427,6.1118,6.1118,6.1118,6.1118,6.1118,6.1118,6.1118,6.1118,6.1118,6.1118,6.1118,6.1118,6.1118,6.1137,6.1173,6.1225,6.1275,6.1306,6.1337,6.1419,6.1433,6.1447,6.1468,6.1245,6.1236,6.114,6.0269,5.9904,5.9655,5.9022,5.8258,5.7575,5.7558,5.7074,5.6606,5.6606,5.6503,5.6418,5.6241,5.6161,5.6039,5.5673,5.5493,5.5377,5.5236,5.5313,5.5286,5.514,5.4977,5.4558,5.3666,5.2748,5.1885,5.1022,5.0296,4.9835,4.9721,4.9019,4.8495,4.8384,4.7669,4.7232,4.7133,4.7133,4.7088,4.6998,4.6952,4.6778,4.659,4.6542,4.6168,4.5615,4.4729,4.4112,4.2389,4.5509,4.8816,5.2159,5.5317,5.7843,5.8698,5.9478,5.9998,5.9998,6.0667,6.1261,6.1342,6.2238,6.2824,6.2501,6.2711,6.2959,6.3034,6.3347,6.3885,6.4844,6.4247,6.4075,6.4909,6.4251,0.0,0.0,6.371,6.371,6.371,6.2936,6.2472,6.2472,6.1621,6.1157,6.1157,6.1118,6.1118,6.1118,6.1118,6.1118,6.1118,6.1118,6.1118,6.1118,6.1118,6.1118,6.1118,6.1118,6.1137,6.1191,6.1191,6.1242,6.1322,6.1283,6.1337,6.1419,6.146,6.1518,6.1373,6.0598,6.0405,6.0315,5.9412,5.8648,5.8033,5.7972,5.7343,5.6649,5.6684,5.6645,5.6606,5.6606,5.6432,5.6241,5.6044,5.5874,5.5653,5.535,5.5288,5.5236,5.5102,5.514,5.5113,5.5113,5.4428,5.3628,5.271,5.1847,5.1022,5.0058,4.9844,4.9692,4.9692,4.8885,4.8384,4.8234,4.7585,4.7133,4.7043,4.6998,4.6998,4.6998,4.6731,4.6637,4.659,4.635,4.587,4.5108,4.4339,4.3798,4.1646,4.3652,4.6104,4.941,5.1936,5.4203,5.6617,5.8178,5.9144,5.9144,6.0221,6.089,5.9812,6.0795,6.1868,6.192,6.2231,6.259,6.2891,6.3267,6.3664,6.4015,6.3825,6.3574,6.3362,6.3052,0.0,0.0,0.0,6.2046,6.2046,6.1737,6.1582,6.1582,6.1273,6.1118,6.1118,6.1118,6.1118,6.1118,6.1118,6.1118,6.1118,6.1118,6.1118,6.1118,6.1118,6.1118,6.1118,6.1118,6.1137,6.1191,6.1264,6.1275,6.1322,6.1352,6.1366,6.1419,6.1499,6.1479,6.1461,6.119,6.0795,6.0237,5.9378,5.8523,5.7789,5.7218,5.6832,5.6606,5.6606,5.6606,5.6553,5.6371,5.611,5.5857,5.5712,5.5566,5.5399,5.5262,5.5183,5.513,5.5057,5.5085,5.5085,5.4971,5.4316,5.3508,5.2551,5.1726,5.0892,4.9993,4.9835,4.9596,4.9214,4.8674,4.8157,4.7793,4.732,4.7043,4.6998,4.6998,4.6952,4.6731,4.6637,4.6542,4.635,4.607,4.5563,4.4872,4.4259,4.3739,4.0197,4.1349,4.3206,4.681,4.8519,5.0488,5.4871,5.6469,5.736,5.8475,5.9589,6.011,5.9255,5.9812,6.0417,6.0671,6.1228,6.1713,6.186,6.2358,6.2818,6.3147,6.2994,6.2704,6.2433,6.2162,6.1737,0.0,0.0,0.0,6.1118,6.1118,6.1118,6.1118,6.1118,6.1118,6.1118,6.1118,6.1118,6.1118,6.1118,6.1118,6.1118,6.1118,6.1118,6.1118,6.1118,6.1118,6.1118,6.1137,6.1173,6.1247,6.1259,6.1306,6.1352,6.1394,6.1408,6.1421,6.1518,6.1529,6.1448,6.0939,6.0417,5.9763,5.8597,5.789,5.7356,5.6758,5.6591,5.6575,5.6563,5.6503,5.6371,5.611,5.584,5.5609,5.5408,5.5339,5.5236,5.513,5.5113,5.5057,5.4971,5.5,5.5,5.4882,5.4002,5.312,5.2494,5.1377,5.0478,4.99,4.9596,4.9283,4.8847,4.8347,4.7879,4.7493,4.7178,4.6998,4.6998,4.687,4.6778,4.659,4.6447,4.6168,4.5819,4.5666,4.5196,4.4485,4.3939,4.3502,0.0,0.0,0.0,4.4061,4.5138,4.6847,5.3274,5.4203,5.4648,5.7918,5.8624,5.8884,5.9738,5.9218,5.8698,5.8698,5.9673,6.0283,5.9938,6.0556,6.1331,6.2278,6.1621,6.1427,6.2278,6.1621,0.0,0.0,6.1118,6.1118,6.1118,6.1118,6.1118,6.1118,6.1118,6.1079,6.1079,6.1079,6.1079,6.1079,6.1079,6.1118,6.1118,6.1118,6.1118,6.1118,6.1118,6.1118,6.1118,6.1173,6.1264,6.1314,6.1306,6.1337,6.1419,6.1499,6.1484,6.1495,6.1564,6.1595,6.129,5.968,5.9104,5.8753,5.7113,5.6606,5.6585,5.6588,5.6582,5.6588,5.6514,5.6355,5.611,5.5788,5.5591,5.5462,5.5262,5.5183,5.513,5.5028,5.5,5.4971,5.4882,5.492,5.4882,5.4882,5.3442,5.2381,5.2352,5.0799,4.9692,4.9692,4.909,4.8713,4.8677,4.7955,4.7493,4.7493,4.7178,4.6998,4.6998,4.6731,4.659,4.659,4.6105,4.5563,4.5108,4.5108,4.4729,4.3972,4.3502,4.3019,3.8042,0.0,0.0,0.0,0.0,0.0,4.7144,4.9633,5.2122,5.5354,5.6543,5.7398,5.8772,5.9054,5.9065,5.914,5.9663,6.0036,5.9938,6.0604,6.1176,6.1427,6.1234,6.1195,6.1427,6.1234,0.0,0.0,6.1118,6.1118,6.1118,6.1118,6.1118,6.1118,6.1118,6.0809,6.0228,6.0809,6.0809,6.0228,6.0809,6.1118,6.1118,6.1118,6.1137,6.1173,6.1173,6.1191,6.1225,6.1191,6.1242,6.1306,6.1322,6.1337,6.1419,6.1499,6.1484,6.1495,6.1564,6.1198,6.0574,6.0182,5.9217,5.8163,5.7695,5.7104,5.6593,5.6614,5.661,5.6563,5.641,5.6084,5.5787,5.5612,5.5431,5.525,5.5075,5.5057,5.5057,5.5,5.4941,5.4912,5.4882,5.492,5.4693,5.4124,5.3013,5.2046,5.1374,5.0237,4.9377,4.915,4.8919,4.8568,4.8041,4.7756,4.7457,4.7178,4.7043,4.687,4.6731,4.6637,4.6447,4.602,4.5905,4.5459,4.4818,4.4818,4.4339,4.3469,4.3019,4.2743,3.8711,3.8674,3.9082,3.9788,0.0,0.0,4.5769,4.7776,4.9856,5.4128,5.5391,5.6283,5.7918,5.8082,5.8165,5.8578,5.937,5.9968,6.0141,6.0696,6.1118,6.1118,6.1118,6.1118,6.1118,6.1118,6.1118,6.1118,6.1118,6.0963,6.0615,6.0267,6.0074,6.0074,6.0074,5.9841,5.9339,5.9803,5.9803,5.9377,6.0208,6.0613,6.0613,6.1018,6.1191,6.1264,6.1264,6.1242,6.1291,6.1259,6.1275,6.1283,6.1337,6.1381,6.1434,6.1495,6.1305,6.1023,6.1088,6.0516,5.9736,5.9446,5.8709,5.7816,5.7456,5.6987,5.6606,5.6606,5.6503,5.641,5.6197,5.5891,5.5609,5.5393,5.5275,5.5102,5.5028,5.4971,5.4941,5.4941,5.4912,5.492,5.492,5.4617,5.4208,5.3656,5.247,5.1466,5.0885,4.994,4.9257,4.9019,4.8676,4.8271,4.7879,4.7506,4.724,4.7043,4.6906,4.6778,4.659,4.6398,4.6119,4.5803,4.5701,4.5111,4.3956,4.426,4.3805,4.2561,4.1996,4.1905,3.9788,3.9863,4.0717,4.2054,4.0308,0.0,4.6252,4.6847,4.7553,5.2717,5.3943,5.4611,5.6357,5.6246,5.6176,5.7042,5.8547,5.9827,6.038,6.0822,6.1118,6.1118,6.1041,6.1002,6.1079,6.1041,6.0963,6.0963,6.0886,6.0499,5.9803,5.9029,5.8604,5.8604,5.8604,5.8526,5.8449,5.8544,5.8583,5.8467,5.9353,5.9796,5.9951,6.0777,6.122,6.1314,6.1197,6.1174,6.1167,6.105,6.1089,6.1182,6.125,6.124,6.1223,6.1208,6.0785,6.0191,6.0227,5.9685,5.8866,5.8124,5.7816,5.7603,5.6822,5.6606,5.6606,5.6558,5.6363,5.6135,5.5901,5.5712,5.5516,5.5236,5.5102,5.5085,5.5,5.4941,5.4882,5.4769,5.4844,5.4882,5.4739,5.4132,5.3543,5.3157,5.1813,5.0772,5.0541,4.9744,4.9164,4.9131,4.8421,4.7992,4.7951,4.7363,4.6998,4.6952,4.6731,4.659,4.6542,4.602,4.5803,4.5752,4.5372,4.4463,4.2981,4.348,4.2947,4.1419,4.0804,4.0836,4.12,4.0754,4.0308,3.99,4.0346,0.0,4.016,4.1832,4.4023,4.5769,4.7218,4.8853,5.1119,5.2531,5.331,5.3225,5.589,5.8501,6.0043,6.0734,6.1118,6.1118,6.0538,6.0383,6.1041,6.0499,6.0112,6.0112,5.9493,5.9029,5.8874,5.8681,5.8604,5.8604,5.8604,5.8255,5.7559,5.8252,5.8269,5.765,5.8496,5.9304,6.0002,6.0173,6.0654,6.1268,6.0608,6.0328,6.0279,5.958,5.9696,6.0332,6.0424,5.9993,5.9394,5.949,5.9435,5.9318,5.9363,5.8827,5.8124,5.7968,5.7418,5.6822,5.6649,5.6606,5.6558,5.641,5.6185,5.5901,5.5654,5.5416,5.5236,5.5085,5.5028,5.5,5.4912,5.4882,5.4731,5.4048,5.4465,5.4663,5.3823,5.3565,5.2937,5.1463,5.081,5.023,4.9562,4.9172,4.8855,4.8569,4.8192,4.7911,4.7621,4.7232,4.6906,4.6684,4.6637,4.6398,4.597,4.5854,4.5701,4.5476,4.413,4.3317,4.2981,4.24,4.1569,4.0707,4.0545,4.0577,4.2426,4.2203,4.2092,4.1646,0.0,0.0,0.0,4.1609,4.276,4.4841,4.5584,4.6401,4.7999,4.9002,4.9809,5.0604,5.3509,5.5995,5.6927,5.9403,6.1118,6.1118,6.0383,6.0074,6.046,5.9725,5.9261,5.9261,5.8449,5.7946,5.7946,5.7559,5.7288,5.7288,5.7288,5.7112,5.6704,5.7108,5.7179,5.6808,5.7707,5.8343,5.8769,5.9211,5.9629,6.0032,5.9643,5.9477,5.949,5.9024,5.888,5.8954,5.9382,5.9337,5.8996,5.9038,5.8786,5.8454,5.847,5.7968,5.7235,5.7263,5.6946,5.6606,5.6606,5.6542,5.6418,5.63,5.5976,5.5673,5.5549,5.5312,5.5102,5.5028,5.5,5.4857,5.4419,5.4216,5.3891,5.3097,5.3187,5.3308,5.2892,5.2416,5.1726,5.067,5.0123,4.9646,4.9135,4.8959,4.882,4.8678,4.8267,4.7911,4.7747,4.7187,4.6731,4.659,4.635,4.607,4.5768,4.5649,4.5373,4.4872,4.3627,4.2646,4.1909,4.0983,4.0351,3.9994,3.9606,3.9638,4.3875,4.3986,4.4358,0.0,0.0,4.1609,0.0,0.0,0.0,0.0,4.4581,4.4544,4.5212,4.5584,4.6238,4.7716,0.0,0.0,0.0,5.6549,0.0,5.9804,5.9552,5.9416,5.9416,5.8449,5.8062,5.8565,5.7327,5.6786,5.7288,5.6476,5.6012,5.6029,5.6029,5.6046,5.6133,5.6133,5.6164,5.6194,5.6936,5.7377,5.7533,5.8259,5.8661,5.8778,5.8636,5.8596,5.8643,5.8498,5.8024,5.7563,5.8374,5.8646,5.8584,5.8623,5.8181,5.7582,5.7616,5.72,5.6595,5.6588,5.6602,5.6563,5.6563,5.6478,5.63,5.6173,5.5835,5.5511,5.5431,5.5224,5.5047,5.481,5.4743,5.4457,5.3602,5.3256,5.2868,5.2076,5.1764,5.1662,5.1826,5.1168,5.052,5.0169,4.9575,4.9061,4.889,4.889,4.889,4.889,4.8382,4.7992,4.7951,4.7107,4.6542,4.6447,4.602,4.5803,4.5752,4.5356,4.4837,4.4078,4.3085,4.1976,4.0802,3.9771,3.9282,3.925,3.8667,3.8699,0.0,0.0,0.0,0.0,4.3838,0.0,0.0,0.0,4.1089,3.9231,0.0,0.0,4.1089,0.0,0.0,0.0,0.0,0.0,4.8548,5.1105,5.3571,5.5075,5.6636,5.7598,0.0,5.6167,5.6167,5.841,5.5702,5.4929,5.7172,5.6476,5.6029,5.6101,5.6101,5.6133,5.618,5.6209,5.6185,5.6199,5.6343,5.6835,5.7573,5.769,5.8117,5.8778,5.8064,5.7737,5.7709,5.6982,5.6675,5.6712,5.7602,5.7446,5.6783,5.686,5.6836,5.6723,5.6762,5.6677,5.6618,5.661,5.6558,5.6509,5.6509,5.6432,5.631,5.5947,5.5766,5.5591,5.5145,5.5057,5.481,5.404,5.3694,5.3376,5.2545,5.2203,5.1845,5.1024,5.0708,5.0572,5.0605,5.0497,5.0131,4.9219,4.8999,4.8925,4.889,4.889,4.889,4.889,4.8382,4.7875,4.7674,4.7017,4.6398,4.592,4.5819,4.5701,4.5476,4.4768,4.4044,4.337,4.1831,4.097,4.0802,3.9247,3.8505,3.8505,3.844,3.844,0.0,0.0,0.0,0.0,0.0,0.0,4.0643,0.0,4.0011,0.0,0.0,0.0,0.0,0.0,0.0,0.0,4.3667,0.0,0.0,0.0,5.0583,0.0,0.0,0.0,0.0,0.0,0.0,0.0,5.431,5.4194,5.578,5.5935,5.6029,5.6117,5.6117,5.6149,5.6209,5.6185,5.6213,5.6265,5.6291,5.6511,5.6858,5.6858,5.7025,5.737,5.705,5.6913,5.694,5.6613,5.6485,5.6548,5.6391,5.643,5.6548,5.6602,5.6606,5.6614,5.6601,5.6591,5.6602,5.6558,5.6509,5.6503,5.6485,5.63,5.6044,5.5835,5.557,5.5161,5.4476,5.4287,5.4002,5.3051,5.2772,5.2447,5.1525,5.118,5.0787,5.0001,4.965,4.9548,4.9548,4.9548,4.9403,4.8964,4.889,4.889,4.889,4.889,4.889,4.889,4.8382,4.7915,4.7752,4.6926,4.6253,4.5955,4.5284,4.4715,4.4147,4.3802,4.3184,4.2192,4.1287,4.0441,3.974,3.8841,3.8408,3.8408,3.8408,3.8408,4.7441,0.0,0.0,0.0,0.0,0.0,0.0,0.0,0.0,0.0,0.0,0.0,0.0,0.0,0.0,0.0,0.0,4.292,0.0,4.4537,0.0,0.0,0.0,0.0,0.0,0.0,0.0,0.0,0.0,5.2995,5.5006,5.5487,5.5813,5.6133,5.6149,5.6141,5.6213,5.6213,5.6265,5.6291,5.6291,5.629,5.6308,5.6308,5.6339,5.6386,5.6402,5.6457,5.6485,5.653,5.6548,5.6528,5.5903,5.5903,5.6255,5.6255,5.6387,5.6598,5.6585,5.645,5.6211,5.6157,5.5996,5.5795,5.5755,5.5474,5.5139,5.5073,5.4741,5.4248,5.3594,5.3328,5.3051,5.2062,5.1744,5.1425,5.0472,5.0123,4.9803,4.9243,4.8993,4.889,4.889,4.889,4.889,4.889,4.889,4.889,4.889,4.889,4.889,4.889,4.8382,4.7875,4.7632,4.6753,4.6,4.554,4.4593,4.363,4.2921,4.2837,4.2309,4.1104,4.071,3.9967,3.904,3.86,3.8408,3.8408,3.8408,3.8408,0.0,0.0,0.0,4.5026,0.0,0.0,0.0,0.0,4.1311,0.0,0.0,0.0,0.0,0.0,0.0,0.0,0.0,0.0,0.0,0.0,0.0,0.0,0.0,0.0,0.0,0.0,0.0,0.0,5.0442,0.0,5.5702,5.5233,5.5242,5.618,5.6209,5.6213,5.6291,5.6291,5.6291,5.6291,5.6291,5.629,5.6308,5.6308,5.6339,5.6394,5.6464,5.6485,5.6524,5.6553,5.6606,5.6606,5.6567,5.6059,5.5352,5.5352,5.5897,5.661,5.6606,5.6059,5.5318,5.5265,5.4663,5.3982,5.3922,5.3724,5.3538,5.3263,5.3015,5.2793,5.2541,5.234,5.2024,5.1126,5.0685,5.0239,4.9417,4.9101,4.8927,4.889,4.889,4.889,4.889,4.889,4.889,4.889,4.889,4.889,4.889,4.889,4.889,4.889,4.8382,4.7793,4.7263,4.6613,4.569,4.4406,4.368,4.2871,4.2043,4.2043,4.1469,4.0356,3.9884,3.9435,3.904,3.86,3.8408,3.8408,3.8408,3.8408,0.0,0.0,5.0376,4.7887,0.0,0.0,0.0,0.0,0.0,0.0,0.0,0.0,0.0,0.0,0.0,4.1536,0.0,0.0,0.0,0.0,0.0,0.0,0.0,0.0,0.0,0.0,0.0,0.0,4.874,0.0,0.0,5.2965,5.3824,5.5278,5.5331,5.563,5.6291,5.6291,5.6291,5.6291,5.6302,5.6308,5.6368,5.6394,5.6464,5.6542,5.6548,5.6553,5.6553,5.6602,5.6606,5.6528,5.5942,5.5577,5.531,5.531,5.5497,5.5747,5.5747,5.5162,5.4416,5.4357,5.415,5.3897,5.3818,5.3521,5.3237,5.3147,5.28,5.2379,5.1613,5.1374,5.1096,5.0016,4.9669,4.9463,4.9101,4.8925,4.889,4.889,4.889,4.889,4.889,4.889,4.889,4.889,4.889,4.889,4.889,4.889,4.889,4.889,4.8382,4.7834,4.7506,4.6519,4.5281,4.368,4.337,4.2645,4.1319,4.125,4.0822,3.985,3.9662,3.9242,3.86,3.8464,3.8408,3.8408,3.8408,3.8408,5.3051,5.2865,0.0,5.0265,4.863,0.0,4.3949,0.0,0.0,0.0,0.0,0.0,0.0,0.0,0.0,4.236,4.1702,0.0,0.0,3.9862,0.0,0.0,0.0,4.3711,0.0,4.4446,4.549,4.6999,4.682,4.7763,0.0,0.0,5.3,5.4452,5.5087,5.5683,5.6291,5.6291,5.6291,5.6291,5.6286,5.6339,5.6394,5.6464,5.6542,5.6606,5.6606,5.6606,5.6606,5.6606,5.6606,5.6532,5.5968,5.5585,5.5244,5.4931,5.4849,5.4849,5.4849,5.4259,5.3513,5.3493,5.3247,5.2955,5.2855,5.2574,5.2221,5.2164,5.1825,5.1367,5.0685,5.0417,5.0184,4.9439,4.9127,4.9064,4.8925,4.889,4.889,4.889,4.889,4.889,4.889,4.889,4.889,4.889,4.889,4.889,4.889,4.889,4.889,4.889,4.8382,4.7752,4.7204,4.6116,4.4902,4.3731,4.3093,4.2319,4.1319,4.1009,4.05,3.961,3.961,3.9189,3.8408,3.8408,3.8408,3.8408,3.8408,3.8262]},{"header":{"parameterUnit":"m.s-1","parameterCategory":1,"la1":30.6,"la2":29.2853,"lo1":-89.7004,"lo2":-87.6739,"dy":0.0162,"dx":0.0183,"nx":112,"ny":82,"refTime":"2026-04-03T00:00:00:Z","depth":0,"parameterNumber":3,"parameterNumberName":"V-component_of_WINDS"},"data":[0.0,0.0,0.0,0.0,0.0,0.0,0.0,0.0,0.0,0.0,0.0,0.0,0.0,0.0,0.0,0.0,0.0,0.0,0.0,0.0,0.0,0.0,0.0,0.0,0.0,0.0,0.0,0.0,0.0,0.0,0.0,0.0,0.0,0.0,0.0,0.0,0.0,0.0,0.0,0.0,0.0,0.0,0.0,0.0,0.0,0.0,0.0,0.0,0.0,0.0,0.0,0.0,0.0,0.0,0.0,0.0,0.0,0.0,0.0,0.0,0.0,0.0,0.0,0.0,0.0,0.0,0.0,0.0,0.0,0.0,0.0,0.0,0.0,0.0,0.0,0.0,0.0,0.0,0.0,0.0,0.0,0.0,0.0,0.0,0.0,0.0,0.0,0.0,0.0,0.0,0.5125,0.5552,0.5781,0.5888,0.5931,0.5692,0.5266,0.4403,0.0,0.0,0.0,0.0,0.0,0.0,0.0,0.0,0.0,0.0,0.0,0.0,0.0,0.0,0.0,0.0,0.0,0.0,0.0,0.0,0.0,0.0,0.0,0.0,0.0,0.0,0.0,0.0,0.0,0.0,0.0,0.0,0.0,0.0,0.0,0.0,0.0,0.0,0.0,0.0,0.0,0.0,0.0,0.0,0.0,0.0,0.0,0.0,0.0,0.0,0.0,0.0,0.0,0.0,0.0,0.0,0.0,0.0,0.0,0.0,0.0,0.0,0.0,0.0,0.0,0.0,0.0,0.0,0.0,0.0,0.0,0.0,0.0,0.0,0.0,0.0,0.0,0.0,0.0,0.0,0.0,0.0,0.0,0.0,0.0,0.0,0.0,0.0,0.0,0.0,0.0,0.0,0.0,0.0,0.0,0.0,0.0,0.0,0.0,0.0,0.0,0.0,0.0,0.0,0.5201,0.5506,0.5737,0.5912,0.5896,0.5671,0.5278,0.4748,0.0,0.0,0.0,0.0,0.0,0.0,0.0,0.0,0.0,0.0,0.0,0.0,0.0,0.0,0.0,0.0,0.0,0.0,0.0,0.0,0.0,0.0,0.0,0.0,0.0,0.0,0.0,0.0,0.0,0.0,0.0,0.0,0.0,0.0,0.0,0.0,0.0,0.0,0.0,0.0,0.0,0.0,0.0,0.0,0.0,0.0,0.0,0.0,0.0,0.0,0.0,0.0,0.0,0.0,0.0,0.0,0.0,0.0,0.0,0.0,0.0,0.0,0.0,0.0,0.0,0.0,0.0,0.0,0.0,0.0,0.0,0.0,0.0,0.0,0.0,0.0,0.0,0.0,0.0,0.0,0.0,0.0,0.0,0.0,0.0,0.0,0.0,0.0,0.0,0.0,0.0,0.0,0.0,0.0,0.0,0.0,0.0,0.0,0.0,0.0,0.0,0.0,0.0,0.521,0.5335,0.5594,0.581,0.5896,0.5847,0.5594,0.519,0.4874,0.443,0.0,0.0,0.0,0.0,0.0,0.0,0.0,0.0,0.0,0.0,0.0,0.0,0.0,0.0,0.0,0.0,0.0,0.0,0.0,0.0,0.0,0.0,0.0,0.0,0.0,0.0,0.0,0.0,0.0,0.0,0.0,0.0,0.0,0.0,0.0,0.0,0.0,0.0,0.0,0.0,0.0,0.0,0.0,0.0,0.0,0.0,0.0,0.0,0.0,0.0,0.0,0.0,0.0,0.0,0.0,0.0,0.0,0.0,0.0,0.0,0.0,0.0,0.0,0.0,0.0,0.0,0.0,0.0,0.0,0.0,0.0,0.0,0.0,0.0,0.0,0.0,0.0,0.0,0.0,0.0,0.0,0.0,0.0,0.0,0.0,0.0,0.0,0.0,0.0,0.0,0.0,0.0,0.0,0.0,0.0,0.0,0.0,0.0,0.0,0.0,0.0,0.0,0.547,0.5541,0.5827,0.5831,0.5855,0.5786,0.5496,0.5177,0.4855,0.4479,0.0,0.0,0.0,0.0,0.0,0.0,0.0,0.0,0.0,0.0,0.0,0.0,0.0,0.0,0.0,0.0,0.0,0.0,0.0,0.0,0.0,0.0,0.0,0.0,0.0,0.0,0.0,0.0,0.0,0.0,0.0,0.0,0.0,0.0,0.0,0.0,0.0,0.0,0.0,0.0,0.0,0.0,0.0,0.0,0.0,0.0,0.0,0.0,0.0,0.0,0.0,0.0,0.0,0.0,0.0,0.0,0.0,0.0,0.0,0.0,0.0,0.0,0.0,0.0,0.0,0.0,0.0,0.0,0.0,0.0,0.0,0.0,0.0,0.0,0.0,0.0,0.0,0.0,0.0,0.0,0.0,0.0,0.0,0.0,0.0,0.0,0.0,0.0,0.0,0.0,0.0,0.0,0.0,0.0,0.0,0.0,0.0,0.0,0.0,0.0,0.0,0.0,0.567,0.5886,0.6107,0.5856,0.579,0.5782,0.5377,0.5043,0.4847,0.4422,0.0,0.0,0.0,0.0,0.0,0.0,0.0,0.0,0.0,0.0,0.0,0.0,0.0,0.0,0.0,0.0,0.0,0.0,0.0,0.0,0.0,0.0,0.0,0.0,0.0,0.0,0.0,0.0,0.0,0.0,0.0,0.0,0.0,0.0,0.0,0.0,0.0,0.0,0.0,0.0,0.0,0.0,0.0,0.0,0.0,0.0,0.0,0.0,0.0,0.0,0.0,0.0,0.0,0.0,0.0,0.0,0.0,0.0,0.0,0.0,0.0,0.0,0.0,0.0,0.0,0.0,0.0,0.0,0.0,0.0,0.0,0.0,0.0,0.0,0.0,0.0,0.0,0.0,0.0,0.0,0.0,0.0,0.0,0.0,0.0,0.0,0.0,0.0,0.0,0.0,0.0,0.0,0.0,0.0,0.0,0.0,0.0,0.0,0.0,0.0,0.0,0.0,0.5848,0.6023,0.6076,0.6033,0.5911,0.5614,0.5353,0.5067,0.4773,0.0,0.0,0.0,0.0,0.0,0.0,0.0,0.0,0.0,0.0,0.0,0.0,0.0,0.0,0.0,0.0,0.0,0.0,0.0,0.0,0.0,0.0,0.0,0.0,0.0,0.0,0.0,0.0,0.0,0.0,0.0,0.0,0.0,0.0,0.0,0.0,0.0,0.0,0.0,0.0,0.0,0.0,0.0,0.0,0.0,0.0,0.0,0.0,0.0,0.0,0.0,0.0,0.0,0.0,0.0,0.0,0.0,0.0,0.0,0.0,0.0,0.0,0.0,0.0,0.0,0.0,0.0,0.0,0.0,0.0,0.0,0.0,0.0,0.0,0.0,0.0,0.0,0.0,0.0,0.0,0.0,0.0,0.0,0.0,0.0,0.0,0.0,0.0,0.0,0.0,0.0,0.0,0.0,0.0,0.0,0.0,0.0,0.0,0.0,0.0,0.0,0.0,0.5852,0.6113,0.629,0.0,0.6206,0.5938,0.5672,0.5284,0.4986,0.4683,0.0,0.0,0.0,0.0,0.0,0.0,0.0,0.0,0.0,0.0,0.0,0.0,0.0,0.0,0.0,0.0,0.0,0.0,0.0,0.0,0.0,0.0,0.0,0.0,0.0,0.0,0.0,0.0,0.0,0.0,0.0,0.0,0.0,0.0,0.0,0.0,0.0,0.0,0.0,0.0,0.0,0.0,0.0,0.0,0.0,0.0,0.0,0.0,0.0,0.0,0.0,0.0,0.0,0.0,0.0,0.0,0.0,0.0,0.0,0.0,0.0,0.0,0.0,0.0,0.0,0.0,0.0,0.0,0.0,0.0,0.0,0.0,0.0,0.0,0.0,0.0,0.0,0.0,0.0,0.0,0.0,0.0,0.0,0.0,0.0,0.0,0.0,0.0,0.0,0.0,0.0,0.0,0.0,0.0,0.0,0.0,0.0,0.0,0.0,0.0,0.0,0.0,0.604,0.6298,0.6674,0.7016,0.6373,0.6009,0.6107,0.5256,0.4761,0.0,0.0,0.0,0.0,0.0,0.0,0.0,0.0,0.0,0.0,0.0,0.0,0.0,0.0,0.0,0.0,0.0,0.0,0.0,0.0,0.0,0.0,0.0,0.0,0.0,0.0,0.0,0.0,0.0,0.0,0.0,0.0,0.0,0.0,0.0,0.0,0.0,0.0,0.0,0.0,0.0,0.0,0.0,0.0,0.0,0.0,0.0,0.0,0.0,0.0,0.0,0.0,0.0,0.0,0.0,0.0,0.0,0.0,0.0,0.0,0.0,0.0,0.0,0.0,0.0,0.0,0.0,0.0,0.0,0.0,0.0,0.0,0.0,0.0,0.0,0.0,0.0,0.0,0.0,0.0,0.0,0.0,0.0,0.0,0.0,0.0,0.0,0.0,0.0,0.0,0.0,0.0,0.0,0.0,0.0,0.0,0.0,0.0,0.0,0.0,0.0,0.0,0.0,0.6051,0.6578,0.6953,0.6914,0.656,0.6207,0.6009,0.5448,0.4871,0.45,0.0,0.0,0.0,0.0,0.0,0.0,0.0,0.0,0.0,0.0,0.0,0.0,0.0,0.0,0.0,0.0,0.0,0.0,0.0,0.0,0.0,0.0,0.0,0.0,0.0,0.0,0.0,0.0,0.0,0.0,0.0,0.0,0.0,0.0,0.0,0.0,0.0,0.0,0.0,0.0,0.0,0.0,0.0,0.0,0.0,0.0,0.0,0.0,0.0,0.0,0.0,0.0,0.0,0.0,0.0,0.0,0.0,0.0,0.0,0.0,0.0,0.0,0.0,0.0,0.0,0.0,0.0,0.0,0.0,0.0,0.0,0.0,0.0,0.0,0.0,0.0,0.0,0.0,0.0,0.0,0.0,0.0,0.0,0.0,0.0,0.0,0.0,0.0,0.0,0.0,0.0,0.0,0.0,0.0,0.0,0.0,0.0,0.0,0.0,0.0,0.0,0.0,0.6051,0.6714,0.722,0.7164,0.6794,0.6555,0.6253,0.5612,0.5031,0.4516,0.0,0.0,0.0,0.0,0.0,0.0,0.0,0.0,0.0,0.0,0.0,0.0,0.0,0.0,0.0,0.0,0.0,0.0,0.0,0.0,0.0,0.0,0.0,0.0,0.0,0.0,0.0,0.0,0.0,0.0,0.0,0.0,0.0,0.0,0.0,0.0,0.0,0.0,0.0,0.0,0.0,0.0,0.0,0.0,0.0,0.0,0.0,0.0,0.0,0.0,0.0,0.0,0.0,0.0,0.0,0.0,0.0,0.0,0.0,0.0,0.0,0.0,0.0,0.0,0.0,0.0,0.0,0.0,0.0,0.0,0.0,0.0,0.0,0.0,0.0,0.0,0.0,0.0,0.0,0.0,0.0,0.0,0.0,0.0,0.0,0.0,0.0,0.0,0.0,0.0,0.0,0.0,0.0,0.0,0.0,0.0,0.0,0.0,0.0,0.0,0.0,0.0,0.604,0.6719,0.7258,0.7481,0.7174,0.6809,0.6677,0.5969,0.5364,0.4689,0.0,0.0,0.0,0.0,0.0,0.0,0.0,0.0,0.0,0.0,0.0,0.0,0.0,0.0,0.0,0.0,0.0,0.0,0.0,0.0,0.0,0.0,0.0,0.0,0.0,0.0,0.0,0.0,0.0,0.0,0.0,0.0,0.0,0.0,0.0,0.0,0.0,0.0,0.0,0.0,0.0,0.0,0.0,0.0,0.0,0.0,0.0,0.0,0.0,0.0,0.0,0.0,0.0,0.0,0.0,0.0,0.0,0.0,0.0,0.0,0.1282,0.0,0.0,0.0,0.0,0.0,0.0,0.0,0.0,0.0,0.0,0.0,0.0,0.0,0.0,0.0,0.0,0.0,0.0,0.0,0.0,0.0,0.0,0.0,0.0,0.0,0.0,0.0,0.0,0.0,0.0,0.0,0.0,0.0,0.0,0.0,0.0,0.0,0.0,0.0,0.0,0.0,0.6051,0.6796,0.7317,0.7372,0.7127,0.6893,0.6804,0.6037,0.5359,0.497,0.4478,0.0,0.0,0.0,0.0,0.0,0.0,0.0,0.0,0.0,0.0,0.0,0.0,0.0,0.0,0.0,0.0,0.0,0.0,0.0,0.0,0.0,0.0,0.0,0.0,0.0,0.0,0.0,0.0,0.0,0.0,0.0,0.0,0.0,0.0,0.0,0.0,0.0,0.0,0.0,0.0,0.0,0.0,0.0,0.0,0.0,0.0,0.0,0.0,0.0,0.0,0.0,0.0,0.0,0.0,0.0,0.0,0.0,0.0,0.0,0.0,0.1332,0.0,0.0,0.0,0.0,0.0,0.0,0.0,0.0,0.0,0.0,0.0,0.0,0.0,0.0,0.0,0.0,0.0,0.0,0.0,0.0,0.0,0.0,0.0,0.0,0.0,0.0,0.0,0.0,0.0,0.0,0.0,0.0,0.0,0.0,0.0,0.0,0.0,0.0,0.0,0.0,0.6056,0.6768,0.7274,0.7328,0.7225,0.6997,0.6655,0.6184,0.5557,0.4912,0.4539,0.0,0.0,0.0,0.0,0.0,0.0,0.0,0.0,0.0,0.0,0.0,0.0,0.0,0.0,0.0,0.0,0.0,0.0,0.0,0.0,0.0,0.0,0.0,0.0,0.0,0.0,0.0,0.0,0.0,0.0,0.0,0.0,0.0,0.0,0.0,0.0,0.0,0.0,0.0,0.0,0.0,0.0,0.0,0.0,0.0,0.0,0.0,0.0,0.0,0.0,0.0,0.0,0.0,0.2021,0.2052,0.2143,0.1939,0.1967,0.1989,0.1853,0.1792,0.1678,0.0697,0.0,0.0,0.0,0.0,0.0,0.0,0.0,0.0,0.0,0.0,0.0,0.0,0.0,0.0,0.0,0.0,0.0,0.0,0.0,0.0,0.0,0.0,0.0,0.0,0.6361,0.6333,0.0,0.0,0.0,0.0,0.0,0.0,0.0,0.0,0.0,0.0,0.0,0.0,0.6083,0.6709,0.7171,0.729,0.7301,0.7074,0.6507,0.6222,0.5771,0.4976,0.4622,0.4328,0.0,0.0,0.0,0.0,0.0,0.0,0.0,0.0,0.0,0.0,0.0,0.0,0.0,0.0,0.0,0.0,0.0,0.0,0.0,0.0,0.0,0.0,0.0,0.0,0.0,0.0,0.0,0.0,0.0,0.0,0.0,0.0,0.0,0.0,0.0,0.0,0.0,0.0,0.0,0.0,0.0,0.0,0.0,0.0,0.0,0.0,0.0,0.1816,0.1655,0.1821,0.1879,0.1936,0.1974,0.2003,0.2148,0.2126,0.2008,0.2033,0.1988,0.0,0.1883,0.16,0.0,0.0,0.0,0.0,0.0,0.0,0.0,0.0,0.0,0.0,0.0,0.0,0.0,0.0,0.0,0.0,0.0,0.0,0.0,0.0,0.0,0.0,0.6839,0.6736,0.673,0.6698,0.0,0.6072,0.5681,0.5406,0.5311,0.0,0.0,0.0,0.0,0.0,0.0,0.0,0.6203,0.6692,0.7051,0.7165,0.7176,0.707,0.6735,0.6294,0.591,0.5382,0.4876,0.4545,0.4259,0.4067,0.0,0.0,0.0,0.0,0.0,0.0,0.0,0.0,0.0,0.0,0.0,0.0,0.0,0.0,0.0,0.0,0.0,0.0,0.0,0.0,0.0,0.0,0.0,0.0,0.0,0.0,0.0,0.0,0.0,0.0,0.0,0.0,0.0,0.0,0.0,0.0,0.0,0.0,0.0,0.0,0.0,0.0,0.0,0.0,0.0565,0.0935,0.1338,0.1355,0.1386,0.1428,0.1448,0.1463,0.1471,0.1582,0.1584,0.1469,0.1425,0.1386,0.1471,0.1736,0.1542,0.095,0.0,0.0,0.0,0.0,0.0,0.0,0.0,0.3135,0.0,0.7178,0.0,0.0,0.0,0.0,0.0,0.0,0.0,0.0,0.0,0.0,0.6904,0.698,0.7002,0.6986,0.6931,0.6665,0.6323,0.0,0.5822,0.5632,0.5121,0.0,0.0,0.0,0.0,0.5958,0.6317,0.6665,0.6953,0.7133,0.7154,0.7043,0.6492,0.6284,0.5836,0.5269,0.4981,0.4704,0.4536,0.4263,0.4014,0.0,0.0,0.0,0.0,0.0,0.0,0.0,0.0,0.0,0.0,0.0,0.0,0.0,0.0,0.0,0.0,0.0,0.0,0.0,0.0,0.0,0.0,0.0,0.0,0.0,0.0,0.0,0.0,0.1281,0.1605,0.0201,0.0,0.0,0.0,0.0,0.0,0.0,0.0,0.0,0.0,0.0906,0.1168,0.0477,0.0123,0.0254,0.0655,0.0658,0.0666,0.068,0.0687,0.0691,0.0691,0.082,0.0958,0.1103,0.1066,0.1053,0.1186,0.1605,0.1771,0.1719,0.0875,0.0321,0.0,0.0,0.0214,0.0534,0.0564,0.2735,0.5751,0.6299,0.0,0.6453,0.6388,0.0,0.0,0.0,0.0,0.6399,0.6687,0.6872,0.7024,0.7165,0.7198,0.7192,0.716,0.7067,0.6844,0.0,0.629,0.6121,0.5518,0.0,0.0,0.0,0.0,0.6116,0.6442,0.6698,0.6926,0.7133,0.7154,0.6932,0.6386,0.6174,0.5854,0.5112,0.4957,0.483,0.4745,0.4463,0.4246,0.4108,0.0,0.0,0.0,0.0,0.0,0.0,0.0,0.0,0.0,0.0,0.0,0.0,0.0,0.0,0.0,0.0,0.0,0.0,0.0,0.0,0.0,0.0,0.0,0.0,0.0,0.0,0.0,0.0,0.0,0.0638,0.0,0.0,0.0,0.0,0.0,0.0,0.0,0.0,0.0,0.0124,0.0636,0.1832,0.0673,0.0,0.0,0.0,0.0,0.0,0.0,0.0,0.0,0.0,0.042,0.112,0.0966,0.1089,0.1072,0.1026,0.1372,0.1962,0.178,0.1044,0.0,0.0,0.0783,0.1905,0.1942,0.1609,0.1727,0.3969,0.4722,0.4563,0.4157,0.393,0.0,0.0,0.5638,0.6877,0.7116,0.7317,0.7459,0.735,0.7328,0.7296,0.7182,0.7067,0.6942,0.0,0.6584,0.6344,0.6083,0.0,0.5882,0.5871,0.6083,0.6339,0.6578,0.6823,0.7024,0.7143,0.7154,0.6932,0.6386,0.6174,0.5854,0.5112,0.5018,0.4924,0.483,0.4732,0.4557,0.4291,0.3677,0.0,0.0,0.0,0.0,0.0,0.0,0.0,0.0,0.0,0.0,0.0,0.0,0.0,0.0,0.0,0.0,0.0,0.0,0.0,0.0,0.0,0.0,0.0,0.0,0.0,0.0,0.0,0.0,0.5605,0.2219,0.0,0.0,0.0,0.0,0.0,0.0,0.0,0.0,0.0,0.0268,0.0677,0.0276,0.0,0.0,0.0,0.0,0.0,0.0,0.0,0.0,0.0,0.0142,0.0426,0.042,0.0415,0.0409,0.0403,0.0524,0.0762,0.1634,0.1116,0.0122,0.1106,0.1713,0.2064,0.2076,0.1835,0.1708,0.2164,0.2573,0.2836,0.2676,0.2641,0.3055,0.5045,0.601,0.6684,0.7481,0.7806,0.7741,0.7464,0.7453,0.7421,0.7296,0.7241,0.7176,0.7051,0.6834,0.6594,0.6355,0.6339,0.6339,0.6268,0.6393,0.6584,0.6823,0.6931,0.7029,0.7143,0.7154,0.6906,0.6179,0.6074,0.5753,0.5131,0.4937,0.4867,0.4834,0.4696,0.4454,0.3937,0.3521,0.2853,0.0,0.0,0.0,0.0,0.0,0.0,0.0,0.0,0.0,0.0,0.0,0.0,0.0,0.0,0.0,0.0,0.0,0.0,0.0,0.0,0.0,0.0,0.0,0.0,0.0,0.0,0.6373,0.8407,0.5186,0.2135,0.0244,0.0,0.0,0.0,0.0,0.0,0.0,0.0,0.0,0.0,0.0,0.0,0.0,0.0,0.0,0.0,0.0,0.0,0.0,0.0,0.0,0.0,0.0,0.0,0.0,0.0,0.0,0.0131,0.1042,0.0776,0.0128,0.1418,0.1798,0.1908,0.2035,0.203,0.1886,0.1471,0.1564,0.1895,0.1865,0.1855,0.2435,0.498,0.6045,0.6667,0.8031,0.8319,0.8101,0.7943,0.7696,0.7546,0.7536,0.7366,0.7312,0.723,0.7024,0.6812,0.6649,0.6654,0.6643,0.6524,0.6643,0.6785,0.691,0.6991,0.7073,0.7143,0.7043,0.678,0.6122,0.5878,0.5543,0.4932,0.4814,0.4745,0.4745,0.4634,0.434,0.3704,0.3129,0.2349,0.1272,0.0,0.0,0.0,0.0,0.0,0.0,0.0,0.0,0.0,0.0,0.0,0.0,0.0,0.0,0.0,0.0,0.0,0.0,0.0,0.0,0.0,0.0,0.0,0.6463,0.7442,0.8291,0.8453,0.8513,0.6281,0.052,0.0,0.0,0.0,0.0,0.0,0.0,0.0,0.0,0.0,0.0,0.0,0.0,0.0,0.0,0.0,0.0,0.0,0.0,0.0,0.0,0.0,0.0,0.0,0.0,0.0,0.0,0.0,0.0,0.0132,0.0132,0.091,0.1163,0.1161,0.1936,0.2045,0.2015,0.1988,0.1958,0.1928,0.1898,0.1888,0.2242,0.4006,0.5479,0.6985,0.8797,0.8769,0.8459,0.8689,0.8181,0.779,0.8014,0.7662,0.7345,0.7339,0.7154,0.6997,0.6991,0.6893,0.6774,0.6654,0.6839,0.0,0.6828,0.7013,0.7154,0.7154,0.6932,0.6559,0.6122,0.5716,0.5244,0.4843,0.4671,0.4577,0.4573,0.4569,0.4242,0.3697,0.2608,0.1481,0.0315,0.0,0.0,0.0,0.0,0.0,0.0,0.0,0.0,0.0,0.0,0.0,0.0,0.0,0.0,0.0,0.0,0.0,0.0,0.0,0.0,0.0,0.6926,0.7307,0.7027,0.7552,0.7176,0.5165,0.7107,0.6309,0.0549,0.0,0.0,0.0,0.0,0.0,0.0,0.0,0.0,0.0,0.0,0.0,0.0,0.0,0.0,0.0,0.0,0.0,0.0,0.0,0.0,0.0,0.0,0.0,0.0,0.0,0.0,0.0137,0.1211,0.1606,0.1605,0.1867,0.1851,0.1835,0.2097,0.2076,0.2046,0.2016,0.2001,0.1989,0.196,0.1952,0.2438,0.4858,0.5843,0.6598,0.8672,0.9195,0.8964,0.8927,0.8557,0.8159,0.8147,0.7858,0.7546,0.7372,0.7285,0.7209,0.7122,0.7078,0.7046,0.7013,0.7062,0.0,0.7062,0.7111,0.7154,0.7154,0.6932,0.6559,0.6122,0.5776,0.5313,0.4843,0.4732,0.4643,0.4577,0.4133,0.351,0.2625,0.19,0.1162,0.0,0.0,0.0,0.0,0.0,0.0,0.0,0.0,0.0,0.0,0.0,0.0,0.0,0.0,0.0,0.0,0.0,0.0,0.0,0.0,0.0,0.0,0.7383,0.7769,0.785,0.7991,0.7206,0.444,0.4549,0.4213,0.2134,0.0713,0.0,0.0,0.0,0.0,0.0,0.0,0.0,0.0,0.0,0.0,0.0,0.0,0.0,0.0,0.0,0.0,0.0,0.0,0.0,0.0,0.0,0.0,0.0,0.0,0.0,0.0,0.0,0.0,0.0,0.0,0.2143,0.2128,0.2128,0.2108,0.208,0.2063,0.2048,0.2033,0.2003,0.1994,0.2488,0.4435,0.5406,0.6385,0.8227,0.8964,0.9335,0.9335,0.8854,0.8471,0.8515,0.8096,0.7644,0.7448,0.7372,0.0,0.7176,0.7154,0.7138,0.7089,0.7122,0.7138,0.7089,0.7127,0.7154,0.7154,0.6826,0.6448,0.6122,0.5656,0.0,0.0,0.0,0.4458,0.4185,0.3673,0.0,0.0,0.0,0.0,0.0,0.0,0.0,0.0,-0.383,-0.4722,0.0,0.0,0.0,0.0,0.0,0.0,0.0,0.0,0.0,0.0,0.0,0.0,0.0,0.0,0.0,0.0,0.778,0.8214,0.8557,0.8633,0.7776,0.5451,0.269,0.2008,0.4506,0.2477,0.0729,0.0,0.0,0.0,0.0,0.0,0.0,0.0,0.0,0.0,0.0,0.0,0.0,0.0,0.0,0.0,0.0,0.0,0.0,0.0,0.0,0.0,0.0,0.0,0.0,0.0,0.0137,0.0953,0.2019,0.2154,0.2155,0.2155,0.2155,0.0,0.0,0.211,0.2091,0.2063,0.2033,0.2022,0.2264,0.3591,0.4923,0.6263,0.7612,0.8593,0.9457,0.97,0.9098,0.8488,0.8854,0.828,0.7687,0.7562,0.7437,0.7317,0.7198,0.7165,0.7122,0.7018,0.7089,0.7116,0.7018,0.7095,0.7154,0.7154,0.0,0.0,0.6141,0.5417,0.4928,0.4749,0.4462,0.4047,0.3525,0.3069,0.2618,0.2169,0.1626,0.1445,0.1355,0.1355,-0.0,-0.2714,-0.4188,-0.5286,0.0,0.0,0.0,0.0,0.0,0.0,0.0,0.0,0.0,0.0,0.0,0.0,0.0,0.0,0.0,0.7584,0.8035,0.8437,0.8698,0.8823,0.8665,0.8237,0.7856,0.6757,0.4942,0.6417,0.5392,0.0437,0.0,0.0,0.0,0.0,0.0,0.0,0.0,0.0,0.0,0.0,0.0,0.0,0.0,0.0,0.0,0.0,0.0,0.0,0.0,0.0,0.0,0.0,0.0,0.0,0.0682,0.108,0.1346,0.2019,0.2155,0.2155,0.2155,0.2151,0.2142,0.2117,0.2105,0.2095,0.2064,0.2038,0.0,0.3638,0.4964,0.6263,0.7612,0.8836,0.97,0.9822,0.9335,0.8854,0.8854,0.8343,0.7807,0.7687,0.7568,0.7442,0.7323,0.722,0.7149,0.7127,0.7138,0.7143,0.7127,0.7138,0.7154,0.7154,0.6604,0.6265,0.6246,0.5582,0.5116,0.4932,0.4291,0.3685,0.3108,0.264,0.2075,0.1603,0.1509,0.1415,0.1415,0.1415,0.047,-0.1307,-0.4541,-0.6153,0.0,0.0,0.0,0.0,0.0,0.0,0.0,0.0,0.0,0.0,0.0,0.6698,0.6931,0.0,0.7774,0.8019,0.8361,0.8655,0.8834,0.8965,0.9068,0.9133,0.9209,0.8688,0.7123,0.8459,0.8029,0.4944,0.3199,0.2328,0.2331,0.0874,0.0,0.0,0.0,0.0,0.0,0.0,0.0,0.0,0.0,0.0,0.0,0.0,0.0,0.0,0.0,0.0,0.0,0.0,0.0,0.014,0.0823,0.1355,0.175,0.2019,0.2155,0.2155,0.2155,0.2155,0.2153,0.2136,0.2132,0.226,0.3009,0.2723,0.2443,0.4422,0.55,0.62,0.7505,0.8836,0.9822,0.9822,0.9335,0.8854,0.8854,0.836,0.7839,0.7725,0.7655,0.7551,0.7366,0.7285,0.7225,0.7165,0.7154,0.7154,0.7154,0.7154,0.7154,0.7154,0.6604,0.6274,0.6274,0.5582,0.51,0.4916,0.4241,0.3559,0.3049,0.248,0.2004,0.1525,0.124,0.124,0.143,0.143,0.0667,-0.0856,-0.2984,-0.441,0.0,0.0,0.0,0.0,0.0,0.0,0.0,0.6328,0.6388,0.6725,0.6986,0.7247,0.7535,0.7883,0.8198,0.8416,0.8633,0.8818,0.8965,0.9073,0.9144,0.9166,0.9264,0.9318,0.9307,0.9329,0.9345,0.9334,0.699,0.5531,0.5535,0.3201,0.16,0.0873,0.0874,0.0875,0.0875,0.0292,0.0,0.0,0.0,0.0,0.0,0.0,0.0,0.0,0.0,0.0,0.0,0.0,0.0,0.0141,0.0835,0.1509,0.2162,0.2157,0.2155,0.2155,0.2155,0.2155,0.2155,0.2155,0.2423,0.2819,0.3581,0.343,0.3275,0.5238,0.6072,0.6665,0.7675,0.8879,0.9856,0.9829,0.9335,0.8976,0.8854,0.836,0.7967,0.7752,0.772,0.7638,0.7442,0.7388,0.7323,0.7176,0.7154,0.7154,0.7154,0.7154,0.7154,0.7154,0.6604,0.6274,0.6163,0.5556,0.4966,0.4716,0.4124,0.3558,0.291,0.2425,0.1937,0.1543,0.0965,0.0868,0.1158,0.0965,0.0289,-0.077,-0.1348,-0.2491,0.629,0.6198,0.6257,0.6469,0.6529,0.6681,0.0,0.7192,0.7105,0.7366,0.7606,0.7785,0.7823,0.8133,0.8421,0.8546,0.8682,0.8851,0.9079,0.9128,0.9171,0.9275,0.9296,0.9307,0.9302,0.9307,0.9318,0.9329,0.9039,0.8749,0.8765,0.8474,0.7003,0.4221,0.4221,0.4221,0.4221,0.1455,0.0,0.0,0.0,0.0,0.0,0.0,0.0,0.0,0.0,0.0,0.0,0.0,0.0,0.0143,0.0855,0.1544,0.2192,0.2165,0.2155,0.2155,0.2155,0.2155,0.2155,0.2155,0.3094,0.3897,0.2821,0.4121,0.5777,0.4717,0.6219,0.8044,0.8051,0.9019,0.9992,0.9849,0.9579,0.9214,0.8976,0.861,0.8238,0.7978,0.7769,0.7693,0.7665,0.7573,0.7421,0.7187,0.7154,0.7154,0.7154,0.7154,0.7043,0.6826,0.6497,0.6051,0.5493,0.5288,0.5002,0.4439,0.3834,0.314,0.2572,0.2058,0.1737,0.1607,0.1104,0.0602,0.0201,-0.0803,-0.1104,-0.0803,-0.1305,-0.256,0.6622,0.6632,0.6725,0.6888,0.6986,0.7122,0.7448,0.7497,0.7519,0.7687,0.797,0.8187,0.8187,0.8367,0.8557,0.8677,0.8796,0.8938,0.9111,0.9193,0.9253,0.9296,0.9302,0.9302,0.9302,0.9302,0.9307,0.9313,0.9313,0.9318,0.9323,0.9334,0.8749,0.7425,0.7434,0.7438,0.7438,0.6123,0.4514,0.2763,0.2766,0.2768,0.2622,0.0874,0.0,0.0,0.0,0.0,0.0,0.0,0.0579,0.1288,0.1288,0.1697,0.2222,0.2192,0.217,0.2155,0.2155,0.2692,0.3228,0.2423,0.3763,0.5366,0.483,0.5478,0.6634,0.7626,0.8102,0.8559,0.9203,0.9803,1.0148,0.9992,0.9711,0.9445,0.9233,0.8732,0.8366,0.8244,0.7955,0.778,0.7714,0.766,0.7568,0.7394,0.7366,0.7366,0.7366,0.7307,0.7011,0.6502,0.6158,0.5824,0.5382,0.5345,0.508,0.4368,0.3796,0.3219,0.2531,0.2002,0.1673,0.1644,0.1027,0.051,-0.0,-0.1112,-0.1516,-0.1314,-0.1718,-0.2702,0.6812,0.6937,0.7116,0.7269,0.7421,0.7568,0.7687,0.7785,0.7872,0.7954,0.8209,0.8416,0.8416,0.8513,0.8638,0.8796,0.8894,0.9019,0.9204,0.9275,0.9318,0.9351,0.9323,0.9302,0.9302,0.9302,0.9302,0.9302,0.9302,0.9302,0.9302,0.9318,0.9323,0.9323,0.9334,0.9345,0.9345,0.9351,0.8169,0.597,0.597,0.5974,0.5829,0.2765,0.1311,0.1312,0.0437,0.0,0.0,0.0,0.0871,0.2304,0.1727,0.1857,0.2255,0.2233,0.22,0.2166,0.2158,0.2827,0.3497,0.2558,0.3897,0.5767,0.5366,0.5763,0.6685,0.8338,0.8317,0.8029,0.8951,0.9178,0.927,0.9387,0.9324,0.915,0.9174,0.8879,0.8488,0.8244,0.8116,0.7845,0.7763,0.7747,0.772,0.7627,0.7616,0.7589,0.7529,0.718,0.6848,0.6322,0.5953,0.5601,0.5382,0.5382,0.5016,0.4182,0.374,0.3169,0.2363,0.1931,0.1704,0.1675,0.1256,0.052,-0.0513,-0.1129,-0.1436,-0.1641,-0.2051,-0.2866,0.6834,0.7056,0.7383,0.7622,0.7861,0.8062,0.8187,0.8214,0.822,0.8225,0.8329,0.8416,0.8416,0.8513,0.8666,0.8905,0.8948,0.9073,0.9427,0.9378,0.9345,0.9465,0.9378,0.9302,0.9302,0.9302,0.9302,0.9302,0.9302,0.9302,0.9302,0.9302,0.9307,0.9307,0.9307,0.9307,0.9307,0.9323,0.9189,0.9184,0.92,0.9211,0.9066,0.5974,0.4511,0.4366,0.1309,0.0,0.0,0.0,0.0875,0.2335,0.2335,0.2316,0.2289,0.2289,0.2249,0.2195,0.2165,0.229,0.2289,0.2155,0.3228,0.4166,0.2692,0.4297,0.6164,0.483,0.5496,0.6411,0.6325,0.63,0.6671,0.7858,0.7996,0.8165,0.8925,0.8952,0.8732,0.7994,0.7872,0.7872,0.7867,0.7867,0.7867,0.7861,0.7861,0.778,0.7546,0.6834,0.6422,0.6417,0.5769,0.5382,0.5382,0.5382,0.4931,0.3698,0.3583,0.3112,0.1858,0.1748,0.1735,0.1707,0.16,0.0533,-0.1705,-0.1172,-0.1171,-0.1701,-0.202,-0.2974,0.7225,0.7481,0.7747,0.7997,0.8117,0.8204,0.8329,0.8356,0.8356,0.8356,0.8323,0.8296,0.8296,0.8329,0.8432,0.8671,0.8845,0.9046,0.9323,0.94,0.941,0.9372,0.94,0.9394,0.9313,0.9302,0.9302,0.9302,0.9302,0.9302,0.9302,0.9302,0.9302,0.9302,0.9302,0.9302,0.9302,0.9307,0.9313,0.9313,0.9318,0.9329,0.9195,0.8164,0.7724,0.7733,0.6563,0.4953,0.3056,0.3057,0.4223,0.5829,0.4374,0.4504,0.5198,0.3013,0.297,0.361,0.2606,0.2848,0.3497,0.2558,0.3763,0.5366,0.4031,0.4967,0.6297,0.5767,0.6034,0.6427,0.6398,0.7053,0.7822,0.8237,0.8828,0.9264,0.9468,0.9019,0.8588,0.8261,0.7994,0.7872,0.7872,0.7872,0.7845,0.7769,0.7823,0.7812,0.766,0.7015,0.6579,0.6436,0.5825,0.5443,0.5386,0.5043,0.448,0.3701,0.3253,0.2684,0.178,0.1779,0.1545,0.1193,0.152,0.054,-0.1815,-0.1601,-0.16,-0.1704,-0.2238,-0.3507,0.7687,0.7915,0.8127,0.8367,0.8394,0.8394,0.8513,0.8508,0.8481,0.8481,0.835,0.8209,0.8122,0.8106,0.8198,0.8481,0.8693,0.8965,0.9378,0.9427,0.9427,0.9432,0.9427,0.9389,0.9313,0.9302,0.9302,0.9302,0.9302,0.9302,0.9302,0.9302,0.9302,0.9302,0.9302,0.9302,0.9302,0.9302,0.9302,0.9302,0.9302,0.9313,0.9323,0.9323,0.9329,0.934,0.9345,0.8169,0.6406,0.641,0.6849,0.7724,0.6264,0.6257,0.6817,0.4757,0.4264,0.4329,0.276,0.2859,0.3362,0.2558,0.336,0.4696,0.3763,0.4166,0.4964,0.4964,0.4964,0.4964,0.5499,0.6277,0.7176,0.8075,0.8666,0.9202,0.9292,0.8836,0.8386,0.8267,0.7994,0.7872,0.7872,0.7872,0.7834,0.772,0.7763,0.7785,0.7589,0.71,0.6689,0.6434,0.589,0.5484,0.5431,0.4834,0.4145,0.3138,0.2805,0.2244,0.1234,0.157,0.1563,0.1214,0.0773,-0.011,-0.1521,-0.2281,-0.2605,-0.2492,-0.3466,-0.4974,0.8187,0.8345,0.8497,0.8725,0.8693,0.8633,0.8747,0.8677,0.8584,0.8573,0.8372,0.8127,0.7888,0.7856,0.7981,0.8339,0.8513,0.8851,0.9563,0.9465,0.941,0.9644,0.947,0.9323,0.9313,0.9313,0.9313,0.9302,0.0,0.9302,0.9302,0.9302,0.9302,0.9302,0.9302,0.9302,0.9302,0.9302,0.9302,0.9302,0.9302,0.9302,0.9302,0.9302,0.9302,0.9307,0.9323,0.9329,0.9329,0.9351,0.876,0.7869,0.7869,0.7566,0.7259,0.7115,0.6147,0.4611,0.304,0.2317,0.2155,0.2155,0.2155,0.2155,0.2289,0.2289,0.2155,0.2289,0.2289,0.2558,0.3897,0.4256,0.4885,0.7346,0.7877,0.7858,0.862,0.8649,0.8398,0.8027,0.7877,0.7872,0.7872,0.7867,0.7823,0.772,0.7703,0.7578,0.721,0.6971,0.6612,0.6368,0.5852,0.5512,0.5394,0.475,0.3698,0.2239,0.2354,0.1795,0.0112,0.1009,0.157,0.157,-0.0785,-0.1682,-0.1121,-0.3248,-0.425,-0.4132,-0.5579,-0.7249,0.8432,0.8655,0.8829,0.8889,0.8883,0.8845,0.8785,0.8677,0.8541,0.8361,0.7992,0.7655,0.7502,0.7622,0.7834,0.81,0.8546,0.9019,0.947,0.9557,0.9601,0.9661,0.9688,0.9633,0.9459,0.9438,0.94,0.0,0.9302,0.9302,0.9302,0.9302,0.9302,0.9302,0.9302,0.9302,0.9302,0.9302,0.9302,0.9302,0.9302,0.9302,0.9302,0.9302,0.9302,0.9302,0.9307,0.9313,0.9313,0.9318,0.9457,0.9735,0.8435,0.9013,1.0161,0.7837,0.7473,0.7776,0.6148,0.4113,0.2155,0.2155,0.2155,0.2423,0.3497,0.3094,0.2423,0.3497,0.2959,0.2558,0.3897,0.4821,0.5859,0.7534,0.8349,0.8859,0.8805,0.8481,0.816,0.7921,0.7943,0.7872,0.7872,0.7801,0.7736,0.7703,0.7459,0.7303,0.7097,0.6857,0.6504,0.6151,0.5756,0.5114,0.3905,0.3312,0.2266,0.0672,0.0224,0.0,0.0,-0.056,-0.112,-0.1569,-0.3022,-0.4139,-0.4704,-0.5596,-0.5815,-0.5361,-0.6028,-0.7249,0.8791,0.8965,0.9095,0.9046,0.8954,0.8829,0.8655,0.8481,0.8258,0.791,0.7546,0.723,0.7051,0.722,0.7497,0.7845,0.8361,0.8899,0.9416,0.9546,0.9628,0.9731,0.9753,0.9688,0.9503,0.9487,0.9438,0.9313,0.9302,0.9302,0.9302,0.9302,0.9302,0.9302,0.9302,0.9302,0.9302,0.9302,0.9302,0.9302,0.9302,0.9302,0.9302,0.9302,0.9302,0.9302,0.0,0.9302,0.9302,0.9446,0.9879,1.0455,0.9735,1.0317,1.1332,0.9723,0.9066,0.909,0.7999,0.6203,0.42,0.4037,0.3629,0.3362,0.4833,0.43,0.3362,0.4833,0.4699,0.4163,0.4967,0.6007,0.6894,0.7495,0.8465,0.9001,0.8676,0.8419,0.8146,0.7975,0.8002,0.7932,0.7883,0.7823,0.7522,0.6741,0.6253,0.5737,0.5057,0.5314,0.5566,0.5178,0.4467,0.3513,0.2551,0.1854,0.0921,-0.0566,-0.1019,-0.1582,-0.213,-0.1903,-0.2798,-0.4931,-0.515,-0.5485,-0.627,-0.6821,-0.6927,-0.6811,-0.7697,-0.8796,0.9198,0.9264,0.9307,0.9204,0.8986,0.8725,0.8475,0.8214,0.7894,0.741,0.7111,0.6877,0.6681,0.6844,0.7171,0.7665,0.8149,0.8709,0.941,0.9508,0.9595,0.9835,0.9758,0.9644,0.9525,0.9497,0.9438,0.9313,0.9302,0.9302,0.9302,0.9302,0.9302,0.9302,0.9302,0.9302,0.9302,0.9302,0.9302,0.9302,0.9302,0.9302,0.9302,0.9302,0.9302,0.9302,0.9302,0.0,0.9302,0.9735,1.0167,1.0599,1.0894,1.1188,1.1619,1.1619,1.0668,0.9541,0.9422,0.8464,0.7251,0.6602,0.5633,0.4833,0.6301,0.5767,0.4833,0.6301,0.6564,0.6431,0.6569,0.7172,0.7631,0.7621,0.829,0.8802,0.8285,0.8345,0.835,0.8122,0.8079,0.804,0.7915,0.791,0.7255,0.5072,0.446,0.3717,0.2244,0.3327,0.405,0.3659,0.259,0.1647,0.1178,0.0471,-0.0469,-0.1614,-0.2069,-0.3082,-0.4845,-0.336,-0.4139,-0.7862,-0.6837,-0.6492,-0.6821,-0.7482,-0.7925,-0.8251,-0.9699,-1.0806,0.9519,0.9519,0.9449,0.9432,0.9171,0.8834,0.8497,0.8149,0.7769,0.7285,0.6915,0.6703,0.6757,0.6964,0.7317,0.7899,0.8394,0.8927,0.9552,0.9639,0.9726,0.996,0.9883,0.9764,0.965,0.9546,0.9438,0.9313,0.9302,0.9302,0.9302,0.9302,0.9302,0.9302,0.9302,0.9302,0.9302,0.9302,0.9302,0.9302,0.9302,0.9302,0.9302,0.9302,0.9302,0.9302,0.9302,0.0,0.9302,0.9735,1.0167,1.0599,1.0894,1.1188,1.1619,1.1619,1.1456,1.1123,1.0979,1.0689,0.9967,0.7296,0.6297,0.6301,0.7769,0.7236,0.6301,0.7769,0.7369,0.6569,0.7388,0.7507,0.7607,0.871,0.8778,0.8557,0.8426,0.8416,0.8383,0.8231,0.8204,0.8166,0.8051,0.8035,0.6864,0.3066,0.2204,0.1951,0.2281,0.2463,0.2449,0.215,0.1775,0.0945,-0.0359,-0.0839,-0.1785,-0.3286,-0.3819,-0.4589,-0.5728,-0.5639,-0.6265,-0.785,-0.7721,-0.782,-0.8152,-0.8823,-0.9265,-0.9478,-1.0257,-1.1025,0.9639,0.9628,0.9568,0.9503,0.9171,0.8731,0.8242,0.785,0.7421,0.6817,0.6556,0.6453,0.6513,0.6714,0.7029,0.7508,0.7937,0.8443,0.9111,0.9313,0.9525,0.9883,1.0031,0.9949,0.9682,0.9706,0.9731,0.9313,0.9302,0.9302,0.9302,0.9302,0.9302,0.9302,0.9302,0.9302,0.9302,0.9302,0.9302,0.9302,0.9302,0.9302,0.9302,0.9302,0.9302,0.9302,0.9302,0.0,0.959,1.0023,1.0455,1.075,1.1188,1.1476,1.1619,1.1619,1.1619,1.1599,1.1443,1.1294,1.0987,0.9267,0.822,0.7769,0.9244,0.8706,0.7902,0.9244,0.9111,0.8312,0.8051,0.8056,0.8158,0.8049,0.8207,0.8519,0.8513,0.8513,0.8475,0.8356,0.8285,0.8225,0.8171,0.654,0.4605,0.2365,0.0619,-0.0246,0.0,0.0119,0.0233,0.0821,-0.0,-0.0944,-0.1903,-0.2295,-0.3017,-0.4245,-0.4787,-0.5422,-0.6125,-0.6629,-0.7271,-0.7949,-0.8159,-0.8484,-0.8933,-0.9375,-0.9816,-1.0036,-1.0688,-1.1126,0.9682,0.9704,0.9677,0.9557,0.9166,0.8644,0.8013,0.7595,0.7138,0.6448,0.6285,0.6285,0.6333,0.6497,0.6752,0.7165,0.7497,0.7959,0.8704,0.8997,0.9302,0.9748,1.0112,1.0067,0.9794,0.9815,0.9843,0.9457,0.9302,0.9302,0.9302,0.9302,0.9302,0.9302,0.9302,0.9302,0.9302,0.9302,0.9302,0.9302,0.9302,0.9302,0.9302,0.9302,0.9302,0.9302,0.9302,0.0,0.0,1.0311,1.0599,1.0894,1.1476,1.1619,1.1619,1.1619,1.1619,1.1599,1.1484,1.1341,1.1192,1.1077,1.0078,0.9244,1.0319,0.9915,0.9111,1.0319,1.0326,0.9788,0.8584,0.8717,0.8834,0.7549,0.7797,0.8481,0.8568,0.859,0.8562,0.847,0.8388,0.8059,0.6988,0.4693,0.2505,0.1384,-0.0624,-0.1984,-0.1977,-0.205,-0.1649,-0.0581,-0.1751,-0.2586,-0.2956,-0.3379,-0.3869,-0.4598,-0.5276,-0.5779,-0.6415,-0.7171,-0.7727,-0.8091,-0.8393,-0.8836,-0.9425,-0.9721,-0.9926,-1.0257,-1.0907,-1.1345,0.9731,0.9824,0.9796,0.9682,0.9291,0.8747,0.8035,0.7595,0.716,0.6545,0.6339,0.6333,0.6545,0.6605,0.6806,0.7388,0.7606,0.7992,0.8818,0.9052,0.9269,0.9639,0.9688,0.9788,1.0104,0.9686,0.9457,0.9879,0.9446,0.9302,0.9302,0.9302,0.9302,0.9302,0.9302,0.9302,0.9302,0.9302,0.9302,0.9302,0.9302,0.9302,0.9302,0.9302,0.9302,0.9302,0.9302,0.0,0.0,1.0167,1.0455,1.0599,1.1332,1.1619,1.1619,1.1619,1.1619,1.1619,1.1606,1.1497,1.1369,1.1355,1.0926,1.0585,1.0717,1.0452,1.006,1.0193,1.006,0.9667,0.9279,0.9279,0.9146,0.8595,0.8451,0.8573,0.8584,0.859,0.8584,0.8573,0.8579,0.7332,0.3282,0.2881,0.2076,-0.1139,-0.189,-0.2005,-0.1979,-0.219,-0.2284,-0.2159,-0.2575,-0.2913,-0.336,-0.3572,-0.4015,-0.4708,-0.5219,-0.5855,-0.6754,-0.7332,-0.7885,-0.8565,-0.8555,-0.8883,-0.9582,-0.9772,-0.9926,-1.0366,-1.1126,-1.1573,0.9617,0.9786,0.9813,0.9699,0.9307,0.8764,0.8035,0.7595,0.7165,0.6562,0.6399,0.6399,0.6491,0.6507,0.6611,0.6926,0.7018,0.7317,0.8089,0.8301,0.8617,0.9269,0.978,1.0111,1.0064,1.0099,0.9879,0.959,0.9446,0.9302,0.9302,0.9302,0.9302,0.9302,0.9302,0.9302,0.9302,0.9302,0.9302,0.9302,0.9302,0.9302,0.9302,0.9302,0.9302,0.9302,0.9302,0.0,0.0,1.0311,1.0743,1.1181,1.1476,1.1619,1.1619,1.1619,1.1619,1.1619,1.1332,1.109,1.1107,1.1107,1.0593,1.0175,1.0443,1.0257,0.9927,0.9927,0.9655,0.9256,0.9262,0.8995,0.8867,0.86,0.8595,0.859,0.859,0.859,0.859,0.859,0.7469,0.5572,0.2656,0.0919,-0.052,-0.1814,-0.2057,-0.2035,-0.2005,-0.2204,-0.2531,-0.2652,-0.2979,-0.321,-0.3372,-0.4076,-0.4637,-0.5178,-0.5788,-0.6393,-0.7236,-0.7633,-0.8072,-0.8568,-0.893,-0.9427,-0.9942,-1.0107,-1.0524,-1.097,-1.1406,-1.1682,0.9421,0.9671,0.9758,0.9644,0.9253,0.872,0.803,0.7568,0.7122,0.6551,0.641,0.6399,0.6431,0.641,0.6437,0.6594,0.6681,0.6942,0.7562,0.7807,0.816,0.8791,0.9376,0.9953,1.0029,1.036,1.0227,0.9356,0.9323,0.9302,0.9302,0.9302,0.9302,0.9302,0.9302,0.9302,0.9302,0.9302,0.9302,0.9302,0.9302,0.9302,0.9302,0.9302,0.9302,0.9302,0.9302,0.0,0.0,1.0455,1.0894,1.1476,1.1619,1.1619,1.1619,1.1619,1.1619,1.1476,1.1188,1.098,1.0889,1.0747,1.0302,0.9829,1.006,0.9795,0.9528,0.9528,0.9256,0.8978,0.8944,0.8668,0.853,0.8492,0.8481,0.8492,0.853,0.8535,0.8546,0.8451,0.6523,0.4378,0.2543,-0.0132,-0.2095,-0.2108,-0.2091,-0.2067,-0.2164,-0.236,-0.2684,-0.3037,-0.3507,-0.385,-0.3831,-0.441,-0.5083,-0.5839,-0.6203,-0.6791,-0.7721,-0.7937,-0.8282,-0.8765,-0.9279,-0.9807,-1.0235,-1.0424,-1.0852,-1.1414,-1.1611,-1.2064,0.9144,0.9487,0.9644,0.9519,0.9128,0.8617,0.8008,0.7502,0.7018,0.6535,0.635,0.6306,0.6415,0.6344,0.635,0.6584,0.6823,0.7105,0.747,0.7828,0.81,0.8231,0.8557,0.9097,1.0052,1.0425,1.0363,0.9487,0.9372,0.0,0.9302,0.9302,0.9302,0.9302,0.9302,0.9302,0.9302,0.9302,0.9302,0.9302,0.9302,0.9302,0.9302,0.9302,0.9302,0.9302,0.0,0.0,0.0,1.0311,1.075,1.1044,1.1476,1.1619,1.1619,1.1619,1.1619,1.1476,1.1188,1.1044,1.0894,1.0599,1.0078,0.9671,0.9544,0.9319,0.9117,0.9117,0.8851,0.8562,0.8448,0.8421,0.8388,0.8269,0.8242,0.8274,0.8394,0.8421,0.8322,0.8169,0.6443,0.4562,0.2954,-0.0,-0.2143,-0.2114,-0.2109,-0.2229,-0.2585,-0.2802,-0.3137,-0.346,-0.4258,-0.479,-0.4715,-0.4637,-0.5169,-0.6308,-0.6322,-0.6821,-0.7937,-0.8048,-0.8549,-0.9596,-0.9453,-0.9868,-1.064,-1.0599,-1.0852,-1.1414,-1.1638,-1.2635,0.8334,0.8682,0.8883,0.8682,0.8519,0.8247,0.7644,0.7323,0.6997,0.6437,0.6295,0.6279,0.6317,0.629,0.6399,0.6806,0.6937,0.7111,0.747,0.7999,0.8381,0.8591,0.9585,1.0364,1.059,1.0639,1.0369,0.9634,0.9372,0.9302,0.9302,0.9302,0.9302,0.9302,0.9302,0.9302,0.9302,0.9302,0.9302,0.9302,0.9302,0.9302,0.9302,0.9302,0.9302,0.0,0.0,0.0,0.0,1.075,1.0894,1.1044,1.1188,1.1038,1.0894,1.0894,1.0894,1.075,1.0462,1.0317,1.0173,1.0167,0.9598,0.9142,0.9376,0.9251,0.8828,0.8745,0.8662,0.8465,0.8426,0.8356,0.8285,0.8247,0.8301,0.8372,0.841,0.8481,0.8143,0.684,0.5098,0.322,0.1477,-0.0672,-0.2286,-0.2543,-0.2541,-0.2661,-0.3017,-0.3233,-0.3424,-0.3465,-0.4258,-0.479,-0.4712,-0.5446,-0.6079,-0.6655,-0.7001,-0.7487,-0.8263,-0.8374,-0.8732,-0.9446,-0.9836,-1.0144,-1.0591,-1.111,-1.1473,-1.1881,-1.2682,-1.3407,0.7839,0.8214,0.8421,0.8274,0.81,0.7856,0.7432,0.7138,0.6834,0.6415,0.6295,0.6279,0.6323,0.6295,0.6382,0.6719,0.6931,0.7095,0.7343,0.7965,0.8623,0.9098,1.0216,1.0887,1.0679,1.0834,1.0494,0.9706,0.9443,0.9351,0.9307,0.9302,0.9302,0.9302,0.9302,0.9302,0.9302,0.9302,0.9302,0.9302,0.9302,0.9302,0.9302,0.9302,0.9302,0.0,0.0,0.0,0.0,1.0606,1.075,1.1044,1.0894,1.075,1.0455,1.0455,1.0455,1.0455,1.0023,0.9879,0.9873,0.9684,0.922,0.8883,0.9159,0.8933,0.8687,0.8606,0.8535,0.847,0.8432,0.8361,0.8291,0.8247,0.8291,0.8361,0.841,0.8338,0.8,0.6569,0.4559,0.255,0.1209,-0.0942,-0.2425,-0.2694,-0.2828,-0.2954,-0.3326,-0.3541,-0.3734,-0.415,-0.48,-0.5301,-0.542,-0.6138,-0.6764,-0.7111,-0.7561,-0.7937,-0.8484,-0.8595,-0.8927,-0.9485,-1.0017,-1.0439,-1.086,-1.1532,-1.2244,-1.2979,-1.3795,-1.4722,0.0,0.7954,0.8133,0.8122,0.779,0.7437,0.7312,0.6937,0.0,0.6453,0.6339,0.6306,0.6415,0.6344,0.6317,0.6464,0.6872,0.7205,0.7304,0.7927,0.8854,0.9788,1.0365,1.0747,1.0398,1.0848,1.0708,0.9827,0.9557,0.9432,0.9313,0.9302,0.9302,0.9302,0.9302,0.9302,0.9302,0.9302,0.9302,0.9302,0.9302,0.9302,0.9302,0.9302,0.9302,0.0,0.0,0.0,0.0,1.0023,1.0317,1.09,1.0599,1.0455,1.0455,1.0455,1.0455,1.0311,1.0023,0.9873,0.9701,0.9292,0.8954,0.8769,0.8758,0.8677,0.859,0.859,0.8584,0.8552,0.8443,0.841,0.8378,0.8263,0.8242,0.828,0.8394,0.816,0.7666,0.6965,0.4565,0.2417,0.1613,-0.0807,-0.2694,-0.2828,-0.3096,-0.3362,-0.3902,-0.3858,-0.4199,-0.5171,-0.5655,-0.6094,-0.6612,-0.6839,-0.7106,-0.7777,-0.7997,-0.8152,-0.8595,-0.8816,-0.9258,-0.9816,-1.0147,-1.0785,-1.1526,-1.2087,-1.3174,-1.4548,-1.5217,-1.6287,0.6861,0.0,0.7116,0.7024,0.6986,0.6937,0.0,0.6703,0.6562,0.635,0.6285,0.6306,0.6415,0.6344,0.6426,0.691,0.716,0.742,0.7795,0.8867,1.0116,1.1186,1.159,1.1547,1.114,1.1109,1.0708,0.9827,0.9557,0.9432,0.9313,0.9302,0.9302,0.9302,0.9302,0.9302,0.9302,0.9302,0.9302,0.9302,0.9302,0.9302,0.9302,0.9302,0.9302,0.0,0.0,0.0,1.0023,1.0311,1.0311,1.0167,1.0023,0.9879,0.959,0.959,0.959,0.959,0.9446,0.9391,0.928,0.8927,0.8818,0.8753,0.866,0.8611,0.859,0.859,0.8524,0.8454,0.8426,0.835,0.8269,0.8242,0.8307,0.8253,0.8013,0.8086,0.7488,0.5633,0.3892,0.2148,0.0269,-0.148,-0.2828,-0.3499,-0.3633,-0.4037,-0.4842,-0.4964,-0.5325,-0.6035,-0.6502,-0.6803,-0.7075,-0.7338,-0.7635,-0.7985,-0.8171,-0.8595,-0.9154,-0.9265,-0.9596,-1.0147,-1.0696,-1.1652,-1.3053,-1.3396,-1.4396,-1.5827,-1.6617,-1.7116,0.6535,0.6709,0.6872,0.6801,0.6796,0.6785,0.6719,0.6616,0.6502,0.6372,0.6344,0.6366,0.6426,0.6537,0.6743,0.6855,0.7371,0.8055,0.8848,0.9729,1.0692,1.1721,1.1965,1.1874,0.0,1.1146,1.0708,0.9827,0.9557,0.9432,0.9313,0.9302,0.9302,0.9302,0.9302,0.9302,0.9302,0.9302,0.9302,0.9302,0.9302,0.9302,0.9302,0.9302,0.9302,0.0,0.0,0.0,0.9879,0.9879,0.9879,0.9879,0.9735,0.9446,0.9302,0.9302,0.9302,0.9302,0.9302,0.9193,0.9019,0.8834,0.8731,0.8677,0.8606,0.859,0.859,0.859,0.8546,0.8497,0.8497,0.8448,0.8394,0.8138,0.8186,0.8101,0.7837,0.7616,0.6982,0.4967,0.3222,0.161,-0.0403,-0.2153,-0.3365,-0.3768,-0.4171,-0.4708,-0.5379,-0.5615,-0.6121,-0.6775,-0.7117,-0.7431,-0.775,-0.8106,-0.8317,-0.8282,-0.8491,-0.8933,-0.9375,-0.9485,-1.0139,-1.1446,-1.1882,-1.291,-1.432,-1.4864,-1.5875,-1.7331,-1.7808,-1.8429,0.6458,0.6807,0.7163,0.691,0.6839,0.6768,0.6752,0.6584,0.6437,0.6437,0.6437,0.6448,0.6486,0.689,0.709,0.695,0.7826,0.8904,0.9929,1.034,1.0934,1.1769,1.2006,1.1894,1.1368,1.1134,1.0702,0.9799,0.9546,0.9432,0.9313,0.9302,0.9302,0.9302,0.9302,0.9302,0.9302,0.9302,0.9302,0.9302,0.9302,0.9302,0.9302,0.9302,0.9302,0.9302,0.0,0.0,0.9735,0.9446,0.9446,0.9735,0.9446,0.9302,0.9302,0.9302,0.9302,0.9296,0.9264,0.9106,0.8905,0.878,0.8671,0.859,0.859,0.859,0.859,0.859,0.859,0.859,0.859,0.859,0.8456,0.8189,0.8056,0.7922,0.7526,0.7254,0.6447,0.4836,0.2954,0.1074,-0.0672,-0.2554,-0.3902,-0.4037,-0.4842,-0.551,-0.5633,-0.6101,-0.6736,-0.7592,-0.7811,-0.8023,-0.8528,-0.889,-0.8923,-0.8654,-0.8836,-0.9265,-0.9816,-1.0139,-1.1118,-1.3068,-1.3393,-1.4352,-1.5731,-1.6262,-1.7331,-1.8708,-1.8902,-1.9746,0.6562,0.7223,0.7713,0.6771,0.6584,0.6622,0.6518,0.6464,0.6437,0.6437,0.6437,0.6497,0.7015,0.7177,0.744,0.81,0.8985,0.9895,1.0391,1.0953,1.1443,1.1965,1.2162,1.2119,1.1708,1.1237,1.0812,1.0121,0.9645,0.9432,0.9313,0.9302,0.9302,0.9302,0.9302,0.9302,0.9302,0.9302,0.9302,0.9302,0.9302,0.9302,0.9302,0.9302,0.9302,0.9302,0.0,0.9302,0.9446,0.9302,0.9302,0.9446,0.9302,0.9302,0.9302,0.9302,0.9302,0.9275,0.9073,0.8916,0.878,0.8655,0.86,0.859,0.859,0.859,0.859,0.859,0.859,0.859,0.859,0.8456,0.8189,0.8056,0.7794,0.7526,0.7121,0.6987,0.6585,0.5513,0.3224,0.1208,0.0,-0.2151,-0.4171,-0.4977,-0.5245,-0.5756,-0.6876,-0.7112,-0.7466,-0.8419,-0.8413,-0.8647,-0.9136,-0.8991,-0.9096,-0.9469,-0.9335,-1.0029,-1.1546,-1.2091,-1.296,-1.4256,-1.4781,-1.5731,-1.7226,-1.7555,-1.8617,-2.0205,-2.0205,-2.0704,0.6507,0.722,0.7742,0.7142,0.7293,0.7533,0.7467,0.6987,0.6632,0.6632,0.6632,0.6769,0.7089,0.766,0.8274,0.9374,0.9901,1.0247,1.0873,1.1114,1.1525,0.0,0.0,1.2018,1.156,1.1189,1.0649,1.0081,0.9719,0.9362,0.9307,0.9302,0.9302,0.9302,0.9302,0.9302,0.9302,0.9302,0.9302,0.9302,0.9302,0.9302,0.9302,0.9302,0.9302,0.9302,0.0,0.9302,0.9302,0.9302,0.9302,0.9302,0.9302,0.9302,0.9296,0.9237,0.9209,0.9177,0.8938,0.8818,0.8753,0.8628,0.859,0.859,0.859,0.859,0.859,0.859,0.859,0.859,0.859,0.8323,0.8056,0.7794,0.7522,0.7121,0.6853,0.6451,0.5778,0.4434,0.2283,0.0269,-0.0941,-0.3092,-0.4842,-0.5379,-0.6011,-0.6647,-0.7313,-0.7687,-0.8114,-0.8711,-0.8925,-0.915,-0.9335,-0.9433,-0.9483,-0.9503,-1.0288,-1.1227,-1.22,-1.3176,-1.446,-1.5968,-1.638,-1.7226,-1.8708,-1.9138,-1.9776,-2.0514,-2.0925,-2.1318,0.6513,0.7178,0.7814,0.7672,0.7923,0.8265,0.8433,0.801,0.7594,0.7362,0.7551,0.7732,0.7654,0.8431,0.9348,1.0317,1.0632,1.0743,1.124,1.1369,1.1538,1.1803,1.1938,1.1858,1.1411,1.1013,1.0498,1.0029,0.9646,0.9302,0.9302,0.9302,0.9302,0.9302,0.9302,0.9302,0.9302,0.9302,0.9302,0.9302,0.9302,0.9302,0.9302,0.9302,0.9302,0.9302,0.9302,0.9302,0.9302,0.9302,0.9302,0.9302,0.9302,0.9302,0.9291,0.9177,0.9117,0.9063,0.8845,0.8753,0.8715,0.8617,0.859,0.859,0.859,0.859,0.859,0.8456,0.8456,0.8456,0.8456,0.8189,0.7927,0.7526,0.7121,0.6853,0.6589,0.5915,0.4977,0.3761,0.1746,-0.0,-0.1345,-0.3495,-0.5111,-0.5245,-0.639,-0.7412,-0.77,-0.8258,-0.8643,-0.8916,-0.9255,-0.9601,-0.9529,-0.9926,-1.0069,-1.0059,-1.1227,-1.2408,-1.3275,-1.446,-1.5861,-1.7463,-1.7871,-1.8603,-1.9776,-2.0308,-2.0514,-2.0617,-2.1318,-2.1725,0.6747,0.7321,0.7917,0.8201,0.8175,0.8145,0.8684,0.9415,0.9781,0.9048,0.9731,1.0263,0.9255,0.9757,1.0473,1.067,1.1185,1.1565,1.1586,0.0,1.166,1.1816,1.1843,1.1703,1.141,1.0957,1.0462,0.9902,0.9596,0.9302,0.9302,0.9302,0.9302,0.9302,0.9302,0.9302,0.9302,0.9302,0.9302,0.9302,0.9302,0.9302,0.9302,0.9302,0.9302,0.9302,0.9302,0.9302,0.9302,0.9302,0.9302,0.9302,0.9302,0.9302,0.9291,0.9177,0.9063,0.8948,0.8812,0.8698,0.86,0.859,0.859,0.859,0.859,0.859,0.859,0.8189,0.8189,0.8189,0.8189,0.7794,0.7393,0.7121,0.6719,0.6585,0.6455,0.5915,0.5111,0.4434,0.2687,0.121,0.0404,-0.2017,-0.4163,-0.4699,-0.6301,-0.77,-0.8542,-0.862,-0.8896,-0.9284,-0.9239,-0.9486,-0.9799,-1.0099,-1.0736,-1.1791,-1.1982,-1.3166,-1.5861,-1.638,-1.7239,-1.8764,-1.9272,-1.9672,-2.0086,-2.0411,-2.0617,-2.0925,-2.142,-2.1928,0.678,0.8364,0.9943,0.8666,0.9272,1.0239,1.0654,1.071,1.0989,1.2142,1.2614,1.2662,1.137,1.1554,1.1622,1.109,1.1423,1.1721,1.1633,1.1619,1.164,1.1694,1.1701,1.1556,1.1121,1.0825,1.0366,0.9885,0.959,0.9302,0.9302,0.9302,0.9302,0.9302,0.9302,0.9302,0.9302,0.9302,0.9302,0.9302,0.9302,0.9302,0.9302,0.9302,0.9302,0.9302,0.9302,0.9264,0.9204,0.9275,0.9264,0.9204,0.9275,0.9258,0.9182,0.9063,0.8943,0.8823,0.8698,0.8628,0.859,0.859,0.859,0.859,0.8323,0.8323,0.8189,0.7794,0.7794,0.7794,0.7794,0.7522,0.7121,0.6987,0.6719,0.6321,0.5915,0.5245,0.4437,0.3765,0.2017,0.0269,-0.0941,-0.2399,-0.4105,-0.6097,-0.7178,-0.8119,-0.8614,-0.8729,-0.8995,-0.9347,-0.9754,-1.006,-1.033,-1.0532,-1.1394,-1.3521,-1.3599,-1.446,-1.6499,-1.7569,-1.8436,-1.9182,-1.9672,-1.9983,-2.0086,-2.0514,-2.1027,-2.142,-2.1928,-2.2535,0.7763,0.9445,1.101,0.9677,1.0412,1.1872,1.3031,1.2733,1.2902,1.464,1.4481,1.3813,1.2841,1.2289,1.1948,1.1324,1.1531,1.1748,1.1694,1.1647,1.1619,1.1619,1.1476,1.1332,1.0894,1.0455,1.0167,0.9735,0.9446,0.0,0.0,0.9302,0.9302,0.9302,0.9302,0.9302,0.9302,0.9302,0.9302,0.9302,0.9269,0.9269,0.9302,0.9302,0.9302,0.9302,0.9264,0.9204,0.9139,0.9177,0.9171,0.9144,0.9258,0.9237,0.9117,0.8997,0.8872,0.8753,0.8628,0.859,0.859,0.859,0.859,0.8456,0.8189,0.8056,0.7794,0.7393,0.7388,0.7254,0.7259,0.7121,0.6849,0.6585,0.6317,0.5915,0.5245,0.4437,0.3765,0.3362,0.1884,0.0134,-0.1736,-0.3041,-0.4458,-0.6532,-0.7699,-0.8506,-0.8931,-0.9032,-0.9303,-0.9724,-0.9964,-1.0361,-1.067,-1.0716,-1.1898,-1.4493,-1.4793,-1.5636,-1.7345,-1.8331,-1.9078,-1.9376,-1.9879,-2.0189,-2.0189,-2.0806,-2.1318,-2.1725,-2.2434,-2.2937,0.9753,1.0373,1.0875,1.1256,1.1655,1.2662,1.5523,1.5503,1.5329,1.6387,1.4982,1.3568,1.3394,1.2022,1.105,1.1341,1.1518,1.1667,1.1809,1.1708,1.1619,1.1619,1.1188,1.0894,1.0599,1.0167,0.9735,0.9302,0.0,0.0,0.0,0.9302,0.9302,0.9302,0.9302,0.9302,0.9302,0.9302,0.9302,0.9302,0.9188,0.9193,0.9302,0.9302,0.9302,0.9296,0.9182,0.9133,0.9122,0.8997,0.9024,0.9144,0.9258,0.9231,0.9117,0.8997,0.8872,0.8753,0.8628,0.859,0.859,0.859,0.8323,0.8056,0.8056,0.7794,0.7393,0.7121,0.6982,0.6853,0.6585,0.6719,0.6719,0.5647,0.5379,0.5245,0.4437,0.3765,0.3228,0.3499,0.2827,0.134,-0.1451,-0.3553,-0.5102,-0.5917,-0.7576,-0.8949,-0.9443,-0.9555,-0.9744,-1.02,-1.0172,-1.0252,-1.0663,-1.0834,-1.1988,-1.4482,-1.5102,-1.6499,-1.8764,-1.8869,-1.9182,-1.9687,-1.9983,-2.0189,-2.0514,-2.1318,-2.1725,-2.1725,-2.282,-2.332,0.9838,1.1281,1.2441,1.211,1.3519,1.5523,1.7033,1.723,1.7602,1.9782,1.8534,1.6757,1.5569,1.3863,0.0,1.1372,1.145,1.1633,1.1674,1.1647,1.1619,1.1619,1.1188,1.0894,1.0599,1.0167,0.9735,0.9302,0.0,0.0,0.0,0.9302,0.9302,0.9302,0.9302,0.9302,0.9302,0.9302,0.9264,0.9182,0.915,0.9193,0.9296,0.9133,0.9106,0.9177,0.9057,0.8959,0.8878,0.884,0.8894,0.9008,0.9041,0.8981,0.8872,0.884,0.8747,0.8638,0.86,0.8456,0.8189,0.8189,0.7927,0.766,0.7388,0.7254,0.6987,0.6049,0.5915,0.5781,0.5108,0.4973,0.5108,0.5379,0.4977,0.4437,0.3631,0.3497,0.3362,0.2692,0.2405,0.1323,-0.1445,-0.5171,-0.7653,-0.7723,-0.8403,-0.8958,-0.9284,-0.9767,-1.0236,-1.055,-1.0651,-1.0832,-1.1356,-1.2063,-1.3177,-1.5007,-1.6062,-1.7252,-1.8869,-1.9078,-1.9376,-1.9672,-1.9983,-2.0189,-2.0514,-2.1318,-2.1928,-2.2333,-2.302,-2.3538,1.1143,1.2873,1.444,1.4445,1.5839,1.7337,1.7981,1.886,1.981,2.0819,1.93,1.7398,1.5799,1.3891,0.0,1.1489,1.1497,1.1619,1.1619,1.1619,1.1476,1.1332,1.1044,1.0606,1.0311,0.9879,0.959,0.0,0.0,0.0,0.0,0.9302,0.9302,0.9302,0.9302,0.9302,0.9302,0.9302,0.9247,0.9133,0.9084,0.9101,0.916,0.9014,0.8992,0.9057,0.8932,0.8812,0.8704,0.8753,0.8812,0.8883,0.8932,0.8878,0.8769,0.8769,0.8693,0.8456,0.8456,0.8189,0.7927,0.7927,0.766,0.7254,0.7121,0.6719,0.6183,0.5647,0.5245,0.4839,0.4434,0.415,0.4139,0.4431,0.4303,0.3765,0.2961,0.2961,0.2827,0.2289,0.0931,-0.0787,-0.2735,-0.6392,-0.8937,-0.8859,-0.9148,-0.9457,-0.97,-1.0186,-1.0642,-1.0823,-1.0902,-1.1081,-1.1591,-1.2506,-1.3853,-1.5316,-1.6605,-1.7793,-1.8974,-1.9168,-1.948,-1.9879,-1.9983,-2.0292,-2.0617,-2.142,-2.2131,-2.2535,-2.352,-2.4214,1.3018,1.4652,1.6402,1.7322,1.7901,1.8383,1.8556,2.0267,2.1296,1.9854,1.79,1.6094,1.4801,1.285,1.147,1.1599,1.1619,1.1619,1.1619,1.1619,1.1476,1.1044,1.075,1.0311,1.0023,0.959,0.0,0.0,0.0,0.0,0.0,0.9302,0.9302,0.9302,0.9302,0.9296,0.9291,0.9291,0.9226,0.9101,0.8986,0.8927,0.8916,0.8916,0.8916,0.891,0.8802,0.8687,0.8595,0.8709,0.8753,0.8764,0.8872,0.8851,0.8753,0.8753,0.8418,0.8056,0.8056,0.7794,0.7393,0.7393,0.7254,0.6987,0.6853,0.6183,0.5379,0.5245,0.4705,0.4166,0.416,0.3855,0.3435,0.3074,0.3216,0.3218,0.228,0.2012,0.1878,0.1744,-0.1323,-0.4174,-0.5144,-0.7486,-0.9262,-0.9361,-0.9943,-1.0308,-1.0308,-1.0664,-1.0846,-1.1043,-1.0864,-1.1036,-1.1431,-1.2769,-1.404,-1.5316,-1.6922,-1.8213,-1.9272,-1.9376,-1.9583,-2.0086,-2.0086,-2.0395,-2.0925,-2.1725,-2.2232,-2.2535,-2.4097,-2.5001,1.2699,1.4173,1.5875,1.7469,1.807,1.8776,2.0134,2.0101,1.9344,1.7772,1.6204,1.4914,1.4367,1.2954,1.1708,1.1633,1.1619,1.1619,1.1619,1.1619,1.1619,1.1476,1.0894,1.0455,1.0311,0.9735,0.0,0.0,0.0,0.0,0.9302,0.9302,0.9302,0.9302,0.9302,0.9264,0.9171,0.9171,0.9063,0.0,0.8823,0.8758,0.8666,0.8666,0.8666,0.8666,0.8638,0.8611,0.859,0.8617,0.8628,0.8628,0.8655,0.8649,0.8628,0.836,0.821,0.8056,0.7794,0.7388,0.7121,0.7121,0.6853,0.6451,0.5915,0.5647,0.5111,0.4034,0.3497,0.3354,0.2787,0.2641,0.2368,0.1695,0.2083,0.2343,0.1562,0.0911,-0.0,-0.2079,-0.3727,-0.5467,-0.7854,-0.9001,-0.9761,-1.0072,-1.0422,-1.0664,-1.0664,-1.1027,-1.1207,-1.1398,-1.1446,-1.1608,-1.2105,-1.3842,-1.5209,-1.5755,-1.7779,-1.9168,-1.9583,-1.9569,-1.9776,-2.0086,-2.0308,-2.0617,-2.0925,-2.1522,-2.203,-2.2518,-2.3899,-2.4786,1.3297,1.4752,1.6611,1.838,1.9217,1.9575,1.9701,1.926,1.8338,1.6894,1.6547,1.6149,1.4455,1.4075,1.3411,1.1914,1.2187,1.2466,1.1763,1.1619,1.1476,1.1181,1.0743,1.0311,1.0023,0.959,0.0,0.0,0.0,0.9302,0.9302,0.9302,0.9302,0.9302,0.9253,0.9193,0.9133,0.9079,0.8954,0.8769,0.8769,0.8704,0.859,0.859,0.859,0.859,0.859,0.859,0.859,0.859,0.859,0.859,0.859,0.8456,0.8323,0.8189,0.7922,0.7522,0.7388,0.6987,0.6719,0.6719,0.6451,0.5915,0.5513,0.4842,0.4171,0.3631,0.308,0.266,0.2245,0.2219,0.1935,0.0895,0.1413,0.1936,0.0903,-0.0129,-0.1677,-0.4251,-0.5474,-0.6804,-0.9324,-1.0067,-1.0322,-1.055,-1.0793,-1.1027,-1.1027,-1.1319,-1.1565,-1.162,-1.1667,-1.182,-1.2183,-1.4104,-1.553,-1.5861,-1.7989,-1.9376,-1.9687,-1.9776,-1.9983,-2.0292,-2.0411,-2.0617,-2.0925,-2.1318,-2.1827,-2.2535,-2.4196,-2.5275,1.3953,1.5655,1.7708,1.9398,2.0071,2.0027,1.8916,1.8487,1.8057,1.7067,1.7672,1.7398,1.4533,1.4971,1.4867,1.2043,1.261,1.3031,1.1763,1.1619,1.1325,1.0599,1.0599,1.0167,0.9446,0.9302,0.0,0.0,0.0,0.9302,0.9302,0.9285,0.9275,0.9275,0.916,0.909,0.9073,0.897,0.8861,0.8742,0.8742,0.8687,0.859,0.859,0.859,0.859,0.859,0.859,0.859,0.859,0.859,0.859,0.859,0.8456,0.8056,0.8056,0.7522,0.6982,0.6987,0.6585,0.6321,0.6321,0.5781,0.5245,0.5111,0.4163,0.3218,0.3352,0.2655,0.2099,0.2226,0.2059,0.1515,0.0126,0.0635,0.1153,0.0128,-0.1281,-0.3203,-0.5631,-0.6958,-0.8392,-1.028,-1.0775,-1.0906,-1.0906,-1.1156,-1.1382,-1.135,-1.17,-1.1879,-1.1774,-1.1846,-1.1895,-1.2019,-1.4137,-1.5636,-1.5968,-1.8094,-1.948,-1.9791,-2.0086,-2.0308,-2.0514,-2.0514,-2.0719,-2.0925,-2.1216,-2.1725,-2.2518,-2.4473,-2.5741,1.3224,1.5505,1.836,1.9289,1.8967,1.8638,1.9769,1.9061,1.8364,1.9484,1.7993,1.5895,1.4198,1.4039,1.3595,1.19,1.1756,1.1907,1.1619,1.1619,1.1476,1.1044,1.075,1.0311,0.9879,0.9446,0.0,0.0,0.9302,0.9302,0.9302,0.9209,0.9155,0.9155,0.9041,0.8927,0.8818,0.8802,0.8731,0.8611,0.8611,0.86,0.859,0.859,0.859,0.859,0.859,0.859,0.859,0.859,0.859,0.859,0.859,0.8456,0.8056,0.766,0.7388,0.6987,0.6719,0.6183,0.5517,0.5517,0.5108,0.4303,0.3631,0.3468,0.3435,0.2643,0.1831,0.1419,0.2039,0.1267,0.0,-0.1367,-0.1613,-0.1367,-0.0994,-0.2607,-0.4837,-0.6699,-0.8523,-1.0093,-1.0708,-1.105,-1.1269,-1.1269,-1.1526,-1.1719,-1.1786,-1.1862,-1.1953,-1.2167,-1.2217,-1.2228,-1.2346,-1.4471,-1.5956,-1.6262,-1.8394,-1.9894,-2.0411,-2.0411,-2.0617,-2.0822,-2.0822,-2.0822,-2.0925,-2.142,-2.1928,-2.2518,-2.4669,-2.5954,1.4371,1.6156,1.8094,1.9193,1.9232,1.9078,2.0071,1.9605,1.9229,1.9915,1.9153,1.8101,1.6685,1.7127,1.6705,1.346,1.3595,1.3595,1.1907,1.1476,1.1188,1.075,1.0455,1.0,0.9501,0.9352,0.0,0.0,0.9106,0.9106,0.9106,0.9057,0.903,0.903,0.8916,0.8823,0.8769,0.8704,0.8638,0.859,0.859,0.859,0.859,0.859,0.859,0.859,0.859,0.859,0.859,0.859,0.859,0.859,0.8456,0.8056,0.766,0.7388,0.6987,0.6719,0.6589,0.6049,0.5379,0.5379,0.4574,0.3624,0.3464,0.3177,0.2762,0.2351,0.1935,0.14,0.0127,-0.0628,-0.1245,-0.1856,-0.2222,-0.2467,-0.2835,-0.3943,-0.554,-0.7744,-0.9572,-1.0914,-1.1269,-1.1518,-1.1639,-1.2001,-1.2001,-1.2055,-1.2115,-1.2229,-1.2285,-1.2347,-1.2321,-1.254,-1.2891,-1.49,-1.6274,-1.6698,-1.8708,-2.0086,-2.0514,-2.0514,-2.0617,-2.0925,-2.0925,-2.1027,-2.1318,-2.1623,-2.2131,-2.302,-2.4865,-2.5954,1.4956,1.6163,1.7286,1.8541,1.9072,1.9386,1.9869,1.9869,1.9784,1.9784,1.9989,1.9959,1.8899,1.9404,1.871,1.4877,1.4859,1.4578,1.2201,1.1355,1.0798,1.04,0.9947,0.9621,0.9139,0.9106,0.0,0.0,0.8954,0.8954,0.8954,0.8921,0.8905,0.8905,0.8785,0.8725,0.8725,0.8633,0.859,0.859,0.859,0.859,0.859,0.859,0.859,0.859,0.859,0.859,0.859,0.859,0.859,0.8456,0.8189,0.7789,0.7388,0.7121,0.6853,0.6455,0.6321,0.5781,0.5108,0.4955,0.4014,0.2937,0.3159,0.2615,0.1953,0.219,0.1653,0.0628,-0.1507,-0.1993,-0.1977,-0.1977,-0.259,-0.3451,-0.4797,-0.5655,-0.6757,-0.9067,-1.0536,-1.1518,-1.1993,-1.201,-1.213,-1.2603,-1.244,-1.2345,-1.239,-1.2542,-1.2456,-1.2367,-1.254,-1.2772,-1.3207,-1.5221,-1.6698,-1.7134,-1.9138,-2.0292,-2.0617,-2.0617,-2.0719,-2.0925,-2.1027,-2.1318,-2.1725,-2.1827,-2.2518,-2.3619,-2.5178,-2.6244,1.3773,1.4787,1.5861,1.6948,1.7974,1.8794,1.9072,1.9326,1.9495,1.9495,1.9712,1.9905,1.9783,1.888,1.757,1.5583,1.419,1.3239,1.2681,1.1455,1.0404,0.9836,0.9602,0.9433,0.9122,0.903,0.0,0.0,0.8954,0.8954,0.8954,0.8845,0.878,0.878,0.866,0.8595,0.8595,0.859,0.859,0.859,0.859,0.859,0.859,0.859,0.859,0.859,0.859,0.859,0.859,0.859,0.8456,0.8056,0.8056,0.7655,0.6987,0.6982,0.6853,0.6455,0.5647,0.4977,0.4292,0.3574,0.2769,0.2106,0.2205,0.1664,0.1266,0.2024,0.025,-0.1855,-0.1979,-0.1978,-0.1977,-0.1977,-0.3204,-0.4797,-0.6385,-0.7728,-0.9188,-1.1261,-1.1752,-1.1993,-1.2595,-1.2603,-1.2724,-1.2724,-1.2566,-1.2381,-1.2533,-1.2447,-1.2367,-1.2365,-1.2891,-1.3315,-1.3315,-1.5648,-1.7134,-1.7437,-1.9346,-2.0617,-2.0822,-2.0925,-2.0925,-2.0925,-2.142,-2.1623,-2.1725,-2.2232,-2.312,-2.4492,-2.5858,-2.6839,1.3532,1.4183,1.498,1.6054,1.6875,1.7612,1.8396,1.8903,1.9217,1.9217,1.9567,1.9784,1.9434,1.9314,1.862,1.7027,1.5372,1.4019,1.2795,1.1013,0.9799,0.9567,0.9254,0.9076,0.8905,0.8861,0.0,0.0,0.0,0.872,0.872,0.8677,0.8655,0.8655,0.8611,0.859,0.859,0.859,0.859,0.859,0.859,0.859,0.859,0.859,0.859,0.859,0.859,0.859,0.859,0.859,0.8456,0.8056,0.7794,0.7388,0.6987,0.6719,0.6585,0.6455,0.5651,0.4973,0.4163,0.3475,0.2787,0.2104,0.2074,0.1916,0.1639,0.0999,-0.062,-0.1977,-0.1977,-0.1977,-0.2346,-0.3571,-0.5774,-0.785,-0.8824,-0.9923,-1.102,-1.1872,-1.2234,-1.2475,-1.2964,-1.2844,-1.2844,-1.3324,-1.304,-1.2723,-1.2859,-1.2777,-1.2571,-1.2465,-1.2772,-1.3521,-1.4578,-1.6168,-1.7647,-1.8826,-2.0086,-2.0822,-2.0925,-2.0925,-2.1027,-2.142,-2.1623,-2.1827,-2.2232,-2.2719,-2.3719,-2.5001,-2.6071,-2.6935,1.3061,1.3435,1.4039,1.5209,1.5765,1.6404,1.7829,1.8348,1.8638,1.9,1.9362,1.9531,1.9253,1.9434,1.934,1.826,1.5835,1.3823,1.3149,1.0995,0.9388,0.9297,0.8993,0.8812,0.8774,0.8736,0.8677,0.0,0.0,0.0,0.859,0.859,0.859,0.859,0.859,0.859,0.859,0.859,0.859,0.859,0.859,0.859,0.859,0.859,0.859,0.859,0.859,0.859,0.859,0.8456,0.8189,0.7927,0.7522,0.7121,0.6719,0.6317,0.6183,0.6049,0.4977,0.4303,0.3758,0.306,0.2506,0.2218,0.2046,0.2148,0.1752,-0.0124,-0.1111,-0.1729,-0.2099,-0.259,-0.3571,-0.5774,-0.7972,-0.968,-1.077,-1.1511,-1.1993,-1.2475,-1.2724,-1.2964,-1.3324,-1.3204,-1.3204,-1.3684,-1.3339,-1.2998,-1.3088,-1.3048,-1.2937,-1.2673,-1.3521,-1.4482,-1.5636,-1.7121,-1.8499,-1.9672,-2.0514,-2.0925,-2.0925,-2.1113,-2.1318,-2.1725,-2.203,-2.2518,-2.322,-2.352,-2.4412,-2.5684,-2.6532,-2.7315,0.0,0.0,0.0,1.4316,1.4666,1.5221,1.731,1.7612,1.7756,1.8819,1.9048,1.9132,1.941,1.9241,1.9072,1.9072,1.5294,1.2676,1.37,1.1087,0.9029,0.8753,0.866,0.8633,0.8753,0.866,0.0,0.0,0.859,0.859,0.859,0.859,0.859,0.859,0.859,0.8584,0.8584,0.8584,0.8584,0.8584,0.8584,0.859,0.859,0.859,0.859,0.859,0.859,0.859,0.859,0.8189,0.7794,0.7393,0.7121,0.6853,0.6455,0.5651,0.5379,0.5245,0.3765,0.3228,0.3078,0.2345,0.2064,0.2052,0.1994,0.1977,0.1358,-0.1235,-0.1482,-0.1235,-0.2344,-0.3817,-0.5774,-0.8587,-0.9552,-1.0279,-1.1872,-1.2234,-1.2475,-1.3084,-1.3204,-1.3324,-1.3684,-1.3693,-1.3684,-1.3684,-1.3325,-1.306,-1.3174,-1.3256,-1.3315,-1.3315,-1.5125,-1.6299,-1.6405,-1.8408,-1.9672,-1.9672,-2.0514,-2.0925,-2.0925,-2.142,-2.1725,-2.1725,-2.2736,-2.3719,-2.4492,-2.4492,-2.5178,-2.6552,-2.7315,-2.807,1.2361,0.0,0.0,0.0,0.0,0.0,1.5318,1.6127,1.6936,1.7986,1.8372,1.865,1.9096,1.8337,1.7496,1.7238,1.5014,1.3447,1.37,1.0822,0.8734,0.8633,0.8606,0.86,0.8633,0.8606,0.0,0.0,0.859,0.859,0.859,0.859,0.859,0.859,0.859,0.8546,0.8465,0.8546,0.8546,0.8465,0.8546,0.859,0.859,0.859,0.8456,0.8189,0.8189,0.8056,0.7789,0.8056,0.7655,0.7121,0.6987,0.6853,0.6455,0.5651,0.5379,0.5245,0.3765,0.3341,0.3307,0.2496,0.2197,0.2158,0.2141,0.0748,-0.0988,-0.173,-0.1853,-0.2099,-0.3574,-0.6018,-0.8337,-0.9431,-1.0649,-1.1744,-1.2715,-1.2964,-1.2964,-1.3204,-1.3444,-1.3564,-1.3684,-1.3693,-1.3636,-1.3495,-1.3587,-1.3581,-1.3526,-1.3696,-1.4159,-1.4793,-1.5541,-1.6605,-1.7962,-1.8812,-1.9657,-2.0514,-2.0822,-2.1113,-2.142,-2.1623,-2.203,-2.282,-2.3138,-2.3917,-2.5099,-2.5099,-2.5858,-2.7295,-2.807,-2.856,1.2578,1.2566,1.2699,1.2928,0.0,0.0,1.4871,1.5523,1.6199,1.7587,1.7998,1.8287,1.8819,1.8174,1.7368,1.7074,1.5216,1.3569,1.2783,1.0293,0.859,0.859,0.859,0.859,0.859,0.859,0.859,0.859,0.859,0.8568,0.8519,0.847,0.8443,0.8443,0.8443,0.841,0.8339,0.8405,0.8405,0.8345,0.8328,0.8249,0.8249,0.8169,0.8056,0.7794,0.7794,0.7655,0.7254,0.7522,0.7388,0.6982,0.6853,0.6451,0.5915,0.5245,0.469,0.4267,0.3201,0.2907,0.2869,0.2336,0.2178,0.2019,0.0752,-0.0746,-0.1977,-0.1977,-0.259,-0.3574,-0.5287,-0.7606,-0.968,-1.0642,-1.1623,-1.2595,-1.3084,-1.3324,-1.3444,-1.3444,-1.3564,-1.3693,-1.3693,-1.3618,-1.3641,-1.3752,-1.3814,-1.379,-1.3992,-1.432,-1.4708,-1.5221,-1.6287,-1.745,-1.8499,-1.9435,-2.0174,-2.0822,-2.113,-2.1318,-2.1725,-2.2131,-2.2619,-2.3338,-2.3538,-2.4239,-2.5506,-2.5682,-2.6451,-2.7772,-2.8061,-2.8265,1.2928,1.2952,1.323,1.3664,1.3097,0.0,1.5028,1.5221,1.5451,1.7129,1.7527,1.7744,1.8312,1.8275,1.7982,1.7304,1.5278,1.3126,1.16,0.9769,0.859,0.859,0.8579,0.8573,0.8584,0.8579,0.8568,0.8568,0.8557,0.8503,0.8405,0.8296,0.8236,0.8236,0.8236,0.8225,0.8214,0.8098,0.8103,0.8087,0.7946,0.7872,0.7893,0.7597,0.7517,0.7393,0.7379,0.724,0.6969,0.6956,0.696,0.6836,0.6573,0.5897,0.5222,0.4414,0.3718,0.3154,0.2366,0.2215,0.2184,0.2157,0.2019,0.1257,-0.124,-0.1977,-0.1977,-0.2222,-0.3694,-0.5529,-0.7235,-0.8824,-1.0415,-1.1993,-1.2595,-1.2844,-1.3204,-1.3444,-1.3684,-1.3655,-1.3674,-1.3684,-1.3775,-1.3622,-1.3723,-1.4119,-1.4004,-1.3961,-1.4492,-1.4853,-1.5148,-1.5256,-1.7147,-1.8422,-1.8527,-1.9983,-2.0925,-2.1027,-2.142,-2.1725,-2.1827,-2.282,-2.3338,-2.3438,-2.3998,-2.4773,-2.5698,-2.6384,-2.7098,-2.7938,-2.7523,-2.7545,1.3387,1.3242,1.3097,1.2964,1.3109,0.0,1.3049,1.3592,1.4304,1.4871,1.5342,1.5873,1.661,1.7068,1.6681,1.4761,1.3676,1.2969,1.2489,1.03,0.859,0.859,0.8508,0.8486,0.8579,0.8503,0.8448,0.8448,0.8361,0.8296,0.8274,0.8247,0.8236,0.8236,0.8236,0.8187,0.8089,0.7928,0.7801,0.7718,0.7571,0.7413,0.75,0.7388,0.7313,0.7116,0.7039,0.674,0.6469,0.6394,0.6406,0.6341,0.5818,0.5381,0.5066,0.3769,0.3375,0.3368,0.2462,0.2183,0.2157,0.2151,0.0626,-0.124,-0.1855,-0.1977,-0.2222,-0.3574,-0.541,-0.7235,-0.8939,-1.0521,-1.1993,-1.2844,-1.3084,-1.3204,-1.3564,-1.3684,-1.3646,-1.3476,-1.358,-1.3756,-1.4045,-1.4103,-1.4184,-1.4393,-1.4689,-1.4998,-1.4916,-1.5386,-1.5992,-1.6723,-1.7779,-1.8632,-1.9361,-2.0292,-2.113,-2.1522,-2.1623,-2.2131,-2.292,-2.3238,-2.3538,-2.4053,-2.4967,-2.5516,-2.5698,-2.7012,-2.7644,-2.7457,-2.7348,-2.737,1.3785,1.3713,1.3676,1.3532,0.0,0.0,0.0,1.3519,1.3894,1.457,1.4811,1.5077,1.5596,1.5922,1.5705,1.4272,1.3217,1.2542,1.249,1.0207,0.859,0.859,0.8486,0.8443,0.8497,0.8394,0.8329,0.8329,0.8214,0.8144,0.8144,0.8089,0.8051,0.8051,0.8051,0.79,0.7717,0.7645,0.7401,0.7227,0.6958,0.6905,0.6956,0.6877,0.6662,0.6575,0.6532,0.6251,0.5728,0.5683,0.554,0.5158,0.5195,0.48,0.4125,0.3482,0.3081,0.268,0.2297,0.2151,0.1874,0.05,-0.087,-0.1977,-0.1977,-0.2592,-0.3451,-0.4555,-0.6625,-0.8818,-0.9795,-1.1253,-1.2595,-1.3084,-1.3204,-1.3297,-1.3442,-1.3769,-1.3937,-1.3732,-1.4003,-1.4159,-1.4049,-1.4167,-1.4466,-1.4889,-1.5085,-1.5178,-1.5374,-1.5672,-1.6099,-1.6524,-1.7687,-1.8632,-1.9049,-2.0395,-2.142,-2.1725,-2.2232,-2.2719,-2.332,-2.3637,-2.3746,-2.3859,-2.5061,-2.5498,-2.5057,-2.6615,-2.7217,-2.6977,-2.6715,-2.6736,1.4256,1.4292,1.4413,0.0,0.0,1.3519,0.0,0.0,0.0,0.0,1.4485,1.4473,1.469,1.4811,1.469,1.4134,0.0,0.0,0.0,0.9971,0.0,0.8671,0.8502,0.835,0.835,0.8214,0.816,0.8231,0.8057,0.7981,0.8051,0.7937,0.7872,0.775,0.775,0.7627,0.7266,0.7266,0.7021,0.6775,0.6487,0.6411,0.6428,0.6252,0.6166,0.6178,0.6034,0.5642,0.5131,0.4989,0.4567,0.3899,0.4594,0.4101,0.3198,0.3201,0.2667,0.2011,0.2138,0.1748,0.0864,-0.1235,-0.21,-0.2099,-0.2099,-0.3083,-0.4555,-0.5533,-0.7723,-0.9788,-1.0649,-1.1864,-1.2835,-1.3159,-1.3269,-1.3452,-1.3489,-1.3897,-1.429,-1.4076,-1.4477,-1.4692,-1.4251,-1.4431,-1.4845,-1.5338,-1.5275,-1.5351,-1.5885,-1.5885,-1.5885,-1.5885,-1.7371,-1.8422,-1.8527,-2.0483,-2.1827,-2.203,-2.282,-2.3338,-2.3438,-2.3863,-2.384,-2.3437,-2.475,-2.5097,-2.4395,-2.5828,-2.6496,-2.6474,-2.6081,-2.6103,0.0,0.0,0.0,0.0,1.4244,0.0,0.0,0.0,1.335,1.2747,0.0,0.0,1.335,0.0,0.0,0.0,0.0,0.0,1.0208,0.9126,0.8605,0.8846,0.8464,0.8095,0.0,0.7894,0.7894,0.8209,0.7828,0.772,0.8035,0.7937,0.775,0.751,0.751,0.7266,0.6898,0.6653,0.6526,0.6403,0.6171,0.5974,0.6051,0.6063,0.6108,0.6178,0.5463,0.5178,0.5049,0.436,0.3715,0.3096,0.3271,0.3262,0.3224,0.2483,0.2109,0.1981,0.1982,0.0495,-0.1606,-0.1853,-0.2222,-0.2467,-0.2467,-0.3204,-0.4432,-0.6869,-0.821,-0.9552,-1.2225,-1.2964,-1.3159,-1.3348,-1.3761,-1.4053,-1.3834,-1.4355,-1.4622,-1.451,-1.49,-1.522,-1.511,-1.5198,-1.5327,-1.5755,-1.5803,-1.5779,-1.5885,-1.5885,-1.5885,-1.5885,-1.7371,-1.8617,-1.902,-2.0688,-2.2131,-2.302,-2.322,-2.3538,-2.4053,-2.3804,-2.3419,-2.2939,-2.403,-2.4496,-2.4395,-2.5487,-2.5972,-2.5972,-2.5928,-2.5928,0.0,0.0,0.0,0.0,0.0,0.0,1.3206,0.0,1.3,0.0,0.0,0.0,0.0,0.0,0.0,0.0,1.1803,0.0,0.0,0.0,0.8238,0.0,0.0,0.0,0.0,0.0,0.0,0.0,0.7633,0.7616,0.7839,0.7861,0.775,0.7388,0.7388,0.7143,0.6653,0.6526,0.628,0.6162,0.5916,0.569,0.535,0.535,0.524,0.4893,0.449,0.4229,0.3857,0.3463,0.296,0.2469,0.2462,0.2464,0.2469,0.21,0.1977,0.173,0.0247,-0.1111,-0.21,-0.2222,-0.2467,-0.259,-0.296,-0.4555,-0.6385,-0.7723,-0.9674,-1.1599,-1.2702,-1.3159,-1.3339,-1.3596,-1.3894,-1.4053,-1.4168,-1.4676,-1.5044,-1.4811,-1.5298,-1.5623,-1.5623,-1.5623,-1.5695,-1.591,-1.5885,-1.5885,-1.5885,-1.5885,-1.5885,-1.5885,-1.7371,-1.8513,-1.893,-2.0893,-2.2434,-2.3038,-2.3323,-2.3401,-2.3474,-2.329,-2.3204,-2.3148,-2.3957,-2.454,-2.4712,-2.5466,-2.5906,-2.5906,-2.5906,-2.5906,1.5415,0.0,0.0,0.0,0.0,0.0,0.0,0.0,0.0,0.0,0.0,0.0,0.0,0.0,0.0,0.0,0.0,1.0801,0.0,0.896,0.0,0.0,0.0,0.0,0.0,0.0,0.0,0.0,0.0,0.7448,0.7731,0.7675,0.7596,0.7266,0.7143,0.6893,0.628,0.628,0.6162,0.5916,0.5916,0.5544,0.4926,0.4926,0.4558,0.3943,0.3697,0.3453,0.296,0.2839,0.2469,0.1974,0.1952,0.1952,0.1964,0.1964,0.1477,0.0617,-0.1358,-0.1971,-0.2086,-0.2452,-0.2567,-0.268,-0.341,-0.5464,-0.7627,-0.8354,-1.0517,-1.2649,-1.2867,-1.3296,-1.3596,-1.3828,-1.4107,-1.4382,-1.4592,-1.5085,-1.5464,-1.529,-1.5565,-1.5885,-1.5885,-1.5885,-1.5885,-1.5885,-1.5885,-1.5885,-1.5885,-1.5885,-1.5885,-1.5885,-1.7371,-1.8617,-1.9124,-2.1183,-2.2685,-2.3079,-2.3214,-2.3198,-2.2701,-2.2777,-2.2852,-2.3255,-2.3861,-2.4492,-2.4871,-2.5549,-2.5906,-2.5906,-2.5906,-2.5906,0.0,0.0,0.0,1.463,0.0,0.0,0.0,0.0,1.3423,0.0,0.0,0.0,0.0,0.0,0.0,0.0,0.0,0.0,0.0,0.0,0.0,0.0,0.0,0.0,0.0,0.0,0.0,0.0,0.7089,0.0,0.7828,0.7517,0.715,0.6898,0.6653,0.628,0.5916,0.5916,0.5916,0.5916,0.5916,0.5544,0.4926,0.4926,0.4558,0.382,0.333,0.296,0.2962,0.2346,0.1977,0.1977,0.1975,0.1958,0.2054,0.2054,0.0366,-0.1853,-0.1977,-0.1958,-0.1932,-0.2292,-0.2626,-0.2947,-0.3889,-0.5291,-0.693,-0.8794,-1.0185,-1.1463,-1.2735,-1.3536,-1.3818,-1.3699,-1.4414,-1.524,-1.499,-1.5482,-1.5897,-1.5885,-1.5885,-1.5885,-1.5885,-1.5885,-1.5885,-1.5885,-1.5885,-1.5885,-1.5885,-1.5885,-1.5885,-1.5885,-1.7371,-1.8826,-1.9819,-2.1489,-2.278,-2.3487,-2.3103,-2.2795,-2.2355,-2.2355,-2.2516,-2.2832,-2.3493,-2.4166,-2.4871,-2.5549,-2.5906,-2.5906,-2.5906,-2.5906,0.0,0.0,1.6368,1.5559,0.0,0.0,0.0,0.0,0.0,0.0,0.0,0.0,0.0,0.0,0.0,1.2304,0.0,0.0,0.0,0.0,0.0,0.0,0.0,0.0,0.0,0.0,0.0,0.0,0.685,0.0,0.0,0.7091,0.6847,0.6543,0.6426,0.6215,0.5916,0.5916,0.5916,0.5916,0.5421,0.4926,0.4189,0.382,0.333,0.2592,0.2469,0.2346,0.2346,0.21,0.1977,0.1974,0.1954,0.097,-0.0483,-0.0483,-0.109,-0.1947,-0.1947,-0.1926,-0.2019,-0.2492,-0.2719,-0.3061,-0.4236,-0.6098,-0.7956,-0.9013,-1.0862,-1.2575,-1.3228,-1.3526,-1.3811,-1.4342,-1.4831,-1.524,-1.5482,-1.5779,-1.5885,-1.5885,-1.5885,-1.5885,-1.5885,-1.5885,-1.5885,-1.5885,-1.5885,-1.5885,-1.5885,-1.5885,-1.5885,-1.5885,-1.7371,-1.8722,-1.9435,-2.1692,-2.3072,-2.3103,-2.2939,-2.2555,-2.197,-2.1933,-2.2396,-2.3474,-2.3714,-2.4402,-2.5549,-2.5822,-2.5906,-2.5906,-2.5906,-2.5906,1.7237,1.7177,0.0,1.6332,1.5801,0.0,1.428,0.0,0.0,0.0,0.0,0.0,0.0,0.0,0.0,1.2548,1.2155,0.0,0.0,0.7839,0.0,0.0,0.0,0.6143,0.0,0.6246,0.6393,0.6605,0.6476,0.65,0.0,0.0,0.6508,0.6204,0.6155,0.6098,0.5916,0.5916,0.5916,0.5916,0.5172,0.4558,0.382,0.333,0.2592,0.1977,0.1977,0.1977,0.1977,0.1977,0.1977,0.1851,0.0977,-0.0364,-0.1808,-0.1798,-0.1915,-0.1915,-0.1915,-0.2013,-0.2103,-0.2569,-0.2791,-0.3123,-0.4508,-0.6455,-0.8388,-0.9198,-1.1134,-1.2926,-1.3226,-1.3627,-1.4035,-1.4645,-1.5137,-1.547,-1.5779,-1.5885,-1.5885,-1.5885,-1.5885,-1.5885,-1.5885,-1.5885,-1.5885,-1.5885,-1.5885,-1.5885,-1.5885,-1.5885,-1.5885,-1.5885,-1.7371,-1.893,-2.0158,-2.1996,-2.3126,-2.3008,-2.2793,-2.2502,-2.197,-2.1805,-2.2334,-2.38,-2.38,-2.4488,-2.5906,-2.5906,-2.5906,-2.5906,-2.5906,-2.6052]}]]